     2              OBSERVATION DATA    GPS                 RINEX VERSION / TYPE
ASRINEXO V2.9.7 UX USGS/MENLO_PARK 07-MAR-00 16:23          PGM / RUN BY / DATE
                                                            COMMENT
BIT 2 OF LLI (+4) FLAGS DATA COLLECTED UNDER "AS" CONDITION COMMENT
BIT 2 OF LLI (+4) FLAGS DATA COLLECTED UNDER "AS" CONDITION COMMENT
BIT 2 OF LLI (+4) FLAGS DATA COLLECTED UNDER "AS" CONDITION COMMENT
BIT 2 OF LLI (+4) FLAGS DATA COLLECTED UNDER "AS" CONDITION COMMENT
BIT 2 OF LLI (+4) FLAGS DATA COLLECTED UNDER "AS" CONDITION COMMENT
BIT 2 OF LLI (+4) FLAGS DATA COLLECTED UNDER "AS" CONDITION COMMENT
BIT 2 OF LLI (+4) FLAGS DATA COLLECTED UNDER "AS" CONDITION COMMENT
Original Marker Name: lae2 LAPE2__T6nR4e_S23S24S26.._GLO    COMMENT
Campaign Name: Hector Mine Earthquake                       COMMENT
4-Character Station Name: LAE2                              COMMENT
6-Character Antenna Code: DMRCHT                            COMMENT
Vertical Measurement Point: BCR                             COMMENT
Vertical Offset to Rinex Ref. Point: 0.0348                 COMMENT
Radial Measurement Point: ECF                               COMMENT
Radial Offset to Rinex Ref. Point: 0.1897                   COMMENT
Antenna Height from Field Measurement: 0.8000 m             COMMENT
Additional Antenna Identification Info.:                    COMMENT
Turborogue and Ashtech Choke Ring                           COMMENT
Original XYZ: -2347610.1056 -4703980.7463 3600939.4341      COMMENT
New XYZ position is based on association with SCEC monument COMMENT
E1F2J9D3+0011. Position of that monument is believed to be  COMMENT
valid to within 1 m horizontally; vertical accuracy         COMMENT
should be no worse than 3-times this value.                 COMMENT
                                                            COMMENT
Revised Rinex header created by UCSD GPS archive for        COMMENT
GSAC on 16-Jun-2000 (2000:168) 03:58:00 GMT                 COMMENT
For assistance contact dagnew@ucsd.edu                      COMMENT
or anderson@python.ucsd.edu                                 COMMENT
                                                            COMMENT
T6N R4E S23S24S26S25 1919                                   MARKER NAME
JMS US GEOLOGICAL SURVEY                                    OBSERVER / AGENCY
600 ASHTECH Z-XII3 CD00                                     REC # / TYPE / VERS
801 DORNE-MARGOL. TYPE T                                    ANT # / TYPE
 -2347561.8191 -4703945.4288  3600933.0956                  APPROX POSITION XYZ
        0.7424        0.0000        0.0000                  ANTENNA: DELTA H/E/N
     1     1     0                                          WAVELENGTH FACT L1/2
     5    C1    L1    L2    P1    P2                        # / TYPES OF OBSERV
    30                                                      INTERVAL
  2000     2    26     0     0   30.000000                  TIME OF FIRST OBS
  2000     2    26    23    58   30.000000                  TIME OF LAST OBS
                                                            END OF HEADER
 00  2 26  0  0 30.0000000  0  6 24 04 06 30 10 05
  21238663.466   -18956184.766 9 -14754704.11747  21238663.389    21238673.9834
  24266976.753    -6131988.248 7  -4498053.62845  24266977.101    24266991.9244
  22753695.883   -16547599.115 8 -12879770.38946  22753695.834    22753708.2344
  20986311.227   -24258757.277 9 -18884253.54747  20986311.559    20986321.2534
  21259022.328   -22814714.560 9 -17489279.15947  21259021.656    21259033.3994
  20357933.289   -23856268.323 9 -18570722.01948  20357932.876    20357942.7104
 00  2 26  0  1  0.0000000  0  6 24 04 06 30 10 05
  21250396.318   -18894528.464 9 -14706660.28147  21250396.237    21250406.8264
  24285492.957    -6034685.206 7  -4422233.20045  24285493.243    24285508.3194
  22741050.487   -16614050.557 8 -12931550.59746  22741050.429    22741062.8334
  20976985.898   -24307761.499 9 -18922438.59747  20976986.255    20976995.9344
  21248851.627   -22868161.723 9 -17530926.19447  21248850.917    21248862.6254
  20363474.440   -23827149.479 9 -18548032.02348  20363474.030    20363483.8564
 00  2 26  0  1 30.0000000  0  7 24 04 17 06 30 10 05
  21262160.435   -18832707.580 9 -14658488.18947  21262160.383    21262171.0034
  24303995.845    -5937451.871 7  -4346467.11245  24303996.004    24304011.3634
  25075663.582    -6768643.480 7  -5257933.25945  25075663.210    25075684.6284
  22728407.222   -16680490.649 8 -12983321.94846  22728407.211    22728419.5454
  20967745.689   -24356319.098 9 -18960275.62647  20967746.051    20967755.6634
  21238772.328   -22921128.122 9 -17572198.60747  21238771.625    21238783.3454
  20369106.585   -23797552.247 9 -18524969.25348  20369106.171    20369116.0254
 00  2 26  0  2  0.0000000  0  7 24 04 17 06 30 10 05
  21273959.436   -18770703.333 9 -14610173.21847  21273959.394    21273970.0254
  24322485.480    -5840286.481 7  -4270753.99845  24322485.844    24322501.4124
  25058090.809    -6860987.947 7  -5329889.60845  25058090.446    25058111.8154
  22715770.534   -16746896.859 8 -13035066.92846  22715770.480    22715782.6714
  20958594.179   -24404410.512 9 -18997749.39847  20958594.507    20958604.1064
  21228786.787   -22973602.051 9 -17613087.28047  21228786.077    21228797.7714
  20374833.438   -23767457.549 9 -18501518.85648  20374833.027    20374842.8634
 00  2 26  0  2 30.0000000  0  7 24 04 17 06 30 10 05
  21285804.007   -18708459.861 9 -14561671.84047  21285803.955    21285814.6064
  24340969.876    -5743150.327 7  -4195063.68045  24340970.247    24340985.7714
  25040545.778    -6953186.473 7  -5401732.26445  25040545.512    25040566.6754
  22703151.941   -16813207.622 8 -13086737.52646  22703151.835    22703164.0084
  20949536.820   -24452007.030 9 -19034837.52847  20949537.147    20949546.7744
  21218903.578   -23025538.181 9 -17653556.88747  21218902.859    21218914.5304
  20380662.572   -23736825.321 9 -18477649.59548  20380662.171    20380671.9994
 00  2 26  0  3  0.0000000  0  7 24 04 17 06 30 10 05
  21297692.410   -18645985.896 9 -14512990.84747  21297692.364    21297703.0044
  24359445.020    -5646064.633 7  -4119412.59545  24359445.307    24359460.6394
  25023027.745    -7045243.162 7  -5473464.38144  25023027.251    25023048.1734
  22690548.516   -16879438.473 8 -13138345.86346  22690548.461    22690560.6294
  20940567.892   -24499138.856 9 -19071563.57147  20940568.236    20940577.8134
  21209121.540   -23076942.957 9 -17693612.45147  21209120.821    21209132.4624
  20386591.021   -23705671.151 9 -18453373.62748  20386590.627    20386600.4784
 00  2 26  0  3 30.0000000  0  7 24 04 17 06 30 10 05
  21309621.756   -18583296.770 9 -14464142.20347  21309621.686    21309632.3834
  24377909.014    -5549037.299 8  -4043806.97745  24377909.304    24377924.4614
  25005532.620    -7137178.821 7  -5545102.14144  25005531.701    25005552.9694
  22677955.377   -16945615.255 8 -13189912.07546  22677955.318    22677967.5384
  20931688.482   -24545800.478 9 -19107923.22547  20931688.803    20931698.3294
  21199440.515   -23127816.701 9 -17733254.23247  21199439.784    21199451.4174
  20392616.226   -23674008.519 9 -18428701.45948  20392615.826    20392625.6814
 00  2 26  0  4  0.0000000  0  7 24 04 17 06 30 10 05
  21321591.518   -18520395.073 9 -14415127.91047  21321591.489    21321602.1754
  24396363.736    -5452057.827 8  -3968238.61845  24396363.958    24396379.0864
  24988059.354    -7228999.277 7  -5616650.13444  24988058.547    24988079.7824
  22665368.361   -17011759.900 8 -13241453.24246  22665368.272    22665380.5184
  20922899.464   -24591986.859 9 -19143912.55747  20922899.788    20922909.3084
  21189863.477   -23178143.681 9 -17772469.95747  21189862.773    21189874.3894
  20398737.415   -23641841.652 9 -18403636.38048  20398736.998    20398746.8464
 00  2 26  0  4 30.0000000  0  7 24 04 17 06 30 10 05
  21333598.034   -18457300.806 9 -14365963.56247  21333597.977    21333608.6914
  24414810.822    -5355118.582 8  -3892701.57945  24414811.108    24414826.0454
  24970608.229    -7320703.235 7  -5688107.36944  24970607.629    24970628.5884
  22652785.695   -17077881.690 8 -13292976.61446  22652785.593    22652797.8304
  20914203.685   -24637683.249 9 -19179520.07647  20914204.018    20914213.5064
  21180389.739   -23227928.088 9 -17811262.89247  21180389.022    21180400.6054
  20404954.058   -23609173.131 9 -18378180.39848  20404953.645    20404963.4814
 00  2 26  0  5  0.0000000  0  7 24 04 17 06 30 10 05
  21345641.395   -18394012.895 9 -14316648.33047  21345641.320    21345651.9984
  24433252.956    -5258205.241 8  -3817184.71745  24433253.270    24433268.1894
  24953180.291    -7412285.973 7  -5759470.14545  24953179.723    24953200.7624
  22640204.938   -17143993.281 8 -13344492.02946  22640204.872    22640217.1074
  20905605.186   -24682868.438 9 -19214729.26447  20905605.511    20905614.9834
  21171017.406   -23277179.718 9 -17849640.68947  21171016.670    21171028.2074
  20411268.821   -23575988.920 9 -18352322.58548  20411268.403    20411278.2404
 00  2 26  0  5 30.0000000  0  7 24 04 17 06 30 10 05
  21357724.051   -18330518.275 9 -14267172.01847  21357723.975    21357734.6764
  24451692.568    -5161304.930 8  -3741678.01845  24451692.935    24451707.7854
  24935777.612    -7503735.927 7  -5830729.48245  24935777.151    24935798.1544
  22627625.934   -17210096.003 8 -13396000.54246  22627625.881    22627638.0464
  20897108.365   -24727519.160 9 -19249521.97947  20897108.683    20897118.1964
  21161745.928   -23325901.286 9 -17887605.44047  21161745.189    21161756.7284
  20417684.692   -23542273.152 9 -18326050.57148  20417684.291    20417694.1364
 00  2 26  0  6  0.0000000  0  7 24 04 17 06 30 10 05
  21369846.830   -18266812.885 9 -14217531.46947  21369846.733    21369857.4604
  24470131.735    -5064407.284 8  -3666173.41445  24470131.960    24470146.8304
  24918404.384    -7595030.942 7  -5901868.07145  24918403.939    24918425.0514
  22615053.959   -17276161.873 8 -13447480.34346  22615053.924    22615066.0214
  20888716.905   -24771616.302 9 -19283883.33647  20888717.232    20888726.7614
  21152573.579   -23374101.801 9 -17925164.17247  21152572.859    21152584.3814
  20424206.593   -23508000.310 9 -18299344.47348  20424206.186    20424216.0504
 00  2 26  0  6 30.0000000  0  7 24 04 17 06 30 10 05
  21382009.633   -18202896.920 9 -14167726.84047  21382009.543    21382020.2584
  24488569.777    -4967515.247 8  -3590673.19245  24488570.025    24488584.9754
  24901063.439    -7686157.553 8  -5972875.45745  24901062.924    24901083.9154
  22602494.779   -17342160.438 8 -13498907.69246  22602494.709    22602506.8244
  20880430.652   -24815160.431 9 -19317813.77847  20880430.979    20880440.5294
  21143498.755   -23421790.059 9 -17962323.74747  21143498.031    21143509.5284
  20430836.632   -23473159.422 9 -18272195.75348  20430836.216    20430846.0784
 00  2 26  0  7  0.0000000  0  7 24 04 17 06 30 10 05
  21394214.738   -18138758.672 9 -14117748.99647  21394214.663    21394225.4014
  24507004.910    -4870638.264 7  -3515184.70145  24507005.163    24507020.3124
  24883755.200    -7777111.891 8  -6043748.61445  24883754.676    24883775.5284
  22589948.057   -17408093.190 8 -13550283.75446  22589948.005    22589960.1304
  20872248.572   -24858157.107 9 -19351317.62447  20872248.923    20872258.4634
  21134525.532   -23468944.286 9 -17999067.18747  21134524.803    21134536.2634
  20437571.560   -23437766.985 9 -18244617.24548  20437571.144    20437581.0334
 00  2 26  0  7 30.0000000  0  7 24 04 17 06 30 10 05
  21406458.870   -18074415.341 9 -14067611.35847  21406458.827    21406469.5764
  24525433.189    -4773796.860 7  -3439723.96145  24525433.515    24525448.7464
  24866477.244    -7867906.842 8  -6114497.57145  24866476.717    24866497.4634
  22577416.023   -17473949.079 8 -13601599.92046  22577415.960    22577428.1264
  20864168.819   -24900616.397 9 -19384402.74047  20864169.166    20864178.7214
  21125657.625   -23515544.884 9 -18035379.24747  21125656.902    21125668.3484
  20444408.023   -23401841.295 9 -18216623.21948  20444407.611    20444417.4584
 00  2 26  0  8  0.0000000  0  7 24 04 17 06 30 10 05
  21418738.917   -18009883.233 9 -14017326.61047  21418738.866    21418749.6344
  24543849.792    -4677016.734 7  -3364310.97345  24543850.126    24543865.4804
  24849227.736    -7958552.017 8  -6185129.82845  24849227.269    24849247.8904
  22564899.726   -17539722.159 8 -13652851.55446  22564899.665    22564911.8304
  20856189.571   -24942547.140 9 -19417075.98947  20856189.930    20856199.4974
  21116895.838   -23561588.187 9 -18071257.04147  21116895.118    21116906.5224
  20451342.507   -23365400.363 9 -18188227.69348  20451342.061    20451351.9404
 00  2 26  0  8 30.0000000  0  7 24 04 17 06 30 10 05
  21431056.555   -17945153.597 9 -13966887.96147  21431056.498    21431067.2654
  24562252.861    -4580307.461 7  -3288953.20945  24562253.306    24562268.7674
  24832004.552    -8049059.015 7  -6255654.41645  24832004.052    24832024.5894
  22552396.096   -17605427.986 8 -13704050.79146  22552396.071    22552408.2184
  20848306.600   -24983972.262 9 -19449355.25847  20848306.938    20848316.4814
  21108243.769   -23607054.556 9 -18106685.29047  21108243.048    21108254.4374
  20458371.242   -23328464.190 9 -18159446.28248  20458370.805    20458380.6964
 00  2 26  0  9  0.0000000  0  7 24 04 17 06 30 10 05
  21443411.665   -17880227.161 9 -13916295.95847  21443411.615    21443422.3724
  24580639.285    -4483686.336 7  -3213664.09245  24580639.667    24580655.2164
  24814804.507    -8139443.997 7  -6326083.88745  24814804.089    24814824.4794
  22539900.697   -17671091.710 8 -13755217.21546  22539900.642    22539912.6994
  20840520.414   -25024888.966 9 -19481238.35447  20840520.728    20840530.2704
  21099702.107   -23651940.975 9 -18141661.62847  21099701.381    21099712.7174
  20465492.893   -23291039.626 9 -18130284.30448  20465492.474    20465502.3754
 00  2 26  0  9 30.0000000  0  7 24 04 17 06 30 10 05
  21455804.832   -17815100.646 9 -13865548.05447  21455804.795    21455815.5444
  24599010.360    -4387146.276 8  -3138438.14145  24599010.719    24599026.1194
  24797630.109    -8229694.477 7  -6396408.53645  24797629.749    24797650.0054
  22527414.925   -17736704.331 8 -13806343.80946  22527414.856    22527426.8844
  20832831.276   -25065295.195 9 -19512723.68147  20832831.611    20832841.1464
  21091269.402   -23696254.747 9 -18176191.75147  21091268.689    21091280.0184
  20472713.913   -23253093.005 9 -18100715.52748  20472713.495    20472723.4114
 00  2 26  0 10  0.0000000  0  6 24 17 06 30 10 05
  21468236.617   -17749771.427 9 -13814642.20147  21468236.549    21468247.2544
  24780482.783    -8319802.878 7  -6466622.47645  24780482.280    24780502.5324
  22514935.086   -17802285.899 8 -13857446.21246  22514935.035    22514947.0244
  20825236.796   -25105204.549 9 -19543821.83747  20825237.128    20825246.5964
  21082942.367   -23740013.312 9 -18210289.24647  21082941.653    21082952.9284
  20480036.065   -23214614.933 9 -18070732.63948  20480035.656    20480045.5644
 00  2 26  0 10 30.0000000  0  6 24 17 06 30 10 05
  21480694.143   -17684306.830 9 -13763630.85547  21480694.065    21480704.7794
  24763351.398    -8409826.846 7  -6536770.60444  24763350.712    24763371.3884
  22502446.736   -17867912.344 8 -13908583.57946  22502446.690    22502458.6064
  20817724.690   -25144680.935 9 -19574582.61047  20817724.999    20817734.4324
  21074708.774   -23783280.903 9 -18244004.16947  21074708.033    21074719.2724
  20487449.583   -23175656.693 9 -18040375.59148  20487449.164    20487459.0704
 00  2 26  0 11  0.0000000  0  6 24 17 06 30 10 05
  21493190.447   -17618638.536 9 -13712460.78547  21493190.384    21493201.0834
  24746253.492    -8499673.160 7  -6606780.30844  24746252.796    24746273.5604
  22489967.559   -17933490.790 8 -13959683.53846  22489967.500    22489979.3264
  20810313.973   -25183624.267 9 -19604928.01247  20810314.289    20810323.7184
  21066583.823   -23825977.273 9 -18277273.98547  21066583.108    21066594.3264
  20494973.946   -23136116.096 9 -18009564.75448  20494973.525    20494983.4514
 00  2 26  0 11 30.0000000  0  6 24 17 06 30 10 05
  21505725.565   -17552766.111 9 -13661131.66147  21505725.496    21505736.2204
  24729193.784    -8589320.970 7  -6676635.38344  24729193.056    24729213.8504
  22477503.159   -17998991.225 8 -14010722.70946  22477503.108    22477514.9024
  20803007.999   -25222017.312 9 -19634844.62247  20803008.307    20803017.7064
  21058568.363   -23868098.672 9 -18310095.77747  21058567.637    21058578.8174
  20502610.578   -23095985.444 9 -17978294.13748  20502610.158    20502620.0724
 00  2 26  0 12  0.0000000  0  6 24 17 06 30 10 05
  21518296.682   -17486704.356 9 -13609654.99847  21518296.623    21518307.4014
  24712172.607    -8678767.599 7  -6746333.69045  24712172.049    24712192.3914
  22465054.527   -18064408.876 8 -14061697.38346  22465054.467    22465066.1674
  20795809.481   -25259845.694 9 -19664321.23148  20795809.791    20795819.1594
  21050662.714   -23909642.702 9 -18342467.67447  21050662.000    21050673.1504
  20510356.126   -23055282.229 9 -17946577.36948  20510355.706    20510365.6294
 00  2 26  0 12 30.0000000  0  6 24 17 06 30 10 05
  21530902.429   -17420460.766 9 -13558036.64547  21530902.406    21530913.1314
  24695188.462    -8768019.419 8  -6815880.19745  24695187.878    24695207.8084
  22452624.562   -18129727.949 8 -14112595.24346  22452624.502    22452636.2044
  20788719.977   -25297101.058 9 -19693351.33748  20788720.288    20788729.6494
  21042867.073   -23950608.613 9 -18374389.08847  21042866.367    21042877.4904
  20518207.038   -23014025.627 9 -17914429.39648  20518206.611    20518216.5344
 00  2 26  0 13  0.0000000  0  6 24 17 06 30 10 05
  21543542.863   -17354034.977 9 -13506276.32747  21543542.825    21543553.5674
  24678239.204    -8857087.009 8  -6885283.13745  24678238.661    24678258.4474
  22440214.123   -18194944.521 8 -14163413.23846  22440214.133    22440225.7834
  20781737.993   -25333791.212 9 -19721941.01948  20781738.312    20781747.6944
  21035180.057   -23991003.887 9 -18405865.85047  21035179.338    21035190.4444
  20526159.935   -22972233.067 9 -17881863.79148  20526159.505    20526169.4134
 00  2 26  0 13 30.0000000  0  6 24 17 06 30 10 05
  21556216.040   -17287437.358 9 -13454382.10947  21556215.972    21556226.6924
  24661323.407    -8945978.817 8  -6954549.11345  24661322.872    24661342.5184
  22427820.477   -18260073.556 8 -14214163.01347  22427820.433    22427832.0474
  20774858.320   -25369943.775 9 -19750111.79348  20774858.635    20774868.0324
  21027599.562   -24030839.448 9 -18436906.47547  21027598.846    21027609.9114
  20534207.152   -22929944.599 9 -17848911.76448  20534206.734    20534216.6354
 00  2 26  0 14  0.0000000  0  6 24 17 06 30 10 05
  21568918.878   -17220683.464 9 -13402366.11547  21568918.838    21568929.5614
  24644434.276    -9034730.708 8  -7023706.06745  24644433.765    24644453.3354
  22415435.395   -18325157.034 8 -14264877.29447  22415435.357    22415446.9514
  20768072.741   -25405602.065 9 -19777897.42748  20768073.082    20768082.4164
  21020123.786   -24070124.466 9 -18467518.10747  21020123.062    21020134.1214
  20542342.699   -22887192.111 9 -17815598.15348  20542342.252    20542352.1904
 00  2 26  0 14 30.0000000  0  6 24 17 06 30 10 05
  21581650.578   -17153777.953 9 -13350231.98447  21581650.564    21581661.3114
  24627564.804    -9123378.682 8  -7092782.04845  24627564.323    24627583.8774
  22403054.472   -18390218.459 8 -14315574.38647  22403054.439    22403066.0424
  20761378.239   -25440781.872 9 -19805310.20948  20761378.557    20761387.8934
  21012750.753   -24108869.718 9 -18497709.14247  21012750.026    21012761.0794
  20550562.379   -22843997.345 9 -17781939.92448  20550561.962    20550571.8974
 00  2 26  0 15  0.0000000  0  6 24 17 06 30 10 05
  21594409.507   -17086729.734 9 -13297986.63747  21594409.461    21594420.1944
  24610713.867    -9211929.470 8  -7161782.29345  24610713.378    24610732.7874
  22390674.359   -18455275.763 8 -14366268.26147  22390674.299    22390685.9044
  20754776.799   -25475472.578 9 -19832341.88048  20754777.117    20754786.4484
  21005481.109   -24147071.488 9 -18527476.68147  21005480.399    21005491.4264
  20558866.886   -22800357.106 9 -17747934.58848  20558866.473    20558876.4184
 00  2 26  0 15 30.0000000  0  6 24 17 06 30 10 05
  21607195.729   -17019537.720 9 -13245629.25047  21607195.680    21607206.4474
  24593882.601    -9300377.239 7  -7230702.28045  24593882.070    24593901.3814
  22378296.871   -18520319.332 8 -14416951.43446  22378296.808    22378308.3554
  20748273.937   -25509645.038 9 -19858969.72348  20748274.259    20748283.5794
  20998317.996   -24184713.592 9 -18556808.11347  20998317.288    20998328.3074
  20567257.475   -22756264.159 9 -17713576.47448  20567257.054    20567267.0224
 00  2 26  0 16  0.0000000  0  6 24 17 06 30 10 05
  21620012.564   -16952184.856 9 -13193146.51347  21620012.537    21620023.2954
  24577071.155    -9388720.661 7  -7299540.95245  24577070.698    24577089.7034
  22365926.329   -18585326.575 8 -14467606.30747  22365926.261    22365937.7854
  20741878.008   -25543255.497 9 -19885159.63948  20741878.336    20741887.6414
  20991264.023   -24221782.361 9 -18585692.78947  20991263.301    20991274.2544
  20575742.997   -22711672.688 9 -17678829.89148  20575742.570    20575752.5464
 00  2 26  0 16 30.0000000  0  6 24 17 06 30 10 05
  21632865.584   -16884641.754 9 -13140515.55247  21632865.519    21632876.3374
  24560290.379    -9476902.329 7  -7368253.58845  24560290.006    24560308.9144
  22353575.639   -18650229.367 8 -14518179.77647  22353575.592    22353587.1084
  20735600.642   -25576243.133 9 -19910864.24448  20735600.992    20735610.2704
  20984324.221   -24258251.136 9 -18614109.94247  20984323.485    20984334.4284
  20584333.852   -22666527.553 9 -17643651.89848  20584333.422    20584343.3954
 00  2 26  0 17  0.0000000  0  6 24 17 06 30 10 05
  21645755.710   -16816903.888 9 -13087732.82347  21645755.655    21645766.4834
  24543548.356    -9564880.115 7  -7436807.39645  24543548.016    24543566.9524
  22341250.792   -18714996.429 8 -14568647.48647  22341250.744    22341262.2214
  20729442.602   -25608603.957 9 -19936080.42648  20729442.915    20729452.1664
  20977501.371   -24294104.970 9 -18642047.92447  20977500.659    20977511.5964
  20593035.137   -22620802.113 9 -17608021.72048  20593034.709    20593044.6814
 00  2 26  0 17 30.0000000  0  6 24 17 06 30 10 05
  21658683.729   -16748966.684 9 -13034794.76647  21658683.675    21658694.5374
  24526846.621    -9652647.108 7  -7505196.96945  24526846.378    24526865.1044
  22328953.304   -18779619.793 8 -14619003.21447  22328953.247    22328964.7564
  20723401.894   -25640347.863 9 -19960815.89148  20723402.207    20723411.4394
  20970795.431   -24329344.698 9 -18669507.38047  20970794.711    20970805.6274
  20601848.879   -22574485.741 9 -17571931.07348  20601848.457    20601858.4304
 00  2 26  0 18  0.0000000  0  6 24 17 06 30 10 05
  21671649.471   -16680831.534 9 -12981702.45947  21671649.409    21671660.2494
  24510186.851    -9740194.011 7  -7573415.04845  24510186.512    24510205.1344
  22316680.084   -18844115.856 8 -14669259.75547  22316679.974    22316691.4144
  20717475.092   -25671493.328 9 -19985085.03648  20717475.420    20717484.6184
  20964205.636   -24363973.794 9 -18696491.01647  20964204.933    20964215.8454
  20610775.239   -22527577.449 9 -17535379.18548  20610774.808    20610784.7774
 00  2 26  0 18 30.0000000  0  6 24 17 06 30 10 05
  21684649.429   -16612516.348 9 -12928469.87647  21684649.340    21684660.2114
  24493570.253    -9827513.567 8  -7641455.98845  24493569.925    24493588.3974
  22304425.683   -18908512.957 8 -14719439.19947  22304425.588    22304436.9064
  20711656.697   -25702069.240 9 -20008910.37648  20711657.008    20711666.1824
  20957730.622   -24397999.924 9 -18723004.81747  20957729.926    20957740.8144
  20619807.145   -22480114.644 9 -17498395.22048  20619806.715    20619816.7054
 00  2 26  0 19  0.0000000  0  6 24 17 06 30 10 05
  21697680.612   -16544037.164 9 -12875109.50947  21697680.538    21697691.4124
  24476989.610    -9914644.693 8  -7709350.10745  24476989.244    24477007.5134
  22292178.619   -18972871.158 8 -14769588.33247  22292178.516    22292189.8434
  20705940.038   -25732110.394 9 -20032319.02848  20705940.346    20705949.5054
  20951368.918   -24431430.760 9 -18749054.75347  20951368.210    20951379.0594
  20628935.038   -22432147.260 9 -17461018.07448  20628934.616    20628944.6254
 00  2 26  0 19 30.0000000  0  6 24 17 06 30 10 05
  21710741.182   -16475403.308 9 -12821628.61747  21710741.107    21710751.9934
  24460438.476   -10001620.477 8  -7777123.15645  24460438.091    24460456.2384
  22279933.197   -19037220.389 8 -14819730.46347  22279933.124    22279944.5054
  20700322.131   -25761632.547 9 -20055323.26148  20700322.425    20700331.5864
  20945118.479   -24464276.771 9 -18774648.97947  20945117.767    20945128.5964
  20638151.811   -22383713.150 9 -17423277.24348  20638151.385    20638161.3714
 00  2 26  0 20  0.0000000  0  6 24 17 06 30 10 05
  21723826.166   -16406641.195 9 -12768047.77347  21723826.118    21723837.0334
  24443914.162   -10088455.383 8  -7844786.44445  24443913.791    24443931.7264
  22267690.329   -19101556.503 8 -14869862.37947  22267690.279    22267701.6584
  20694800.721   -25790647.488 9 -20077932.26048  20694801.027    20694810.1704
  20938977.513   -24496547.423 9 -18799794.86847  20938976.818    20938987.6454
  20647451.602   -22334842.392 9 -17385196.16548  20647451.197    20647461.1794
 00  2 26  0 20 30.0000000  0  6 24 17 06 30 10 05
  21736932.289   -16337767.980 9 -12714380.36347  21736932.235    21736943.1714
  24427413.519   -10175165.632 7  -7912352.61345  24427413.145    24427431.0044
  22255451.986   -19165869.141 8 -14919976.00747  22255451.941    22255463.2764
  20689375.990   -25819154.367 9 -20100145.37448  20689376.293    20689385.4284
  20932944.463   -24528251.119 9 -18824498.97047  20932943.745    20932954.5564
  20656831.683   -22285549.880 9 -17346786.45548  20656831.283    20656841.2964
 00  2 26  0 21  0.0000000  0  6 24 17 06 30 10 05
  21750058.945   -16268787.033 9 -12660629.01147  21750058.907    21750069.8674
  24410934.596   -10261761.484 8  -7979829.63645  24410934.233    24410952.1024
  22243221.271   -19230141.626 8 -14970058.35647  22243221.198    22243232.4764
  20684048.134   -25847152.116 9 -20121961.76048  20684048.441    20684057.5694
  20927018.477   -24559392.060 9 -18848764.56247  20927017.747    20927028.5644
  20666293.795   -22235826.188 9 -17308040.75948  20666293.393    20666303.4414
 00  2 26  0 21 30.0000000  0  6 24 17 06 30 10 05
  21763205.011   -16199704.266 9 -12606798.32147  21763204.967    21763215.9134
  24394480.591   -10348226.884 8  -8047204.98945  24394480.293    24394498.0044
  22231004.995   -19294338.133 8 -15020081.50047  22231004.906    22231016.1694
  20678822.077   -25874615.103 9 -20143361.45248  20678822.379    20678831.4994
  20921200.188   -24589967.133 9 -18872589.21447  20921199.455    20921210.2684
  20675845.047   -22185634.059 9 -17268930.04548  20675844.641    20675854.7104
 00  2 26  0 22  0.0000000  0  6 24 17 06 30 10 05
  21776372.598   -16130508.201 9 -12552879.34247  21776372.541    21776383.4614
  24378055.664   -10434539.205 8  -8114461.05745  24378055.294    24378073.0854
  22218807.029   -19358438.201 8 -15070029.50247  22218806.950    22218818.2014
  20673702.109   -25901520.602 9 -20164326.73748  20673702.424    20673711.5194
  20915491.798   -24619964.468 9 -18895963.67947  20915491.077    20915501.8704
  20685491.950   -22134939.396 9 -17229427.74548  20685491.532    20685501.6334
 00  2 26  0 22 30.0000000  0  6 24 17 06 30 10 05
  21789567.317   -16061169.955 9 -12498849.57147  21789567.227    21789578.1454
  24361664.025   -10520676.823 8  -8181581.00945  24361663.572    24361681.4084
  22206626.475   -19422446.961 8 -15119906.35147  22206626.393    22206637.6734
  20668690.140   -25927858.329 9 -20184849.61048  20668690.464    20668699.5544
  20909897.101   -24649364.454 9 -18918872.67947  20909896.380    20909907.1924
  20695237.600   -22083725.668 9 -17189520.98548  20695237.195    20695247.3224
 00  2 26  0 23  0.0000000  0  6 24 17 06 30 10 05
  21802788.646   -15991691.442 9 -12444710.50747  21802788.583    21802799.4704
  24345305.383   -10606641.381 8  -8248566.12545  24345304.916    24345322.4754
  22194461.744   -19486372.579 8 -15169718.41147  22194461.674    22194472.9454
  20663784.690   -25953636.403 9 -20204936.38748  20663785.009    20663794.1144
  20904417.291   -24678160.650 9 -18941311.19447  20904416.584    20904427.3514
  20705082.717   -22031989.275 9 -17149206.95348  20705082.310    20705092.4444
 00  2 26  0 23 30.0000000  0  6 24 17 06 30 10 05
  21816036.495   -15922073.678 9 -12390462.93247  21816036.422    21816047.3284
  24328979.777   -10692431.728 8  -8315415.47345  24328979.399    24328996.8564
  22182311.441   -19550222.332 8 -15219471.36447  22182311.376    22182322.5984
  20658986.202   -25978852.380 9 -20224585.17448  20658986.521    20658995.6394
  20899053.892   -24706345.152 9 -18963273.06947  20899053.187    20899063.9334
  20715025.572   -21979739.387 9 -17108492.79548  20715025.166    20715035.3234
 00  2 26  0 24  0.0000000  0  6 24 17 06 30 10 05
  21829311.576   -15852312.818 9 -12336103.86047  21829311.482    21829322.4104
  24312687.180   -10778048.725 8  -8382129.73245  24312686.798    24312704.3404
  22170173.611   -19614006.314 8 -15269173.06147  22170173.539    22170184.7794
  20654293.777   -26003511.101 9 -20243799.73948  20654294.110    20654303.2034
  20893806.582   -24733919.534 9 -18984759.53047  20893805.899    20893816.6214
  20725061.922   -21926998.109 9 -17067395.73448  20725061.508    20725071.6764
 00  2 26  0 24 30.0000000  0  6 24 17 06 30 10 05
  21842613.176   -15782412.580 9 -12281636.17947  21842613.084    21842623.9904
  24296426.407   -10863498.472 8  -8448713.66845  24296425.885    24296443.5204
  22158045.768   -19677737.658 8 -15318833.74247  22158045.734    22158056.9804
  20649708.105   -26027608.737 9 -20262577.09748  20649708.444    20649717.5284
  20888671.787   -24760902.830 9 -19005785.41147  20888671.094    20888681.7734
  20735189.073   -21873779.729 9 -17025926.90748  20735188.658    20735198.8204
 00  2 26  0 25  0.0000000  0  6 24 17 06 30 10 05
  21855942.793   -15712365.005 9 -12227053.69547  21855942.716    21855953.6804
  24280196.534   -10948785.168 8  -8515170.52645  24280195.981    24280213.6474
  22145931.569   -19741398.065 8 -15368439.15647  22145931.541    22145942.7334
  20645233.729   -26051121.555 9 -20280898.74748  20645234.072    20645243.1714
  20883648.317   -24787301.121 9 -19026355.44247  20883647.642    20883658.2894
  20745409.371   -21820071.883 9 -16984076.67048  20745408.942    20745419.1304
 00  2 26  0 25 30.0000000  0  6 24 17 06 30 10 05
  21869302.702   -15642158.115 9 -12172347.06547  21869302.637    21869313.6064
  24264000.429   -11033895.564 8  -8581490.02745  24263999.913    24264017.3994
  22133833.879   -19804971.640 8 -15417976.90047  22133833.826    22133845.0034
  20640874.771   -26074027.823 9 -20298747.76848  20640875.129    20640884.2204
  20878737.976   -24813104.845 9 -19046462.17847  20878737.301    20878747.9474
  20755723.376   -21765871.557 9 -16941842.68748  20755722.972    20755733.1954
 00  2 26  0 26  0.0000000  0  6 24 17 06 30 10 05
  21882694.959   -15571781.621 8 -12117508.27347  21882694.826    21882705.8184
  24247840.053   -11118817.874 8  -8647662.94445  24247839.480    24247857.0204
  22121754.284   -19868449.759 8 -15467440.26047  22121754.258    22121765.4094
  20636633.591   -26096315.334 9 -20316114.63548  20636633.926    20636643.0404
  20873941.466   -24838310.666 9 -19066103.00647  20873940.762    20873951.3924
  20766132.432   -21711171.670 9 -16899219.43648  20766132.026    20766142.2614
 00  2 26  0 26 30.0000000  0  6 24 17 06 30 10 05
  21896118.764   -15501239.091 9 -12062540.10647  21896118.652    21896129.6364
  24231716.663   -11203545.633 8  -8713684.24745  24231716.102    24231733.5574
  22109693.387   -19931829.889 8 -15516827.28947  22109693.348    22109704.4264
  20632507.591   -26117997.323 9 -20333009.66848  20632507.922    20632517.0674
  20869259.704   -24862912.920 9 -19085273.53247  20869259.023    20869269.6554
  20776637.179   -21655969.065 9 -16856204.47348  20776636.774    20776646.9974
 00  2 26  0 27  0.0000000  0  6 24 17 06 30 10 05
  21909569.186   -15430556.649 9 -12007462.90847  21909569.081    21909580.0854
  24215628.205   -11288089.941 8  -8779562.61545  24215627.650    24215644.9694
  22097651.599   -19995109.351 8 -15566135.86247  22097651.584    22097662.5614
  20628491.666   -26139101.109 9 -20349454.15548  20628492.012    20628501.1154
  20864694.907   -24886900.766 9 -19103965.29747  20864694.213    20864704.8324
  20787234.437   -21600280.356 9 -16812810.71248  20787234.017    20787244.2594
 00  2 26  0 27 30.0000000  0  6 24 17 06 30 10 05
  21923041.909   -15359757.212 9 -11952294.55947  21923041.824    21923052.8234
  24199573.756   -11372455.569 8  -8845301.72945  24199573.225    24199590.4534
  22085625.404   -20058307.438 8 -15615381.03347  22085625.370    22085636.2884
  20624581.879   -26159647.332 9 -20365464.17848  20624582.189    20624591.2644
  20860246.440   -24910277.395 9 -19122180.79547  20860245.732    20860256.3194
  20797921.636   -21544118.949 9 -16769048.61348  20797921.219    20797931.4444
 00  2 26  0 28  0.0000000  0  6 24 17 06 30 10 05
  21936535.694   -15288847.055 8 -11897039.93247  21936535.572    21936546.6014
  24183550.999   -11456654.135 8  -8910910.65945  24183550.517    24183567.7194
  22073611.872   -20121438.696 8 -15664574.12247  22073611.817    22073622.7104
  20620774.076   -26179657.164 9 -20381056.22748  20620774.415    20620783.4674
  20855910.483   -24933062.575 9 -19139935.42047  20855909.804    20855920.3774
  20808697.559   -21487491.114 9 -16724923.06048  20808697.149    20808707.3634
 00  2 26  0 28 30.0000000  0  6 24 17 06 30 10 05
  21950046.721   -15217846.003 9 -11841714.47147  21950046.649    21950057.6814
  24167558.115   -11540695.963 8  -8976397.46845  24167557.669    24167574.7734
  22061611.352   -20184501.201 8 -15713713.64847  22061611.334    22061622.2334
  20617067.854   -26199133.398 9 -20396232.49048  20617068.181    20617077.2524
  20851684.433   -24955270.488 9 -19157240.22647  20851683.750    20851694.3054
  20819561.253   -21430402.318 9 -16680438.33348  20819560.848    20819571.0544
 00  2 26  0 29  0.0000000  0  6 24 17 06 30 10 05
  21963575.402   -15146752.849 9 -11786317.24947  21963575.293    21963586.3004
  24151594.812   -11624582.677 8  -9041763.43145  24151594.359    24151611.3814
  22049626.604   -20247481.242 8 -15762788.93047  22049626.571    22049637.3444
  20613468.762   -26218046.738 9 -20410970.13548  20613469.102    20613478.1584
  20847568.961   -24976897.160 9 -19174092.11747  20847568.279    20847578.8214
  20830514.090   -21372845.141 9 -16635588.62348  20830513.645    20830523.8654
 00  2 26  0 29 30.0000000  0  6 24 17 06 30 10 05
  21977124.960   -15075549.516 9 -11730834.16647  21977124.863    21977135.8734
  24135664.934   -11708293.369 8  -9106992.20845  24135664.458    24135681.4394
  22037660.444   -20310363.361 8 -15811787.89947  22037660.425    22037671.1564
  20609982.207   -26236368.626 9 -20425246.90548  20609982.536    20609991.5944
  20843567.134   -24997926.726 9 -19190478.72347  20843566.439    20843576.9804
  20841558.933   -21314804.091 9 -16590361.87448  20841558.499    20841568.7514
 00  2 26  0 30  0.0000000  0  6 24 17 06 30 10 05
  21990695.995   -15004233.509 9 -11675263.28947  21990695.908    21990706.9494
  24119771.974   -11791810.085 8  -9172069.83545  24119771.480    24119788.3954
  22025715.234   -20373135.711 8 -15860701.34347  22025715.195    22025725.9074
  20606610.938   -26254084.725 9 -20439051.63848  20606611.280    20606620.3184
  20839681.620   -25018345.089 9 -19206389.07447  20839680.919    20839691.4384
  20852694.742   -21256285.242 9 -16544762.82548  20852694.320    20852704.5584
 00  2 26  0 30 30.0000000  0  6 24 17 06 30 10 05
  22004287.491   -14932809.691 8 -11619608.40547  22004287.419    22004298.4704
  24103917.883   -11875122.885 8  -9236988.57645  24103917.366    24103934.2204
  22013792.080   -20435791.744 8 -15909524.14047  22013792.049    22013802.7884
  20603356.803   -26271185.319 9 -20452376.74848  20603357.123    20603366.1754
  20835917.203   -25038126.857 9 -19221803.36747  20835916.515    20835927.0024
  20863922.521   -21197282.931 9 -16498787.04248  20863922.087    20863932.3964
 00  2 26  0 31  0.0000000  0  6 24 17 06 30 10 05
  22017902.412   -14861263.146 8 -11563857.88447  22017902.294    22017913.3524
  24088101.806   -11958234.582 8  -9301750.61745  24088101.325    24088118.2024
  22001886.432   -20498356.008 8 -15958275.43747  22001886.421    22001897.1494
  20600215.853   -26287690.909 9 -20465238.22548  20600216.187    20600225.2264
  20832276.748   -25057257.566 9 -19236710.33947  20832276.036    20832286.4954
  20875241.415   -21137801.934 9 -16452438.26048  20875241.001    20875251.3024
 00  2 26  0 31 30.0000000  0  6 24 17 06 30 10 05
  22031538.495   -14789604.923 8 -11508020.35747  22031538.393    22031549.4594
  24072323.378   -12041149.204 8  -9366359.09645  24072322.908    24072339.8054
  21989993.265   -20560854.865 8 -16006975.76947  21989993.215    21990003.9204
  20597182.476   -26303631.267 9 -20477659.26448  20597182.797    20597191.8294
  20828757.630   -25075750.149 9 -19251120.07647  20828756.932    20828767.3824
  20886647.985   -21077860.332 9 -16405730.56048  20886647.555    20886657.8114
 00  2 26  0 32  0.0000000  0  6 24 17 06 30 10 05
  22045193.365   -14717848.041 8 -11452105.94347  22045193.300    22045204.3824
  24056578.573   -12123888.048 8  -9430830.62545  24056578.078    24056594.8614
  21978107.444   -20623314.766 8 -16055645.74947  21978107.393    21978118.0744
  20594252.291   -26319029.415 9 -20489657.80248  20594252.616    20594261.6604
  20825355.425   -25093628.510 9 -19265051.19947  20825354.737    20825365.1574
  20898138.070   -21017479.757 9 -16358680.81548  20898137.640    20898147.9444
 00  2 26  0 32 30.0000000  0  6 24 17 06 30 10 05
  22058865.164   -14646002.406 8 -11396122.37447  22058865.076    22058876.2154
  24040862.674   -12206474.705 8  -9495183.58345  24040862.218    24040878.7994
  21966228.333   -20685739.510 8 -16104288.32047  21966228.297    21966239.0004
  20591423.608   -26333894.027 9 -20501240.60048  20591423.944    20591432.9944
  20822067.095   -25110908.604 9 -19278516.13947  20822066.393    20822076.7914
  20909711.882   -20956659.092 9 -16311288.14148  20909711.468    20909721.7944
 00  2 26  0 33  0.0000000  0  6 24 17 06 30 10 05
  22072552.646   -14574074.088 8 -11340074.37947  22072552.620    22072563.7884
  24025175.863   -12288908.553 8  -9559417.48445  24025175.378    24025191.8824
  21954360.187   -20748106.828 9 -16152886.14647  21954360.173    21954370.8704
  20588699.174   -26348210.935 9 -20512396.61948  20588699.520    20588708.5634
  20818891.299   -25127597.332 9 -19291520.28447  20818890.612    20818900.9924
  20921368.948   -20895401.078 9 -16263554.68348  20921368.488    20921378.8474
 00  2 26  0 33 30.0000000  0  6 24 17 06 30 10 05
  22086252.894   -14502079.139 8 -11283974.46247  22086252.825    22086264.0174
  24009522.273   -12371167.930 8  -9623515.43945  24009521.754    24009538.2124
  21942510.220   -20810378.991 9 -16201409.83247  21942510.136    21942520.7974
  20586085.150   -26361947.598 9 -20523100.50148  20586085.500    20586094.5204
  20815829.534   -25143686.773 9 -19304057.45147  20815828.832    20815839.2064
  20933111.764   -20833692.142 9 -16215469.85748  20933111.318    20933121.7084
 00  2 26  0 34  0.0000000  0  6 24 17 06 30 10 05
  22099969.955   -14429996.008 8 -11227805.82947  22099969.879    22099981.0824
  23993902.845   -12453247.536 8  -9687473.31845  23993902.327    23993918.7054
  21930683.847   -20872526.568 8 -16249836.43447  21930683.764    21930694.4024
  20583586.244   -26375079.575 9 -20533333.19648  20583586.570    20583595.5584
  20812885.836   -25159155.966 9 -19316111.30847  20812885.129    20812895.4594
  20944944.538   -20771510.749 9 -16167016.87248  20944944.107    20944954.5104
 00  2 26  0 34 30.0000000  0  6 24 17 06 30 10 05
  22113706.841   -14357808.326 8 -11171555.72147  22113706.789    22113717.9484
  23978321.056   -12535129.462 8  -9751277.16245  23978320.495    23978336.7664
  21918885.169   -20934528.352 9 -16298149.42447  21918885.142    21918895.7924
  20581207.772   -26387578.519 9 -20543072.61448  20581208.096    20581217.0654
  20810063.835   -25173985.234 9 -19327666.51747  20810063.133    20810073.4694
  20956871.970   -20708831.762 9 -16118176.14347  20956871.530    20956881.9634
 00  2 26  0 35  0.0000000  0  6 24 17 06 30 10 05
  22127467.390   -14285496.313 8 -11115208.74047  22127467.323    22127478.5074
  23962781.732   -12616788.239 8  -9814907.13345  23962781.163    23962797.2494
  21907113.717   -20996387.466 9 -16346351.24847  21907113.671    21907124.2804
  20578952.684   -26399428.828 9 -20552306.60648  20578953.017    20578962.0014
  20807366.201   -25188161.259 9 -19338712.70947  20807365.491    20807375.8174
  20968894.159   -20645654.745 9 -16068947.34247  20968893.737    20968904.1664
 00  2 26  0 35 30.0000000  0  6 24 17 06 30 10 05
  22141255.429   -14213039.772 8 -11058749.13047  22141255.388    22141266.5224
  23947284.043   -12698227.901 8  -9878366.38545  23947283.471    23947299.4844
  21895362.436   -21058140.411 9 -16394470.33447  21895362.406    21895373.0104
  20576818.826   -26410642.398 9 -20561044.43848  20576819.165    20576828.1424
  20804792.451   -25201686.016 9 -19349251.42447  20804791.752    20804802.0764
  20981010.284   -20581984.488 9 -16019334.20647  20981009.869    20981020.2904
 00  2 26  0 36  0.0000000  0  6 24 17 06 30 10 05
  22155072.246   -14140432.195 8 -11002171.83247  22155072.193    22155083.2854
  23931823.712   -12779471.043 8  -9941672.50345  23931823.154    23931839.0224
  21883626.225   -21119814.297 9 -16442527.81847  21883626.181    21883636.7384
  20574803.348   -26421233.716 9 -20569297.39348  20574803.690    20574812.6654
  20802340.764   -25214569.420 9 -19359290.37747  20802340.070    20802350.3704
  20993217.344   -20517836.155 9 -15969348.53647  20993216.908    20993227.3574
 00  2 26  0 36 30.0000000  0  6 24 17 06 30 10 05
  22168913.198   -14067697.884 8 -10945495.78147  22168913.101    22168924.1684
  23916403.027   -12860506.552 8 -10004816.84645  23916402.459    23916418.1354
  21871903.513   -21181417.168 9 -16490529.97947  21871903.476    21871913.9394
  20572904.865   -26431210.358 9 -20577071.38248  20572905.174    20572914.1524
  20800009.240   -25226821.519 9 -19368837.41147  20800008.544    20800018.8074
  21005512.450   -20453225.057 9 -15919002.27747  21005512.026    21005522.4494
 00  2 26  0 37  0.0000000  0  6 24 17 06 30 10 05
  22182774.232   -13994857.389 8 -10888736.99347  22182774.195    22182785.2644
  23901019.623   -12941345.670 8 -10067808.12645  23901019.090    23901034.7654
  21860193.743   -21242952.418 9 -16538479.44347  21860193.693    21860204.1084
  20571117.013   -26440605.522 9 -20584392.26948  20571117.322    20571126.3004
  20797795.002   -25238457.109 9 -19377904.04147  20797794.317    20797804.5584
  21017892.144   -20388169.601 9 -15868309.76447  21017891.716    21017902.1504
 00  2 26  0 37 30.0000000  0  6 24 17 06 30 10 05
  22196650.972   -13921934.923 8 -10831914.32647  22196650.878    22196661.9704
  23885668.679   -13022014.173 8 -10130666.48245  23885668.157    23885683.8134
  21848497.879   -21304414.152 9 -16586371.60947  21848497.810    21848508.2724
  20569434.821   -26449445.058 9 -20591280.19748  20569435.146    20569444.1184
  20795695.718   -25249488.662 9 -19386499.99147  20795695.030    20795705.2794
  21030355.780   -20322672.621 9 -15817273.21247  21030355.348    21030365.8324
 00  2 26  0 38  0.0000000  0  6 24 17 06 30 10 05
  22210538.038   -13848957.996 8 -10775049.21546  22210537.955    22210549.0554
  23870351.451   -13102505.543 8 -10193386.80145  23870350.920    23870366.6644
  21836820.226   -21365780.097 9 -16634189.13947  21836820.154    21836830.6194
  20567857.107   -26457736.075 9 -20597740.70748  20567857.428    20567866.4094
  20793708.980   -25259928.786 9 -19394635.09147  20793708.285    20793718.5274
  21042901.091   -20256746.770 9 -15765902.46347  21042900.673    21042911.1134
 00  2 26  0 38 30.0000000  0  6 24 17 06 30 10 05
  22224433.882   -13775935.213 8 -10718148.36746  22224433.795    22224444.8684
  23855068.632   -13182816.329 8 -10255966.39945  23855068.090    23855083.8614
  21825162.271   -21427042.906 9 -16681926.31947  21825162.225    21825172.5764
  20566382.001   -26465487.749 9 -20603780.95348  20566382.320    20566391.2994
  20791832.868   -25269787.442 9 -19402317.11247  20791832.184    20791842.4354
  21055524.964   -20190408.163 9 -15714210.09147  21055524.534    21055534.9564
 00  2 26  0 39  0.0000000  0  6 24 17 06 30 10 05
  22238340.185   -13702856.820 8 -10661204.20646  22238340.117    22238351.2784
  23839815.023   -13262973.341 8 -10318426.18345  23839814.570    23839830.3634
  21813521.313   -21488216.352 9 -16729593.86747  21813521.264    21813531.5324
  20565009.964   -26472697.847 9 -20609399.18848  20565010.290    20565019.2524
  20790066.350   -25279070.453 9 -19409550.57347  20790065.647    20790075.8974
  21068225.825   -20123664.644 9 -15662202.21447  21068225.411    21068235.8594
 00  2 26  0 39 30.0000000  0  6 24 17 06 30 10 05
  22252258.701   -13629714.401 8 -10604210.15446  22252258.642    22252269.8924
  23824593.040   -13342964.401 8 -10380756.64545  23824592.578    23824608.3744
  21801898.993   -21549291.427 9 -16777184.74147  21801898.930    21801909.2984
  20563747.122   -26479334.089 9 -20614570.25948  20563747.434    20563756.4044
  20788411.278   -25287767.714 9 -19416327.60847  20788410.573    20788420.7954
  21081003.241   -20056519.290 9 -15609881.20647  21081002.825    21081013.2484
 00  2 26  0 40  0.0000000  0  6 24 17 06 30 10 05
  22266192.413   -13556492.312 8 -10547154.03046  22266192.356    22266203.6844
  23809406.269   -13422770.622 8 -10442943.09145  23809405.782    23809421.4894
  21790297.850   -21610255.482 9 -16824689.12747  21790297.811    21790308.1794
  20562599.108   -26485366.964 9 -20619271.18048  20562599.409    20562608.3584
  20786870.353   -25295865.004 9 -19422637.14047  20786869.640    20786879.8574
  21093856.816   -19988973.312 9 -15557248.03047  21093856.397    21093866.8314
 00  2 26  0 40 30.0000000  0  6 24 17 06 30 10 05
  22280145.416   -13483169.174 8 -10490019.16446  22280145.346    22280156.6614
  23794253.944   -13502395.774 8 -10504988.44245  23794253.452    23794269.1074
  21778719.836   -21671098.467 9 -16872099.16747  21778719.766    21778730.0744
  20561570.861   -26490770.373 9 -20623481.60748  20561571.151    20561580.0964
  20785447.614   -25303341.255 9 -19428462.74547  20785446.895    20785457.1074
  21106791.697   -19921000.331 9 -15504282.11747  21106791.272    21106801.7664
 00  2 26  0 41  0.0000000  0  6 24 17 06 30 10 05
  22294120.040   -13409732.147 8 -10432795.54946  22294119.942    22294131.2434
  23779138.593   -13581826.644 8 -10566882.41246  23779138.135    23779153.6764
  21767168.335   -21731801.323 9 -16919400.01447  21767168.283    21767178.5864
  20560665.451   -26495528.225 9 -20627189.00348  20560665.757    20560674.6654
  20784147.131   -25310174.845 9 -19433787.58047  20784146.425    20784156.6424
  21119813.305   -19852571.666 9 -15450961.12247  21119812.878    21119823.4124
 00  2 26  0 41 30.0000000  0  6 24 17 06 30 10 05
  22308114.437   -13336191.170 8 -10375490.94846  22308114.354    22308125.7544
  23764064.808   -13661039.639 8 -10628606.62546  23764064.330    23764079.6864
  21755646.341   -21792349.260 9 -16966580.14147  21755646.310    21755656.6414
  20559880.684   -26499652.217 9 -20630402.47748  20559880.971    20559889.8704
  20782970.986   -25316355.529 9 -19438603.65447  20782970.289    20782980.4864
  21132922.841   -19783680.594 9 -15397279.81247  21132922.412    21132932.9784
 00  2 26  0 42  0.0000000  0  6 24 17 06 30 10 05
  22322127.668   -13262551.216 8 -10318109.21246  22322127.573    22322139.0164
  23749030.287   -13740046.393 8 -10690170.13046  23749029.749    23749045.0434
  21744150.013   -21852762.896 9 -17013655.62947  21744149.949    21744160.2904
  20559212.855   -26503161.477 9 -20633136.94648  20559213.153    20559222.0414
  20781916.846   -25321894.877 9 -19442919.99447  20781916.129    20781926.3244
  21146121.696   -19714320.420 9 -15343232.97747  21146121.285    21146131.8124
 00  2 26  0 42 30.0000000  0  6 24 17 06 30 10 05
  22336157.437   -13188824.532 8 -10260659.90246  22336157.360    22336168.7714
  23734033.149   -13818855.840 8 -10751579.88746  23734032.691    23734047.8534
  21732675.552   -21913060.762 9 -17060640.90247  21732675.512    21732685.8764
  20558659.549   -26506068.893 9 -20635402.44648  20558659.856    20558668.7564
  20780983.646   -25326798.817 9 -19446741.21247  20780982.925    20780993.1014
  21159408.914   -19644496.083 9 -15288824.45647  21159408.486    21159419.0004
 00  2 26  0 43  0.0000000  0  6 24 17 06 30 10 05
  22350200.056   -13115030.508 8 -10203158.11846  22350199.959    22350211.3754
  23719075.215   -13897459.456 8 -10812829.25046  23719074.707    23719089.8494
  21721220.516   -21973256.877 9 -17107546.89247  21721220.472    21721230.8154
  20558217.338   -26508392.755 9 -20637213.22948  20558217.662    20558226.5254
  20780170.921   -25331069.560 9 -19450069.02947  20780170.217    20780180.3554
  21172779.706   -19574232.076 9 -15234073.34147  21172779.270    21172789.8664
 00  2 26  0 43 30.0000000  0  6 24 17 06 30 10 05
  22364253.857   -13041177.079 8 -10145610.05946  22364253.789    22364265.2154
  23704155.552   -13975862.227 8 -10873922.11546  23704155.015    23704170.0944
  21709784.048   -22033355.684 9 -17154377.06447  21709784.019    21709794.3164
  20557887.708   -26510124.957 9 -20638562.98448  20557888.020    20557896.8724
  20779475.485   -25334724.073 9 -19452916.67047  20779474.779    20779484.8834
  21186230.272   -19503548.674 9 -15178995.42247  21186229.888    21186240.4904
 00  2 26  0 44  0.0000000  0  6 24 17 06 30 10 05
  22378320.625   -12967256.353 8 -10088009.53446  22378320.521    22378331.8694
  23689271.979   -14054074.997 8 -10934866.91546  23689271.429    23689286.4194
  21698367.610   -22093349.396 9 -17201125.33447  21698367.553    21698377.8624
  20557674.230   -26511246.631 9 -20639436.99748  20557674.548    20557683.4034
  20778897.064   -25337763.642 9 -19455285.12247  20778896.349    20778906.4454
  21199760.969   -19432444.841 9 -15123589.88947  21199760.561    21199771.1684
 00  2 26  0 44 30.0000000  0  6 24 17 06 30 10 05
  22392401.295   -12893262.021 8 -10030351.67346  22392401.223    22392412.5614
  23674427.652   -14132081.049 8 -10995650.65046  23674427.156    23674442.1344
  21686977.563   -22153203.999 9 -17247765.21047  21686977.518    21686987.8464
  20557578.883   -26511747.656 9 -20639827.39848  20557579.214    20557588.0494
  20778440.277   -25340163.797 9 -19457155.33747  20778439.576    20778449.6414
  21213370.604   -19360925.702 9 -15067860.75847  21213370.169    21213380.8834
 00  2 26  0 45  0.0000000  0  6 24 17 06 30 10 05
  22406498.149   -12819183.000 8  -9972627.79946  22406498.064    22406509.3934
  23659622.999   -14209879.390 8 -11056272.51546  23659622.484    23659637.3794
  21675618.224   -22212897.672 9 -17294279.68647  21675618.152    21675628.3954
  20557600.106   -26511636.071 9 -20639740.43348  20557600.439    20557609.2664
  20778103.978   -25341930.811 9 -19458532.18847  20778103.289    20778113.3654
  21227058.269   -19288996.759 9 -15011812.28647  21227057.843    21227068.5554
 00  2 26  0 45 30.0000000  0  6 24 17 06 30 10 05
  22420612.047   -12745014.241 8  -9914833.99646  22420611.963    22420623.2814
  23644855.267   -14287483.382 8 -11116742.94146  23644854.788    23644869.5734
  21664289.112   -22272432.358 9 -17340670.28247  21664289.045    21664299.2574
  20557737.590   -26510913.471 9 -20639177.36148  20557737.924    20557746.7504
  20777885.493   -25343078.967 9 -19459426.81547  20777884.800    20777894.8374
  21240824.998   -19216652.449 9 -14955440.15447  21240824.563    21240835.2404
 00  2 26  0 46  0.0000000  0  6 24 17 06 30 10 05
  22434741.889   -12670761.131 8  -9856974.47646  22434741.802    22434753.2274
  23630124.223   -14364894.855 8 -11177063.35046  23630123.726    23630138.4304
  21652986.741   -22331826.288 9 -17386951.18347  21652986.660    21652996.9144
  20557987.575   -26509599.651 9 -20638153.59648  20557987.901    20557996.7194
  20777785.235   -25343605.703 9 -19459837.21447  20777784.539    20777794.5894
  21254670.929   -19143891.523 9 -14898743.38447  21254670.498    21254681.1974
 00  2 26  0 46 30.0000000  0  6 24 17 06 30 10 05
  22448885.294   -12596437.314 8  -9799059.84846  22448885.250    22448896.6354
  23615430.065   -14442112.291 8 -11237232.58046  23615429.578    23615444.1924
  21641706.885   -22391101.949 9 -17433139.94047  21641706.828    21641717.0414
  20558344.665   -26507722.981 9 -20636691.25348  20558345.004    20558353.8054
  20777799.884   -25343528.501 9 -19459777.01647  20777799.199    20777809.2334
  21268591.228   -19070740.040 9 -14841742.28947  21268590.811    21268601.5414
 00  2 26  0 47  0.0000000  0  6 24 17 06 30 10 05
  22463038.231   -12522063.216 8  -9741106.04346  22463038.212    22463049.5714
  23600767.724   -14519162.235 8 -11297271.26546  23600767.350    23600781.8994
  21630443.206   -22450292.752 9 -17479262.56847  21630443.136    21630453.3084
  20558806.471   -26505296.180 9 -20634800.23548  20558806.804    20558815.6214
  20777925.327   -25342869.206 9 -19459263.23247  20777924.602    20777934.6194
  21282585.195   -18997201.541 9 -14784439.62047  21282584.763    21282595.5044
 00  2 26  0 47 30.0000000  0  6 24 17 06 30 10 05
  22477196.993   -12447658.762 8  -9683128.59346  22477196.931    22477208.3754
  23586138.086   -14596040.618 8 -11357176.27446  23586137.638    23586152.2374
  21619192.401   -22509415.755 9 -17525332.35947  21619192.345    21619202.4784
  20559373.874   -26502314.433 9 -20632476.79348  20559374.201    20559383.0144
  20778161.665   -25341627.170 9 -19458295.36747  20778160.939    20778170.9614
  21296654.114   -18923269.175 9 -14726830.04247  21296653.673    21296664.4134
 00  2 26  0 48  0.0000000  0  6 24 17 06 30 10 05
  22491360.077   -12373231.270 8  -9625133.16946  22491360.085    22491371.4984
  23571542.503   -14672739.763 8 -11416941.63346  23571542.081    23571556.7014
  21607956.567   -22568459.883 9 -17571340.69347  21607956.523    21607966.7024
  20560045.557   -26498784.615 9 -20629726.28648  20560045.906    20560054.7374
  20778509.727   -25339797.990 9 -19456869.98847  20778508.998    20778518.9904
  21310796.465   -18848950.988 9 -14668919.82747  21310796.043    21310806.7534
 00  2 26  0 48 30.0000000  0  6 24 17 06 30 10 05
  22505525.409   -12298792.240 8  -9567128.77246  22505525.309    22505536.7604
  23556980.362   -14749263.745 8 -11476570.48746  23556979.932    23556994.4644
  21596737.232   -22627417.819 9 -17617281.86747  21596737.140    21596747.2414
  20560822.402   -26494702.197 9 -20626545.17948  20560822.729    20560831.5744
  20778971.867   -25337369.187 9 -19454977.37247  20778971.128    20778981.1154
  21325010.972   -18774253.392 9 -14610713.96847  21325010.552    21325021.3044
 00  2 26  0 49  0.0000000  0  6 24 17 06 30 10 05
  22519694.181   -12224334.695 8  -9509109.94846  22519694.150    22519705.6554
  23542453.135   -14825604.070 8 -11536056.23346  23542452.719    23542467.1394
  21585537.247   -22686273.354 9 -17663143.24647  21585537.194    21585547.3144
  20561711.609   -26490029.611 9 -20622904.20348  20561711.923    20561720.7724
  20779553.159   -25334314.240 9 -19452596.85947  20779552.455    20779562.4234
  21339302.814   -18699149.453 9 -14552191.48547  21339302.388    21339313.1744
 00  2 26  0 49 30.0000000  0  6 24 17 06 30 10 05
  22533871.010   -12149835.510 8  -9451058.67046  22533870.945    22533882.3484
  23527966.858   -14901729.184 8 -11595374.28346  23527966.428    23527980.8504
  21574361.936   -22744999.653 9 -17708903.91647  21574361.880    21574371.9714
  20562718.885   -26484736.255 9 -20618779.50548  20562719.206    20562728.0374
  20780256.216   -25330619.657 9 -19449717.92547  20780255.469    20780265.4134
  21353670.999   -18623644.244 9 -14493356.31147  21353670.571    21353681.3484
 00  2 26  0 50  0.0000000  0  6 24 17 06 30 10 05
  22548059.663   -12075273.990 8  -9392958.82146  22548059.623    22548070.9604
  23513523.877   -14977626.834 8 -11654515.08246  23513523.416    23513537.8404
  21563214.055   -22803582.304 9 -17754552.66847  21563213.998    21563224.0534
  20563849.817   -26478793.124 9 -20614148.49248  20563850.153    20563858.9994
  20781085.253   -25326262.545 9 -19446322.74047  20781084.525    20781094.4654
  21368116.085   -18547735.226 9 -14434206.48547  21368115.661    21368126.4524
 00  2 26  0 50 30.0000000  0  6 24 17 06 30 10 05
  22562263.889   -12000630.450 8  -9334795.06146  22562263.849    22562275.2054
  23499126.244   -15053285.680 8 -11713469.80546  23499125.844    23499140.2194
  21552095.178   -22862011.809 9 -17800082.07147  21552095.135    21552105.2064
  20565110.539   -26472168.025 9 -20608986.07248  20565110.890    20565119.7224
  20782044.502   -25321221.720 9 -19442394.79547  20782043.771    20782053.6944
  21382640.584   -18471408.630 9 -14374731.28047  21382640.176    21382651.0204
 00  2 26  0 51  0.0000000  0  6 24 17 06 30 10 05
  22576488.965   -11925877.519 8  -9276546.06946  22576488.892    22576500.2894
  23484776.884   -15128690.980 8 -11772226.97346  23484776.468    23484790.8664
  21541010.923   -22920259.858 9 -17845470.09847  21541010.899    21541020.8544
  20566503.323   -26464848.843 9 -20603282.81248  20566503.666    20566512.5154
  20783132.016   -25315506.477 9 -19437941.33247  20783131.288    20783141.2174
  21397247.575   -18394648.599 9 -14314918.32647  21397247.154    21397257.9854
 00  2 26  0 51 30.0000000  0  6 24 17 06 30 10 05
  22590733.766   -11851020.569 8  -9218216.01946  22590733.681    22590745.1204
  23470474.092   -15203851.965 8 -11830793.76246  23470473.629    23470487.9884
  21529960.807   -22978328.453 9 -17890718.28047  21529960.788    21529970.7654
  20568021.583   -26456870.266 9 -20597065.73148  20568021.925    20568030.8104
  20784344.107   -25309136.755 9 -19432977.88647  20784343.399    20784353.2984
  21411934.539   -18317468.238 9 -14254777.83147  21411934.136    21411944.9704
 00  2 26  0 52  0.0000000  0  6 24 17 06 30 10 05
  22604994.007   -11776082.721 8  -9159822.93246  22604993.958    22605005.3004
  23456213.991   -15278788.474 8 -11889185.64946  23456213.591    23456227.8524
  21518941.011   -23036237.754 9 -17935842.33047  21518940.967    21518950.9664
  20569657.702   -26448272.297 9 -20590366.00848  20569658.062    20569666.9054
  20785678.134   -25302126.455 9 -19427515.29047  20785677.405    20785687.2634
  21426701.845   -18239865.766 9 -14194308.42947  21426701.453    21426712.3214
 00  2 26  0 52 30.0000000  0  6 24 17 06 30 10 05
  22619266.886   -11701078.742 8  -9101378.33346  22619266.787    22619278.1254
  23441991.794   -15353525.953 8 -11947422.46346  23441991.377    23442005.5894
  21507948.782   -23094002.043 9 -17980853.40247  21507948.757    21507958.6834
  20571404.023   -26439095.350 9 -20583215.14248  20571404.383    20571413.2214
  20787127.852   -25294508.169 9 -19421578.94047  20787127.141    20787136.9774
  21441544.891   -18161865.349 9 -14133528.93847  21441544.477    21441555.3524
 00  2 26  0 53  0.0000000  0  6 24 17 06 30 10 05
  22633549.055   -11626025.447 8  -9042895.29746  22633548.990    22633560.3064
  23427803.169   -15428087.009 8 -12005521.79546  23427802.710    23427816.8924
  21496979.077   -23151647.998 9 -18025772.26147  21496979.031    21496988.9204
  20573253.540   -26429376.049 9 -20575641.65348  20573253.893    20573262.7674
  20788686.651   -25286316.440 9 -19415195.75147  20788685.932    20788695.7904
  21456459.328   -18083489.773 9 -14072457.11847  21456458.873    21456469.7764
 00  2 26  0 53 30.0000000  0  6 24 17 06 30 10 05
  22647835.614   -11550949.441 8  -8984394.57246  22647835.570    22647846.8344
  23413644.200   -15502492.192 8 -12063499.67746  23413643.762    23413657.8614
  21486025.429   -23209209.611 9 -18070625.39147  21486025.374    21486035.2874
  20575203.311   -26419129.629 9 -20567657.42448  20575203.673    20575212.5894
  20790353.049   -25277559.199 9 -19408371.89847  20790352.329    20790362.1994
  21471438.544   -18004773.486 9 -14011119.81147  21471438.112    21471448.9974
 00  2 26  0 54  0.0000000  0  6 24 17 06 30 10 05
  22662128.064   -11475842.542 8  -8925869.77246  22662128.025    22662139.2654
  23399514.499   -15576743.220 8 -12121357.44646  23399514.083    23399528.1724
  21475087.912   -23266686.536 9 -18115412.53747  21475087.866    21475097.6984
  20577256.522   -26408340.021 9 -20559249.93548  20577256.882    20577265.7784
  20792126.779   -25268237.888 9 -19401108.51647  20792126.071    20792135.9704
  21486480.392   -17925728.565 9 -13949526.41847  21486479.949    21486490.8314
 00  2 26  0 54 30.0000000  0  6 24 17 06 30 10 05
  22676427.458   -11400698.501 8  -8867316.03346  22676427.426    22676438.7364
  23385414.612   -15650837.871 8 -12179093.37646  23385414.205    23385428.2404
  21464169.062   -23324065.429 9 -18160123.29547  21464168.985    21464178.7894
  20579415.975   -26396992.118 9 -20550407.41148  20579416.317    20579425.2104
  20794007.754   -25258353.245 9 -19393406.16847  20794007.068    20794016.9234
  21501582.360   -17846367.570 9 -13887686.73647  21501581.905    21501592.8404
 00  2 26  0 55  0.0000000  0  6 24 17 06 30 10 05
  22690731.863   -11325528.354 8  -8808741.94946  22690731.853    22690743.2064
  23371347.573   -15724760.018 8 -12236694.88946  23371347.123    23371361.1014
  21453271.567   -23381331.694 9 -18204746.29147  21453271.519    21453281.2364
  20581683.110   -26385078.087 9 -20541123.74248  20581683.457    20581692.3484
  20795998.757   -25247890.606 9 -19385253.42647  20795998.020    20796007.8774
  21516746.763   -17766677.975 9 -13825591.00147  21516746.346    21516757.2934
 00  2 26  0 55 30.0000000  0  6 24 17 06 30 10 05
  22705039.475   -11250341.584 8  -8750154.91046  22705039.448    22705050.8634
  23357317.483   -15798488.065 8 -12294145.14846  23357317.016    23357330.9644
  21442400.703   -23438458.149 9 -18249260.34147  21442400.645    21442410.3974
  20584062.327   -26372575.285 9 -20531381.29548  20584062.660    20584071.5614
  20798104.269   -25236825.690 9 -19376631.38747  20798103.572    20798113.4304
  21531975.043   -17686652.896 9 -13763233.84647  21531974.644    21531985.6184
 00  2 26  0 56  0.0000000  0  6 24 17 06 30 10 05
  22719352.212   -11175127.941 8  -8691546.94146  22719352.190    22719363.6114
  23343327.190   -15872006.318 8 -12351431.95146  23343326.752    23343340.6734
  21431561.061   -23495420.520 9 -18293646.55247  21431560.999    21431570.6824
  20586555.424   -26359474.121 9 -20521172.60048  20586555.744    20586564.6474
  20800326.570   -25225147.225 9 -19367531.26147  20800325.864    20800335.7484
  21547271.571   -17606269.271 9 -13700597.31647  21547271.175    21547282.1884
 00  2 26  0 56 30.0000000  0  6 24 17 06 30 10 05
  22733668.097   -11099897.927 8  -8632926.21646  22733668.019    22733679.4864
  23329379.426   -15945301.393 8 -12408544.84046  23329379.027    23329392.9204
  21420754.358   -23552209.646 9 -18337897.75547  21420754.350    21420764.0274
  20589162.836   -26345771.920 9 -20510495.56248  20589163.169    20589172.0694
  20802668.903   -25212838.027 9 -19357939.65247  20802668.202    20802678.0734
  21562638.787   -17525514.031 9 -13637671.20447  21562638.406    21562649.4424
 00  2 26  0 57  0.0000000  0  6 24 17 06 30 10 05
  22747988.115   -11024645.981 8  -8574288.38646  22747988.056    22747999.5214
  23315474.656   -16018370.962 8 -12465482.01346  23315474.213    23315488.0364
  21409981.553   -23608821.106 9 -18382010.52547  21409981.508    21409991.1504
  20591886.711   -26331457.848 9 -20499341.74248  20591887.043    20591895.9504
  20805134.771   -25199879.393 9 -19347841.99047  20805134.085    20805143.9494
  21578079.363   -17444373.938 9 -13574445.21247  21578078.937    21578089.9444
 00  2 26  0 57 30.0000000  0  6 24 17 06 30 10 05
  22762316.222   -10949351.509 8  -8515617.42146  22762316.167    22762327.6664
  23301613.118   -16091213.529 8 -12522242.30546  23301612.610    23301626.3954
  21399242.377   -23665255.890 9 -18425985.62847  21399242.303    21399251.9274
  20594729.710   -26316517.749 9 -20487700.11348  20594730.045    20594738.9674
  20807726.092   -25186261.894 9 -19337230.92447  20807725.402    20807735.2554
  21593594.380   -17362842.192 9 -13510914.03847  21593593.946    21593604.9694
 00  2 26  0 58  0.0000000  0  6 24 17 06 30 10 05
  22776655.267   -10873999.709 8  -8456901.79146  22776655.170    22776666.6854
  23287793.022   -16163837.899 8 -12578832.57146  23287792.587    23287806.2194
  21388536.326   -23721516.135 9 -18469824.72847  21388536.294    21388545.8404
  20597691.091   -26300955.585 9 -20475573.75648  20597691.435    20597700.3654
  20810441.777   -25171990.970 9 -19326110.69647  20810441.082    20810450.9224
  21609185.253   -17280911.705 9 -13447072.16147  21609184.842    21609195.9254
 00  2 26  0 58 30.0000000  0  6 24 17 06 30 10 05
  22791004.086   -10798596.056 8  -8398145.73646  22791004.046    22791015.5214
  23274014.751   -16236242.759 8 -12635251.79646  23274014.326    23274027.8784
  21377863.345   -23777603.216 9 -18513528.88947  21377863.273    21377872.8174
  20600770.636   -26284772.379 9 -20462963.46648  20600770.953    20600779.8734
  20813281.366   -25157068.736 9 -19314482.94947  20813280.666    20813290.4734
  21624851.209   -17198586.850 9 -13382922.98147  21624850.797    21624861.8784
 00  2 26  0 59  0.0000000  0  6 24 17 06 30 10 05
  22805364.152   -10723133.578 8  -8339343.86646  22805364.095    22805375.6634
  23260275.541   -16308442.446 8 -12691511.14446  23260275.077    23260288.5244
  21367223.318   -23833516.668 9 -18557097.75647  21367223.249    21367232.7764
  20603968.254   -26267968.664 9 -20449869.67648  20603968.589    20603977.4864
  20816241.726   -25141511.916 9 -19302360.72547  20816241.026    20816250.8014
  21640591.750   -17115870.071 9 -13318468.40847  21640591.340    21640602.3784
 00  2 26  0 59 30.0000000  0  6 24 17 06 30 10 05
  22819734.973   -10647614.312 8  -8280497.75246  22819734.946    22819746.6154
  23246576.541   -16380431.014 8 -12747605.98646  23246576.050    23246589.3884
  21356616.232   -23889256.881 9 -18600531.63047  21356616.182    21356625.7534
  20607284.322   -26250542.451 9 -20436290.81548  20607284.664    20607293.5824
  20819318.213   -25125344.745 9 -19289762.90247  20819317.516    20819327.3014
  21656404.642   -17032772.775 9 -13253717.33747  21656404.253    21656415.3344
 00  2 26  1  0  0.0000000  0  6 24 17 06 30 10 05
  22834114.349   -10572050.458 8  -8221616.87246  22834114.292    22834126.0274
  23232917.872   -16452207.242 8 -12803535.34546  23232917.396    23232930.6764
  21346042.269   -23944823.370 9 -18643830.14247  21346042.173    21346051.7114
  20610718.646   -26232495.060 9 -20422227.91848  20610718.986    20610727.9034
  20822508.875   -25108577.639 9 -19276697.59547  20822508.178    20822517.9464
  21672286.272   -16949314.497 9 -13188684.98647  21672285.869    21672296.9714
 00  2 26  1  0 30.0000000  0  6 24 17 06 30 10 05
  22848502.602   -10496440.081 8  -8162699.73746  22848502.471    22848514.2714
  23219299.222   -16523773.170 8 -12859300.83246  23219298.694    23219311.9864
  21335500.067   -24000222.267 9 -18686998.05647  21335500.041    21335509.5994
  20614272.011   -26213822.145 9 -20407677.60648  20614272.356    20614281.2824
  20825814.396   -25091206.883 9 -19263161.91547  20825813.719    20825823.4844
  21688236.613   -16865495.102 9 -13123371.23747  21688236.206    21688247.3454
 00  2 26  1  1  0.0000000  0  6 24 17 06 30 10 05
  22862900.225   -10420780.111 8  -8103743.97746  22862900.143    22862911.9554
  23205721.181   -16595125.249 8 -12914899.66446  23205720.674    23205734.0024
  21324988.901   -24055458.707 9 -18730039.38447  21324988.838    21324998.4244
  20617945.769   -26194516.348 9 -20392634.14448  20617946.103    20617955.0454
  20829235.011   -25073231.442 9 -19249155.05447  20829234.311    20829244.0944
  21704254.633   -16781320.221 9 -13057780.48447  21704254.227    21704265.3854
 00  2 26  1  1 30.0000000  0  6 24 17 06 30 10 05
  22877305.752   -10345078.759 8  -8044755.95046  22877305.661    22877317.5424
  23192185.428   -16666255.523 8 -12970325.65746  23192184.925    23192198.2594
  21314507.543   -24110538.797 9 -18772958.87847  21314507.464    21314516.9934
  20621738.384   -26174585.921 9 -20377103.95148  20621738.737    20621747.7024
  20832772.149   -25054643.304 9 -19234670.76647  20832771.463    20832781.2474
  21720339.113   -16696796.238 9 -12991917.70547  21720338.692    21720349.8564
 00  2 26  1  2  0.0000000  0  6 24 17 06 30 10 05
  22891718.863   -10269337.546 8  -7985736.87346  22891718.782    22891730.6284
  23178690.397   -16737171.485 8 -13025584.65646  23178689.917    23178703.2414
  21304056.603   -24165458.371 9 -18815753.29947  21304056.558    21304066.0384
  20625645.806   -26154052.544 9 -20361103.93148  20625646.142    20625655.0894
  20836427.437   -25035434.576 9 -19219702.90447  20836426.752    20836436.5304
  21736490.965   -16611917.816 9 -12925778.73947  21736490.551    21736501.7544
 00  2 26  1  2 30.0000000  0  6 24 17 06 30 10 05
  22906138.174   -10193564.111 8  -7926692.69346  22906138.061    22906149.9004
  23165233.825   -16807885.427 8 -13080686.24446  23165233.343    23165246.6674
  21293636.632   -24220215.459 9 -18858421.09947  21293636.532    21293646.0584
  20629663.967   -26132937.116 9 -20344650.36348  20629664.281    20629673.2174
  20840197.792   -25015621.272 9 -19204263.94447  20840197.092    20840206.8654
  21752708.688   -16526693.084 9 -12859369.92447  21752708.313    21752719.5364
 00  2 26  1  3  0.0000000  0  6 24 17 06 30 10 05
  22920560.015   -10117776.834 8  -7867637.72946  22920559.947    22920571.7694
  23151817.627   -16878387.205 8 -13135622.51546  23151817.141    23151830.4464
  21283250.135   -24274796.681 9 -18900951.87247  21283250.063    21283259.5144
  20633789.073   -26111259.745 9 -20327758.92048  20633789.395    20633798.3014
  20844080.823   -24995215.663 9 -19188363.44947  20844080.104    20844089.8764
  21768987.912   -16441145.392 9 -12792709.44147  21768987.553    21768998.7434
 00  2 26  1  3 30.0000000  0  6 24 17 06 30 10 05
  22934982.866   -10041984.711 8  -7808578.97846  22934982.732    22934994.5894
  23138439.107   -16948691.154 8 -13190404.60946  23138438.643    23138451.8754
  21272896.800   -24329203.516 9 -18943346.75047  21272896.740    21272906.2054
  20638016.268   -26089045.729 9 -20310449.30848  20638016.588    20638025.4674
  20848074.128   -24974230.578 9 -19172011.41147  20848073.429    20848083.1604
  21785325.945   -16355288.730 9 -12725808.20347  21785325.563    21785336.7474
 00  2 26  1  4  0.0000000  0  6 24 17 06 30 10 05
  22949404.165    -9966200.277 8  -7749526.23546  22949404.058    22949415.9424
  23125097.637   -17018800.497 8 -13245035.08446  23125097.159    23125110.3354
  21262576.501   -24383436.690 9 -18985606.30847  21262576.415    21262585.8824
  20642345.380   -26066296.000 9 -20292722.26448  20642345.701    20642354.6074
  20852177.582   -24952666.780 9 -19155208.43347  20852176.888    20852186.5904
  21801720.313   -16269136.146 9 -12658676.37847  21801719.913    21801731.1274
 00  2 26  1  4 30.0000000  0  6 24 17 06 30 10 05
  22963823.941    -9890424.226 8  -7690480.00146  22963823.835    22963835.6604
  23111795.538   -17088702.758 8 -13299504.16646  23111795.038    23111808.1714
  21252288.544   -24437500.085 9 -19027733.57247  21252288.487    21252297.9794
  20646780.541   -26042989.065 9 -20274561.03048  20646780.881    20646789.7784
  20856393.032   -24930514.376 9 -19137946.79547  20856392.310    20856402.0264
  21818170.108   -16182692.106 8 -12591317.44847  21818169.715    21818180.9454
 00  2 26  1  5  0.0000000  0  6 24 17 06 30 10 05
  22978243.995    -9814646.475 8  -7631432.45346  22978243.893    22978255.7164
  23098534.798   -17158387.531 8 -13353803.79446  23098534.338    23098547.3974
  21242029.800   -24491409.800 9 -19069741.08147  21242029.759    21242039.2054
  20651323.640   -26019115.089 9 -20255957.94648  20651323.956    20651332.8724
  20860723.685   -24907756.418 9 -19120213.29947  20860722.982    20860732.7084
  21834677.042   -16095947.780 8 -12523724.53147  21834676.648    21834687.8654
 00  2 26  1  5 30.0000000  0  6 24 17 06 30 10 05
  22992667.556    -9738850.007 8  -7572370.32246  22992667.477    22992679.3854
  23085314.133   -17227861.340 8 -13407939.03146  23085313.661    23085326.7724
  21231797.508   -24545180.629 9 -19111640.36747  21231797.443    21231806.9074
  20655978.876   -25994651.733 9 -20236895.60648  20655979.193    20655988.1214
  20865169.626   -24884393.016 9 -19102008.02247  20865168.914    20865178.6034
  21851241.986   -16008898.682 8 -12455894.12447  21851241.610    21851252.8244
 00  2 26  1  6  0.0000000  0  6 24 17 06 30 10 05
  23007095.745    -9663029.432 8  -7513289.38946  23007095.649    23007107.5384
  23072134.480   -17297120.018 8 -13461906.64346  23072134.014    23072147.1374
  21221592.500   -24598808.249 9 -19153428.06547  21221592.437    21221601.8534
  20660747.588   -25969592.030 9 -20217368.58648  20660747.912    20660756.8534
  20869730.482   -24860425.408 9 -19083331.94147  20869729.757    20869739.4554
  21867865.792   -15921540.292 9 -12387822.71647  21867865.422    21867876.6274
 00  2 26  1  6 30.0000000  0  6 24 17 06 30 10 05
  23021529.476    -9587179.383 8  -7454185.50146  23021529.417    23021541.2924
  23058994.775   -17366168.924 8 -13515710.80846  23058994.341    23059007.3904
  21211413.850   -24652297.128 9 -19195107.64447  21211413.794    21211423.2314
  20665628.164   -25943944.391 9 -20197383.42748  20665628.503    20665637.4534
  20874402.187   -24835875.142 9 -19064201.84847  20874401.453    20874411.1824
  21884547.592   -15833877.449 8 -12319514.06647  21884547.193    21884558.3834
 00  2 26  1  7  0.0000000  0  6 24 17 06 30 10 05
  23035968.011    -9511305.190 8  -7395062.78146  23035967.921    23035979.6964
  23045890.764   -17435030.547 8 -13569369.04746  23045890.313    23045903.2744
  21201264.228   -24705633.604 9 -19236668.47547  21201264.150    21201273.5464
  20670617.487   -25917725.457 9 -20176953.10448  20670617.819    20670626.7564
  20879182.686   -24810753.352 9 -19044626.40647  20879181.983    20879191.6894
  21901286.329   -15745915.117 8 -12250972.04847  21901285.915    21901297.1064
 00  2 26  1  7 30.0000000  0  6 24 17 06 30 10 05
  23050408.519    -9435419.803 8  -7335931.36746  23050408.424    23050420.2744
  23032820.749   -17503712.966 8 -13622887.65246  23032820.321    23032833.2244
  21191148.401   -24758792.477 9 -19278090.91247  21191148.324    21191157.7354
  20675714.856   -25890938.550 9 -20156080.20548  20675715.170    20675724.0794
  20884069.633   -24785072.112 9 -19024615.02747  20884068.900    20884078.6244
  21918081.511   -15657655.973 8 -12182198.75247  21918081.098    21918092.3214
 00  2 26  1  8  0.0000000  0  6 24 17 06 30 10 05
  23064849.268    -9359532.993 8  -7276798.82646  23064849.247    23064861.1454
  23019786.045   -17572210.062 8 -13676261.86446  23019785.605    23019798.4164
  21181071.451   -24811746.600 9 -19319353.80447  21181071.409    21181080.8354
  20680919.689   -25863586.907 9 -20134767.25148  20680920.007    20680928.9264
  20889066.618   -24758812.714 9 -19004153.13747  20889065.891    20889075.6294
  21934936.210   -15569084.015 8 -12113181.71247  21934935.780    21934947.0904
 00  2 26  1  8 30.0000000  0  6 24 17 06 30 10 05
  23079290.199    -9283645.386 8  -7217665.67946  23079290.200    23079302.1144
  23006788.294   -17640513.356 8 -13729485.07846  23006787.852    23006800.5624
  21171035.496   -24864485.593 9 -19360449.05947  21171035.437    21171044.8784
  20686236.541   -25835646.762 9 -20112995.72348  20686236.856    20686245.7894
  20894177.015   -24731957.313 9 -18983226.83147  20894176.263    20894186.0004
  21951852.728   -15480187.094 8 -12043911.44747  21951852.339    21951863.7034
 00  2 26  1  9  0.0000000  0  6 24 17 06 30 10 05
  23093733.600    -9207744.930 8  -7158522.52446  23093733.581    23093745.4624
  22993830.886   -17708604.448 8 -13782542.95746  22993830.443    22993843.0664
  21161043.480   -24916993.861 9 -19401364.52547  21161043.405    21161052.8124
  20691668.928   -25807099.273 9 -20090750.94048  20691669.255    20691678.2104
  20899404.710   -24704485.069 9 -18961819.87047  20899404.004    20899413.7374
  21968834.896   -15390945.798 8 -11974372.84147  21968834.472    21968845.8624
 00  2 26  1  9 30.0000000  0  6 24 17 06 30 10 05
  23108180.374    -9131827.056 8  -7099365.78046  23108180.339    23108192.2484
  22980917.839   -17776462.455 8 -13835419.21446  22980917.402    22980929.9644
  21151093.934   -24969278.429 9 -19442105.67647  21151093.893    21151103.3254
  20697217.173   -25777943.374 9 -20068032.06948  20697217.494    20697226.4334
  20904750.159   -24676394.751 9 -18939931.29147  20904749.453    20904759.1774
  21985883.552   -15301354.842 8 -11904561.77447  21985883.120    21985894.5104
 00  2 26  1 10  0.0000000  0  6 24 17 06 30 10 05
  23122630.997    -9055888.540 8  -7040192.96846  23122630.985    23122642.8794
  22968048.277   -17844092.231 8 -13888117.64746  22968047.851    22968060.3534
  21141182.685   -25021362.047 9 -19482690.24547  21141182.644    21141192.0734
  20702880.411   -25748182.940 9 -20044842.12948  20702880.734    20702889.6674
  20910212.883   -24647687.921 9 -18917562.31747  20910212.161    20910221.9024
  22002998.722   -15211414.182 8 -11834478.21647  22002998.301    22003009.6844
 00  2 26  1 10 30.0000000  0  6 24 17 06 30 10 05
  23137087.905    -8979916.874 8  -6980994.30246  23137087.917    23137099.8104
  22955219.626   -17911506.834 8 -13940648.40446  22955219.162    22955231.6884
  21131305.350   -25073267.488 9 -19523135.98347  21131305.312    21131314.6944
  20708655.728   -25717833.739 9 -20021193.41548  20708656.046    20708664.9654
  20915789.184   -24618384.295 9 -18894728.30747  20915788.481    20915798.2224
  22020176.910   -15121142.527 8 -11764136.74547  22020176.479    22020187.8544
 00  2 26  1 11  0.0000000  0  6 24 17 06 30 10 05
  23151549.808    -8903919.295 8  -6921775.43846  23151549.815    23151561.6944
  22942428.762   -17978722.658 8 -13993024.28146  22942428.348    22942440.8024
  21121459.264   -25125009.043 9 -19563454.01247  21121459.218    21121468.5814
  20714537.133   -25686926.745 9 -19997110.05148  20714537.434    20714546.3624
  20921473.272   -24588514.188 9 -18871452.88747  20921472.566    20921482.3014
  22037412.201   -15030570.955 8 -11693561.55847  22037411.747    22037423.1084
 00  2 26  1 11 30.0000000  0  6 24 17 06 30 10 05
  23166013.504    -8827912.532 8  -6862549.41846  23166013.492    23166025.3724
  22929672.649   -18045755.806 8 -14045257.81346  22929672.218    22929684.6844
  21111642.360   -25176596.898 9 -19603652.28247  21111642.324    21111651.6844
  20720522.597   -25655472.685 9 -19972600.40448  20720522.920    20720531.8644
  20927263.172   -24558087.957 9 -18847744.13147  20927262.448    20927272.2054
  22054698.185   -14939732.646 8 -11622778.54647  22054697.760    22054709.1394
 00  2 26  1 12  0.0000000  0  6 24 17 06 30 10 05
  23180478.614    -8751898.234 8  -6803317.52846  23180478.589    23180490.5094
  22916951.728   -18112604.475 8 -14097347.60846  22916951.235    22916963.6734
  21101855.270   -25228028.178 9 -19643728.54347  21101855.220    21101864.5774
  20726617.418   -25623444.337 9 -19947643.26248  20726617.731    20726626.7124
  20933160.129   -24527098.788 9 -18823596.72347  20933159.435    20933169.2124
  22072032.977   -14848637.894 8 -11551795.70247  22072032.550    22072043.9634
 00  2 26  1 12 30.0000000  0  6 24 17 06 30 10 05
  23194944.641    -8675878.500 8  -6744081.43346  23194944.644    23194956.6704
  22904270.663   -18179243.428 8 -14149273.99046  22904270.154    22904282.5634
  21092103.333   -25279274.786 9 -19683660.90747  21092103.271    21092112.5824
  20732824.518   -25590825.731 9 -19922226.17948  20732824.844    20732833.8174
  20939166.195   -24495536.600 9 -18799002.80347  20939165.517    20939175.2604
  22089415.385   -14757292.821 8 -11480617.80547  22089414.986    22089426.4564
 00  2 26  1 13  0.0000000  0  6 24 17 06 30 10 05
  23209409.196    -8599867.109 8  -6684851.79946  23209409.141    23209421.1434
  22891636.320   -18245636.799 8 -14201008.99346  22891635.841    22891648.1644
  21082390.333   -25330316.761 9 -19723433.82047  21082390.285    21082399.5674
  20739147.069   -25557600.536 9 -19896336.42948  20739147.417    20739156.3744
  20945285.823   -24463377.711 9 -18773943.92647  20945285.121    20945294.8934
  22106847.411   -14665687.044 8 -11409236.76347  22106847.008    22106858.5274
 00  2 26  1 13 30.0000000  0  6 24 17 06 30 10 05
  23223873.367    -8523857.677 8  -6625623.68346  23223873.297    23223885.2664
  22879051.709   -18311769.141 8 -14252540.59346  22879051.233    22879063.5004
  21072717.546   -25381147.442 9 -19763042.09347  21072717.481    21072726.7684
  20745587.530   -25523755.929 9 -19869964.02148  20745587.868    20745596.8144
  20951523.806   -24430596.771 9 -18748400.33247  20951523.122    20951532.8834
  22124333.580   -14573797.059 8 -11337634.26047  22124333.163    22124344.6864
 00  2 26  1 14  0.0000000  0  6 24 17 06 30 10 05
  23238337.333    -8447849.000 8  -6566396.18646  23238337.313    23238349.3404
  22866517.185   -18377638.208 8 -14303867.03546  22866516.690    22866529.0414
  21063086.774   -25431757.245 9 -19802478.24947  21063086.719    21063095.9994
  20752142.981   -25489306.880 9 -19843120.62248  20752143.330    20752152.2834
  20957879.204   -24397199.015 9 -18722376.10047  20957878.503    20957888.2114
  22141877.277   -14481604.807 8 -11265796.21747  22141876.867    22141888.3504
 00  2 26  1 14 30.0000000  0  6 24 17 06 30 10 05
  23252801.109    -8371841.194 8  -6507169.34346  23252801.131    23252813.1694
  22854031.716   -18443249.117 8 -14354992.30946  22854031.234    22854043.6584
  21053497.895   -25482146.878 9 -19841742.84347  21053497.827    21053507.0764
  20758804.884   -25454298.483 9 -19815841.35948  20758805.198    20758814.1544
  20964347.539   -24363207.725 9 -18695889.37247  20964346.835    20964356.5374
  22159474.911   -14389129.024 8 -11193737.24247  22159474.495    22159485.9674
 00  2 26  1 15  0.0000000  0  6 24 17 06 30 10 05
  23267264.744    -8295834.440 8  -6447943.33246  23267264.747    23267276.7934
  22841589.670   -18508632.152 8 -14405940.00846  22841589.187    22841601.6364
  21043946.145   -25532341.284 9 -19880855.31847  21043946.099    21043955.3184
  20765568.049   -25418757.589 9 -19788147.17148  20765568.376    20765577.3594
  20970923.193   -24328652.394 9 -18668963.13047  20970922.512    20970932.1734
  22177121.811   -14296394.302 8 -11121476.50347  22177121.388    22177132.8844
 00  2 26  1 15 30.0000000  0  6 24 17 06 30 10 05
  23281727.516    -8219832.136 8  -6388720.77646  23281727.525    23281739.5754
  22829183.024   -18573828.916 8 -14456742.55846  22829182.576    22829195.0274
  21034429.821   -25582349.663 9 -19919822.83447  21034429.767    21034438.9874
  20772428.222   -25382707.142 9 -19760055.92748  20772428.557    20772437.5494
  20977599.084   -24293570.569 9 -18641626.63047  20977598.371    20977608.0394
  22194814.700   -14203417.792 8 -11049027.35347  22194814.260    22194825.7744
 00  2 26  1 16  0.0000000  0  6 24 17 06 30 10 05
  23296187.078    -8143847.009 8  -6329511.62246  23296187.055    23296199.0884
  22816809.156   -18638853.500 8 -14507410.93246  22816808.712    22816821.1924
  21024949.942   -25632166.530 9 -19958641.12247  21024949.900    21024959.1184
  20779382.845   -25346160.500 9 -19731578.03548  20779383.172    20779392.1454
  20984372.202   -24257977.293 9 -18613891.59447  20984371.502    20984381.2024
  22212551.226   -14110212.237 8 -10976399.72447  22212550.751    22212562.2564
 00  2 26  1 16 30.0000000  0  6 24 17 06 30 10 05
  23310643.578    -8067877.789 8  -6270314.88146  23310643.547    23310655.6364
  22804465.809   -18703717.561 8 -14557954.22646  22804465.358    22804477.8544
  21015504.517   -25681802.477 9 -19997318.44047  21015504.489    21015513.6734
  20786433.010   -25309111.905 9 -19702709.02048  20786433.332    20786442.3074
  20991241.620   -24221878.241 9 -18585762.44647  20991240.906    20991250.6174
  22230330.029   -14016784.317 8 -10903598.82747  22230329.573    22230341.0884
 00  2 26  1 17  0.0000000  0  6 24 17 06 30 10 05
  23325096.546    -7991926.917 8  -6211132.42846  23325096.511    23325108.6474
  22792150.342   -18768435.260 8 -14608383.46746  22792149.903    22792162.3554
  21006094.874   -25731250.315 9 -20035849.17547  21006094.833    21006103.9754
  20793582.906   -25271539.119 9 -19673431.54348  20793583.222    20793592.1964
  20998212.782   -24185244.377 9 -18557216.56547  20998212.090    20998221.7714
  22248157.559   -13923100.296 8 -10830598.38547  22248157.101    22248168.6584
 00  2 26  1 17 30.0000000  0  6 24 17 06 30 10 05
  23339545.181    -7915999.028 8  -6151967.86746  23339545.179    23339557.2614
  22779865.813   -18832990.744 8 -14658686.31446  22779865.357    22779877.7304
  20996725.307   -25780487.431 9 -20074215.71048  20996725.250    20996734.3814
  20800835.693   -25233425.371 9 -19643732.53648  20800836.011    20800844.9694
  21005291.133   -24148047.124 9 -18528231.67947  21005290.450    21005300.1254
  22266039.686   -13829129.521 8 -10757374.47747  22266039.232    22266050.7764
 00  2 26  1 18  0.0000000  0  6 24 17 06 30 10 05
  23353993.232    -7840075.012 8  -6092806.32946  23353993.127    23354005.2174
  22767618.936   -18897348.262 8 -14708834.89946  22767618.446    22767630.7954
  20987400.029   -25829492.025 9 -20112401.06048  20987399.985    20987409.1154
  20808197.959   -25194736.593 9 -19613585.45948  20808198.284    20808207.2304
  21012479.825   -24110270.612 9 -18498795.42447  21012479.113    21012488.7704
  22283976.913   -13734869.092 8 -10683924.87047  22283976.474    22283988.0244
 00  2 26  1 18 30.0000000  0  6 24 17 06 30 10 05
  23368443.943    -7764136.296 8  -6033633.34846  23368443.793    23368455.9004
  22755412.034   -18961495.422 8 -14758819.57746  22755411.577    22755423.8524
  20978118.352   -25878267.427 9 -20150407.81848  20978118.301    20978127.4034
  20815672.687   -25155456.618 9 -19582977.70748  20815673.009    20815681.9884
  21019779.836   -24071908.725 9 -18468903.03747  21019779.120    21019788.8264
  22301968.247   -13640324.163 8 -10610253.57346  22301967.799    22301979.3874
 00  2 26  1 19  0.0000000  0  6 24 17 06 30 10 05
  23382897.088    -7688184.580 8  -5974450.21646  23382896.927    23382909.0584
  22743248.642   -19025413.916 8 -14808626.07446  22743248.177    22743260.3964
  20968881.723   -25926806.104 9 -20188230.11548  20968881.655    20968890.7464
  20823260.583   -25115581.959 9 -19551906.56248  20823260.916    20823269.9484
  21027191.207   -24032961.563 9 -18438554.59347  21027190.509    21027200.2354
  22320013.283   -13545496.984 8 -10536362.36146  22320012.857    22320024.4994
 00  2 26  1 19 30.0000000  0  6 24 17 06 30 10 05
  23397353.692    -7612214.805 8  -5915253.00846  23397353.559    23397365.6934
  22731130.464   -19089094.661 8 -14858247.30446  22731130.006    22731142.2114
  20959688.622   -25975116.027 9 -20225874.16548  20959688.579    20959697.6354
  20830961.184   -25075115.016 9 -19520373.88848  20830961.505    20830970.5384
  21034706.064   -23993470.508 9 -18407782.33347  21034705.377    21034715.0854
  22338106.625   -13450416.172 8 -10462273.50246  22338106.201    22338117.9154
 00  2 26  1 20  0.0000000  0  7 24 17 06 30 10 05 13
  23411812.159    -7536234.478 8  -5856047.59045  23411812.060    23411824.3074
  22719053.580   -19152558.712 8 -14907699.70146  22719053.117    22719065.2714
  20950533.876   -26023224.454 9 -20263361.20348  20950533.827    20950542.8774
  20838771.521   -25034071.591 9 -19488392.01748  20838771.848    20838780.8804
  21042320.831   -23953454.576 9 -18376601.08747  21042320.155    21042329.8544
  22356243.456   -13355107.005 8 -10388006.69846  22356243.025    22356254.7344
  24857753.160    -4350106.763 7  -3383327.84145  24857753.626    24857765.4734
 00  2 26  1 20 30.0000000  0  7 24 17 06 30 10 05 13
  23426271.157    -7460252.155 8  -5796840.62645  23426271.050    23426283.3024
  22707013.496   -19215829.149 8 -14957001.23046  22707013.022    22707025.1304
  20941413.896   -26071150.084 9 -20300705.80148  20941413.841    20941422.8934
  20846687.865   -24992470.980 9 -19455975.97948  20846688.168    20846697.2454
  21050037.486   -23912903.426 9 -18345002.78547  21050036.793    21050046.4844
  22374426.390   -13259555.099 8 -10313550.75946  22374425.967    22374437.6724
  24855139.003    -4363844.053 7  -3394032.09045  24855139.426    24855151.2824
 00  2 26  1 21  0.0000000  0  7 24 17 06 30 10 05 13
  23440729.465    -7384273.831 8  -5737636.76046  23440729.340    23440741.5004
  22695011.976   -19278897.150 8 -15006145.02646  22695011.511    22695023.5974
  20932331.227   -26118879.475 9 -20337897.48148  20932331.179    20932340.2344
  20854711.009   -24950309.082 9 -19423122.56748  20854711.324    20854720.4194
  21057855.660   -23871818.479 9 -18312988.53747  21057854.990    21057864.6554
  22392655.801   -13163759.173 8 -10238904.66646  22392655.367    22392667.1154
  24852611.128    -4377127.221 7  -3404382.48845  24852611.416    24852623.3704
 00  2 26  1 21 30.0000000  0  7 24 17 06 30 10 05 13
  23455185.621    -7308306.122 8  -5678441.16645  23455185.563    23455197.7404
  22683047.769   -19341769.058 8 -15055136.02146  22683047.303    22683059.3854
  20923286.176   -26166411.339 9 -20374935.24048  20923286.130    20923295.1774
  20862840.771   -24907586.834 9 -19389832.51748  20862841.086    20862850.1704
  21065779.183   -23830180.416 9 -18280543.28347  21065778.455    21065788.0914
  22410929.940   -13067728.099 8 -10164075.33146  22410929.516    22410941.2444
  24850169.442    -4389958.041 7  -3414380.41345  24850169.766    24850181.7954
 00  2 26  1 22  0.0000000  0  7 24 17 06 30 10 05 13
  23469638.463    -7232356.072 8  -5619259.34545  23469638.447    23469650.6144
  22671123.706   -19404429.875 8 -15103962.53846  22671123.268    22671135.2674
  20914281.625   -26213730.272 9 -20411807.08548  20914281.574    20914290.6354
  20871077.344   -24864303.454 9 -19356105.23748  20871077.664    20871086.7694
  21073815.834   -23787947.303 9 -18247634.35947  21073815.141    21073824.7654
  22429251.497   -12971448.052 8 -10089052.01146  22429251.092    22429262.7914
  24847818.589    -4402311.248 7  -3424006.18645  24847818.873    24847831.0734
 00  2 26  1 22 30.0000000  0  7 24 17 06 30 10 05 13
  23484089.508    -7156415.165 8  -5560084.64145  23484089.483    23484101.7144
  22659243.477   -19466860.312 8 -15152609.52946  22659243.043    22659255.0114
  20905322.405   -26260810.970 9 -20448493.29148  20905322.376    20905331.4564
  20879420.373   -24820460.604 9 -19321942.00148  20879420.678    20879429.7804
  21081965.180   -23745122.174 9 -18214264.12447  21081964.460    21081974.1124
  22447619.336   -12874924.869 8 -10013839.23846  22447618.927    22447630.6094
  24845560.052    -4414178.946 7  -3433253.62745  24845560.287    24845572.6294
 00  2 26  1 23  0.0000000  0  7 24 17 06 30 10 05 13
  23498537.097    -7080492.189 8  -5500923.91745  23498537.061    23498549.3364
  22647410.151   -19529044.530 8 -15201064.67546  22647409.694    22647421.6114
  20896411.750   -26307636.646 9 -20484980.78248  20896411.705    20896420.7774
  20887867.098   -24776072.683 9 -19287354.04148  20887867.420    20887876.4984
  21090227.138   -23701705.240 9 -18180432.74247  21090226.400    21090236.0714
  22466030.578   -12778173.556 8  -9938448.69746  22466030.201    22466041.8604
  24843392.665    -4425568.177 7  -3442128.24545  24843392.956    24843405.1324
 00  2 26  1 23 30.0000000  0  7 24 17 06 30 10 05 13
  23512981.178    -7004588.250 8  -5441778.03145  23512981.112    23512993.3844
  22635621.954   -19590991.626 8 -15249335.04446  22635621.505    22635633.3554
  20887552.688   -26354191.212 9 -20521257.01248  20887552.648    20887561.7134
  20896413.804   -24731159.420 9 -19252356.72048  20896414.143    20896423.2274
  21098601.324   -23657698.722 9 -18146141.93847  21098600.593    21098610.2354
  22484486.485   -12681187.345 8  -9862875.11046  22484486.134    22484497.8574
  24841318.334    -4436468.279 7  -3450621.74345  24841318.504    24841330.9354
 00  2 26  1 24  0.0000000  0  7 24 17 06 30 10 05 13
  23527424.111    -6928690.178 8  -5382636.69245  23527424.112    23527436.2964
  22623877.678   -19652707.848 8 -15297425.52046  22623877.206    22623889.0774
  20878746.822   -26400466.262 9 -20557315.44648  20878746.774    20878755.8324
  20905058.419   -24685731.701 9 -19216958.53048  20905058.769    20905067.8644
  21107081.764   -23613133.475 9 -18111415.76847  21107081.052    21107090.7334
  22502986.609   -12583969.045 8  -9787120.68246  22502986.236    22502997.9834
  24839336.568    -4446881.497 7  -3458735.85245  24839336.855    24839349.2344
 00  2 26  1 24 30.0000000  0  7 24 17 06 30 10 05 13
  23541867.539    -6852790.088 8  -5323493.77445  23541867.435    23541879.5334
  22612174.434   -19714208.293 8 -15345347.84446  22612173.968    22612185.8484
  20869992.571   -26446470.010 9 -20593162.47148  20869992.505    20870001.5314
  20913799.308   -24639798.117 9 -19181166.15447  20913799.678    20913808.7644
  21115662.842   -23568039.896 9 -18076277.90247  21115662.121    21115671.7414
  22521528.319   -12486531.965 8  -9711195.77246  22521527.950    22521539.7574
  24837443.327    -4456830.764 7  -3466488.43445  24837443.626    24837455.7324
 00  2 26  1 25  0.0000000  0  7 24 17 06 30 10 05 13
  23556309.546    -6776896.748 8  -5264356.12645  23556309.466    23556321.5554
  22600509.152   -19775509.407 8 -15393114.85446  22600508.703    22600520.5404
  20861287.813   -26492213.714 9 -20628806.86948  20861287.731    20861296.7424
  20922635.812   -24593362.198 9 -19144982.35447  20922636.170    20922645.2554
  21124343.096   -23522424.769 9 -18040733.63747  21124342.362    21124351.9864
  22540111.551   -12388876.776 8  -9635100.91346  22540111.205    22540123.0464
  24835637.965    -4466317.465 7  -3473880.57645  24835638.186    24835650.4254
 00  2 26  1 25 30.0000000  0  8 24 26 17 06 30 10 05 13
  23570752.147    -6701000.463 8  -5205216.18845  23570752.097    23570764.1944
  24341098.050    -7331499.108 8  -5254727.14545  24341098.329    24341114.3624
  22588879.914   -19836621.385 8 -15440734.49246  22588879.414    22588891.2194
  20852629.617   -26537712.653 9 -20664260.54448  20852629.545    20852638.5564
  20931571.303   -24546405.975 9 -19108393.11948  20931571.654    20931580.7954
  21133120.428   -23476299.331 9 -18004791.72847  21133119.726    21133129.3614
  22558735.623   -12291007.292 8  -9558839.07246  22558735.212    22558747.1144
  24833921.655    -4475336.148 7  -3480908.02945  24833922.053    24833934.0084
 00  2 26  1 26  0.0000000  0  8 24 26 17 06 30 10 05 13
  23585193.891    -6625108.784 8  -5146079.83645  23585193.840    23585205.9804
  24324752.001    -7417397.446 8  -5321660.58145  24324752.215    24324768.2454
  22577284.694   -19897554.095 8 -15488214.43946  22577284.222    22577296.0464
  20844011.282   -26583001.998 9 -20699550.89648  20844011.211    20844020.2034
  20940606.485   -24498925.960 9 -19071395.73247  20940606.830    20940615.9834
  21141995.451   -23429660.830 9 -17968450.03147  21141994.741    21142004.3684
  22577398.518   -12192933.462 8  -9482418.00346  22577398.093    22577409.9774
  24832291.288    -4483903.181 7  -3487583.54245  24832291.723    24832303.5864
 00  2 26  1 26 30.0000000  0  8 24 26 17 06 30 10 05 13
  23599633.692    -6549227.362 8  -5086951.47745  23599633.623    23599645.7644
  24308402.588    -7503312.769 8  -5388607.24945  24308402.724    24308418.7824
  22565728.585   -19958281.402 8 -15535534.33046  22565728.122    22565739.9484
  20835434.413   -26628073.514 9 -20734671.51048  20835434.339    20835443.3064
  20949744.574   -24450905.042 9 -19033976.85947  20949744.913    20949754.0944
  21150973.620   -23382480.245 9 -17931685.93147  21150972.926    21150982.5264
  22596104.158   -12094635.056 8  -9405821.93646  22596103.733    22596115.6554
  24830752.799    -4491987.514 7  -3493882.89845  24830753.158    24830765.0534
 00  2 26  1 27  0.0000000  0  8 24 26 17 06 30 10 05 13
  23614067.245    -6473378.787 8  -5027848.70846  23614067.142    23614079.2814
  24292051.435    -7589236.817 8  -5455560.71845  24292051.644    24292067.5894
  22554214.200   -20018789.426 8 -15582683.35946  22554213.753    22554225.5404
  20826900.793   -26672917.865 9 -20769615.12048  20826900.707    20826909.6494
  20958985.491   -24402343.595 9 -18996136.80247  20958985.836    20958995.0564
  21160056.050   -23334751.847 9 -17894494.97147  21160055.329    21160064.9384
  22614852.531   -11996112.111 8  -9329050.91146  22614852.123    22614864.0694
  24829309.438    -4499571.771 7  -3499792.60145  24829309.837    24829321.7324
 00  2 26  1 27 30.0000000  0  8 24 26 17 06 30 10 05 13
  23628494.104    -6397565.192 8  -4968773.19446  23628493.984    23628506.1724
  24275701.496    -7675155.471 8  -5522509.95745  24275701.612    24275717.4374
  22542742.792   -20079071.859 8 -15629656.60547  22542742.354    22542754.0654
  20818410.743   -26717533.113 9 -20804380.20948  20818410.684    20818419.6124
  20968329.509   -24353240.770 9 -18957874.88947  20968329.837    20968339.0534
  21169242.009   -23286479.093 9 -17856879.83747  21169241.299    21169250.9334
  22633644.292   -11897360.864 8  -9252101.99846  22633643.885    22633655.9164
  24827960.046    -4506662.582 7  -3505317.76645  24827960.351    24827972.2734
 00  2 26  1 28  0.0000000  0  8 24 26 17 06 30 10 05 13
  23642911.272    -6321802.466 8  -4909737.31745  23642911.183    23642923.3014
  24259354.014    -7761060.446 7  -5589448.55345  24259354.069    24259369.8344
  22531315.739   -20139121.304 8 -15676448.29847  22531315.275    22531326.9354
  20809967.402   -26761903.089 9 -20838954.17248  20809967.349    20809976.2554
  20977775.462   -24303602.047 9 -18919195.39347  20977775.788    20977784.9744
  21178527.911   -23237681.391 9 -17818855.65347  21178527.201    21178536.8464
  22652476.073   -11798399.446 8  -9174989.30846  22652475.677    22652487.7154
  24826703.498    -4513265.810 7  -3510463.02445  24826703.791    24826715.7484
 00  2 26  1 28 30.0000000  0  8 24 26 17 06 30 10 05 13
  23657316.737    -6246100.996 8  -4850749.16945  23657316.760    23657328.8524
  24243010.722    -7846943.721 8  -5656370.24745  24243010.803    24243026.4224
  22519933.071   -20198937.387 8 -15723058.14747  22519932.595    22519944.2814
  20801572.437   -26806018.949 9 -20873330.10848  20801572.371    20801581.2564
  20987322.260   -24253433.412 9 -18880102.97947  20987322.589    20987331.7874
  21187907.448   -23188391.495 9 -17780447.93847  21187906.727    21187916.3804
  22671342.809   -11699254.708 8  -9097733.76446  22671342.406    22671354.4054
  24825539.612    -4519381.396 7  -3515228.28045  24825539.867    24825551.8524
 00  2 26  1 29  0.0000000  0  8 24 26 17 06 30 10 05 13
  23671714.035    -6170442.559 8  -4791794.57945  23671714.034    23671726.1864
  24226669.524    -7932815.730 7  -5723283.20945  24226669.596    24226685.1744
  22508591.745   -20258535.878 8 -15769498.45647  22508591.287    22508602.9854
  20793225.352   -26849882.872 9 -20907509.73648  20793225.280    20793234.1754
  20996971.484   -24202726.490 9 -18840591.12847  20996971.819    20996981.0294
  21197379.401   -23138616.038 9 -17741661.86747  21197378.700    21197388.3714
  22690240.331   -11599948.228 8  -9020352.18146  22690239.844    22690251.8604
  24824465.788    -4525023.850 7  -3519624.89445  24824466.040    24824478.0144
 00  2 26  1 29 30.0000000  0  8 24 26 17 06 30 10 05 13
  23686107.888    -6094802.519 8  -4732854.31545  23686107.848    23686120.0674
  24210333.484    -8018660.791 7  -5790175.16645  24210333.715    24210349.1804
  22497289.518   -20317928.991 8 -15815778.72047  22497289.061    22497300.7814
  20784924.119   -26893505.927 9 -20941501.67448  20784924.047    20784932.9454
  21006724.051   -24151476.448 9 -18800656.06047  21006724.367    21006733.5624
  21206943.541   -23088356.056 9 -17702498.23847  21206942.849    21206952.5414
  22709166.418   -11500490.968 8  -8942853.11446  22709165.992    22709178.0424
  24823483.119    -4530187.453 7  -3523648.38845  24823483.260    24823495.3444
 00  2 26  1 30  0.0000000  0  8 24 26 17 06 30 10 05 13
  23700499.599    -6019173.974 8  -4673923.00346  23700499.526    23700511.8044
  24194004.688    -8104468.119 7  -5857037.73445  24194004.950    24194020.1924
  22486025.207   -20377122.779 8 -15861903.67047  22486024.789    22486036.4924
  20776667.444   -26936894.916 9 -20975311.22748  20776667.383    20776676.2744
  21016578.787   -24099689.731 9 -18760302.80547  21016579.115    21016588.3124
  21216600.999   -23037605.844 9 -17662952.61547  21216600.303    21216610.0144
  22728118.720   -11400896.076 8  -8865246.80546  22728118.350    22728130.4614
  24822594.838    -4534854.852 7  -3527285.21945  24822595.026    24822606.9534
 00  2 26  1 30 30.0000000  0  8 24 26 17 06 30 10 05 13
  23714890.864    -5943547.474 8  -4614993.28046  23714890.793    23714903.1244
  24177682.247    -8190241.556 7  -5923873.91345  24177682.429    24177697.7694
  22474795.284   -20436136.475 8 -15907888.29347  22474794.834    22474806.4514
  20768453.812   -26980057.567 9 -21008944.40948  20768453.759    20768462.6384
  21026533.392   -24047378.062 9 -18719540.49547  21026533.714    21026542.9344
  21226355.555   -22986345.146 9 -17623009.20747  21226354.870    21226364.5584
  22747100.759   -11301145.421 8  -8787519.12246  22747100.350    22747112.4904
  24821799.584    -4539033.446 7  -3530541.17745  24821799.726    24821811.8794
 00  2 26  1 31  0.0000000  0  8 24 26 17 06 30 10 05 13
  23729285.436    -5867903.321 8  -4556049.82646  23729285.418    23729297.7524
  24161366.322    -8275981.389 7  -5990683.91245  24161366.384    24161381.5874
  22463599.689   -20494969.583 8 -15953732.19147  22463599.214    22463610.8104
  20760287.770   -27022970.060 9 -21042382.66648  20760287.712    20760296.5694
  21036587.101   -23994545.519 9 -18678372.30047  21036587.444    21036596.6384
  21236212.026   -22934549.109 9 -17582648.65847  21236211.357    21236221.0634
  22766118.748   -11201205.928 8  -8709644.28746  22766118.304    22766130.4444
  24821096.064    -4542730.328 7  -3533421.76145  24821096.293    24821108.2644
 00  2 26  1 31 30.0000000  0  8 24 26 17 06 30 10 05 13
  23743681.903    -5792249.525 8  -4497098.84445  23743681.912    23743694.1974
  24145059.235    -8361674.352 7  -6057457.37145  24145059.344    24145074.5334
  22452439.382   -20553616.756 8 -15999431.20547  22452438.960    22452450.5524
  20752173.551   -27065610.300 9 -21075608.78348  20752173.499    20752182.3454
  21046737.145   -23941206.799 9 -18636809.68147  21046737.497    21046746.6734
  21246171.251   -22882213.129 9 -17541867.37047  21246170.572    21246180.2414
  22785177.016   -11101054.242 8  -8631604.11846  22785176.570    22785188.7074
  24820486.381    -4545934.016 7  -3535918.03345  24820486.585    24820498.5564
 00  2 26  1 32  0.0000000  0  8 24 26 17 06 30 10 05 13
  23758079.053    -5716592.101 8  -4438145.01445  23758078.975    23758091.2534
  24128759.437    -8447329.543 7  -6124201.40045  24128759.518    24128774.5904
  22441316.513   -20612067.621 8 -16044977.25147  22441316.081    22441327.6584
  20744116.983   -27107947.819 9 -21108599.01448  20744116.927    20744125.7324
  21056984.256   -23887357.923 9 -18594849.55447  21056984.603    21056993.7984
  21256235.390   -22829325.677 9 -17500656.36747  21256234.675    21256244.3414
  22804281.360   -11000660.237 8  -8553375.13046  22804280.905    22804293.1014
  24819968.938    -4548652.897 7  -3538036.54145  24819969.263    24819981.1694
 00  2 26  1 32 30.0000000  0  8 24 26 17 06 30 10 05 13
  23772477.525    -5640927.440 8  -4379185.53045  23772477.506    23772489.7424
  24112467.389    -8532942.959 7  -6190912.86445  24112467.506    24112482.5294
  22430234.634   -20670302.723 8 -16090355.16747  22430234.232    22430245.8154
  20736122.859   -27149956.880 9 -21141333.29648  20736122.811    20736131.5974
  21067331.125   -23832985.089 9 -18552481.14247  21067331.480    21067340.6624
  21266404.291   -22775887.734 9 -17459016.40747  21266403.605    21266413.2754
  22823434.238   -10900011.315 8  -8474947.50346  22823433.835    22823446.0454
  24819542.918    -4550891.496 7  -3539780.82245  24819543.148    24819555.0604
 00  2 26  1 33  0.0000000  0  8 24 26 17 06 30 10 05 13
  23786877.894    -5565253.186 8  -4320218.57645  23786877.817    23786890.0034
  24096186.597    -8618498.192 7  -6257579.01045  24096186.587    24096201.3604
  22419198.680   -20728296.817 8 -16135545.27647  22419198.252    22419209.8494
  20728189.391   -27191647.267 9 -21173819.26348  20728189.333    20728198.1244
  21077778.361   -23778084.551 9 -18509701.53447  21077778.707    21077787.8724
  21276675.305   -22721912.969 9 -17416958.15547  21276674.625    21276684.2864
  22842633.414   -10799119.784 8  -8396330.82446  22842633.024    22842645.2254
  24819212.004    -4552629.379 7  -3541134.93445  24819212.307    24819224.1224
 00  2 26  1 33 30.0000000  0  8 24 26 17 06 30 10 05 13
  23801275.421    -5489594.188 8  -4261263.51745  23801275.330    23801287.4954
  24079917.417    -8703992.533 7  -6324197.70245  24079917.401    24079932.2494
  22408208.468   -20786050.378 8 -16180547.94547  22408208.021    22408219.6114
  20720309.550   -27233055.748 9 -21206085.56448  20720309.508    20720318.3034
  21088324.346   -23722665.163 9 -18466517.63447  21088324.697    21088333.8784
  21287043.591   -22667427.294 9 -17374501.78147  21287042.917    21287052.5494
  22861872.292   -10698019.458 8  -8317551.46746  22861871.915    22861884.1764
  24818977.414    -4553862.213 7  -3542095.51045  24818977.689    24818989.3694
 00  2 26  1 34  0.0000000  0  8 24 26 17 06 30 10 05 13
  23815668.751    -5413956.959 8  -4202325.43445  23815668.646    23815680.8624
  24063658.303    -8789433.586 7  -6390774.85745  24063658.287    24063673.0844
  22397263.687   -20843565.199 8 -16225364.60047  22397263.267    22397274.7854
  20712477.902   -27274211.336 9 -21238154.81248  20712477.850    20712486.6224
  21098966.299   -23666741.574 9 -18422940.85047  21098966.639    21098975.8144
  21297503.837   -22612458.580 9 -17331669.01747  21297503.155    21297512.8074
  22881145.397   -10596738.851 8  -8238631.64346  22881145.033    22881157.3024
  24818833.516    -4554617.287 7  -3542683.78545  24818833.959    24818845.5964
 00  2 26  1 34 30.0000000  0  8 24 26 17 06 30 10 05 13
  23830056.280    -5338349.040 7  -4143410.19245  23830056.186    23830068.6114
  24047407.967    -8874828.427 7  -6457316.01045  24047407.996    24047422.6604
  22386361.045   -20900858.843 8 -16270008.88947  22386360.595    22386372.0394
  20704687.563   -27315149.521 9 -21270054.65548  20704687.513    20704696.2834
  21109700.081   -23610334.932 9 -18378987.65947  21109700.409    21109709.6014
  21308051.545   -22557029.955 9 -17288477.88247  21308050.863    21308060.5244
  22900444.569   -10495321.228 8  -8159605.04146  22900444.252    22900456.5044
  24818780.284    -4554897.191 7  -3542901.79945  24818780.656    24818792.1244
 00  2 26  1 35  0.0000000  0  8 24 26 17 06 30 10 05 13
  23844434.301    -5262791.101 7  -4084533.94345  23844434.212    23844446.8414
  24031164.298    -8960188.089 7  -6523829.75745  24031164.372    24031179.0354
  22375496.234   -20957953.420 8 -16314498.05747  22375495.767    22375507.1764
  20696935.621   -27355886.022 9 -21301797.34148  20696935.580    20696944.3574
  21120520.879   -23553471.234 9 -18334678.32647  21120521.227    21120530.4584
  21318686.065   -22501145.417 9 -17244931.48947  21318685.391    21318695.0054
  22919765.903   -10393787.583 8  -8080488.02646  22919765.557    22919777.7424
  24818815.897    -4554709.831 7  -3542755.69745  24818816.301    24818827.6744
 00  2 26  1 35 30.0000000  0  8 24 26 17 06 30 10 05 13
  23858802.346    -5187286.991 7  -4025699.61945  23858802.165    23858814.8034
  24014926.452    -9045517.015 7  -6590319.55345  24014926.453    24014941.1934
  22364665.234   -21014870.266 8 -16358848.72447  22364664.775    22364676.1794
  20689226.068   -27396399.595 9 -21333366.31548  20689226.027    20689234.8144
  21131426.730   -23496160.942 9 -18290020.99547  21131427.057    21131436.2974
  21329408.710   -22444797.568 9 -17201024.07847  21329407.998    21329417.6574
  22939109.981   -10292134.650 8  -8001278.04446  22939109.585    22939121.6904
  24818938.896    -4554063.486 7  -3542251.95545  24818939.166    24818950.6334
 00  2 26  1 36  0.0000000  0  9 24 26 17 23 06 30 10 05 13
  23873161.168    -5111831.421 8  -3966903.09245  23873160.964    23873173.5664
  23998696.295    -9130806.343 7  -6656778.49145  23998696.328    23998710.8664
  22353866.806   -21071615.700 8 -16403065.82047  22353866.371    22353877.7944
  24577379.518    -2231797.009 7  -1715405.03145  24577378.875    24577398.4814
  20681563.273   -27436667.766 9 -21364744.06948  20681563.242    20681572.0234
  21142419.301   -23438394.859 9 -18245008.50447  21142419.627    21142428.8384
  21340223.090   -22387967.358 9 -17156740.80047  21340222.401    21340232.0644
  22958479.231   -10190349.045 8  -7921964.69946  22958478.835    22958491.0254
  24819152.163    -4552942.278 7  -3541378.18945  24819152.469    24819163.8944
 00  2 26  1 36 30.0000000  0  9 24 26 17 23 06 30 10 05 13
  23887511.915    -5036417.793 8  -3908139.22045  23887511.869    23887524.2964
  23982476.778    -9216039.146 7  -6723193.37045  23982476.638    23982491.5164
  22343103.926   -21128174.470 8 -16447137.45847  22343103.512    22343114.9454
  24557197.984    -2337849.835 7  -1798043.00545  24557197.367    24557216.8104
  20673953.397   -27476657.566 9 -21395904.91148  20673953.360    20673962.1554
  21153503.493   -23380147.130 9 -18199620.69447  21153503.834    21153513.0434
  21351134.861   -22330625.760 9 -17112059.03247  21351134.167    21351143.8034
  22977877.877   -10088408.849 8  -7842530.90146  22977877.466    22977889.7734
  24819463.711    -4551304.329 7  -3540101.76845  24819464.013    24819475.4624
 00  2 26  1 37  0.0000000  0  9 24 26 17 23 06 30 10 05 13
  23901854.678    -4961046.541 8  -3849408.37045  23901854.581    23901867.0194
  23966271.190    -9301198.412 8  -6789550.97745  23966271.286    23966285.9104
  22332378.023   -21184539.241 8 -16491057.93347  22332377.597    22332388.9974
  24537035.594    -2443801.791 8  -1880602.39145  24537035.005    24537054.3394
  20666399.873   -27516351.289 9 -21426835.04448  20666399.859    20666408.6344
  21164680.020   -23321414.289 9 -18153854.88247  21164680.337    21164689.5984
  21362143.790   -22272773.435 9 -17066979.30247  21362143.086    21362152.7204
  22997308.561    -9986300.417 8  -7762966.00546  22997308.184    22997320.5394
  24819875.852    -4549138.194 7  -3538413.77145  24819876.158    24819887.5664
 00  2 26  1 37 30.0000000  0  9 24 26 17 23 06 30 10 05 13
  23916190.339    -4885712.246 8  -3790706.31445  23916190.236    23916202.6014
  23950079.880    -9386283.420 8  -6855850.73145  23950080.015    23950094.5964
  22321691.080   -21240698.885 8 -16534818.56647  22321690.665    22321702.0444
  24516894.240    -2549643.393 8  -1963075.80945  24516893.589    24516912.8454
  20658902.436   -27555750.621 9 -21457535.79048  20658902.390    20658911.1514
  21175952.319   -23262178.104 9 -18107696.85447  21175952.643    21175961.9114
  21373245.053   -22214435.694 9 -17021521.31947  21373244.371    21373253.9474
  23016771.654    -9884021.909 8  -7683268.56446  23016771.221    23016783.5804
  24820389.623    -4546438.199 7  -3536309.77945  24820389.912    24820401.3894
 00  2 26  1 38  0.0000000  0  9 24 26 17 23 06 30 10 05 13
  23930518.375    -4810418.154 8  -3732035.58145  23930518.207    23930530.5394
  23933902.393    -9471296.339 8  -6922094.32745  23933902.535    23933916.9744
  22311045.601   -21296640.613 8 -16578409.38447  22311045.205    22311056.5514
  24496774.968    -2655368.811 8  -2045458.67745  24496774.327    24496793.3504
  20651460.364   -27594858.988 9 -21488009.81048  20651460.312    20651469.0544
  21187322.855   -23202425.533 9 -18061136.44247  21187323.191    21187332.4704
  21384434.344   -22155635.289 9 -16975702.81747  21384433.645    21384443.2944
  23036263.939    -9781590.331 8  -7603451.85346  23036263.447    23036275.7804
  24821002.466    -4543217.276 7  -3533799.88145  24821002.758    24821014.1794
 00  2 26  1 38 30.0000000  0  9 24 26 17 23 06 30 10 05 13
  23944840.571    -4735154.630 7  -3673388.68745  23944840.441    23944852.7624
  23917736.295    -9556248.125 8  -6988290.26245  23917736.506    23917751.0674
  22300443.826   -21352352.650 8 -16621821.23647  22300443.404    22300454.7274
  24476676.689    -2760983.595 8  -2127755.31845  24476676.100    24476695.0274
  20644072.863   -27633680.309 9 -21518260.14848  20644072.826    20644081.5514
  21198789.545   -23142167.924 9 -18014182.49847  21198789.883    21198799.1854
  21395706.545   -22096399.365 9 -16929544.95347  21395705.881    21395715.5644
  23055781.511    -9679024.931 8  -7523530.87046  23055781.015    23055793.4584
  24821710.296    -4539497.286 7  -3530901.08145  24821710.607    24821721.8314
 00  2 26  1 39  0.0000000  0  9 24 26 17 23 06 30 10 05 13
  23959157.780    -4659917.115 7  -3614762.08245  23959157.651    23959169.9984
  23901582.213    -9641137.193 8  -7054437.31545  23901582.399    23901596.9464
  22289883.187   -21407848.704 8 -16665064.79247  22289882.765    22289894.0324
  24456597.316    -2866499.059 7  -2209974.57345  24456596.742    24456615.6194
  20636736.936   -27672230.943 9 -21548299.56348  20636736.894    20636745.5934
  21210349.243   -23081421.223 9 -17966847.45147  21210349.580    21210358.9164
  21407060.000   -22036736.587 9 -16883054.48147  21407059.291    21407068.9964
  23075322.081    -9576338.448 8  -7443515.54646  23075321.647    23075334.2314
  24822509.170    -4535298.990 7  -3527629.60145  24822509.525    24822520.6634
 00  2 26  1 39 30.0000000  0  9 24 26 17 23 06 30 10 05 13
  23973469.179    -4584710.127 7  -3556159.25845  23973469.003    23973481.4444
  23885438.706    -9725970.700 8  -7120541.09345  23885438.955    23885453.3394
  22279362.471   -21463134.972 8 -16708144.87947  22279362.019    22279373.2874
  24436535.952    -2971919.601 7  -2292119.85145  24436535.359    24436554.2684
  20629452.630   -27710510.009 9 -21578127.36748  20629452.577    20629461.2744
  21222000.214   -23020195.107 9 -17919138.82747  21222000.535    21222009.8814
  21418495.972   -21976640.165 9 -16836226.10047  21418495.264    21418504.9364
  23094885.102    -9473533.773 8  -7363408.14946  23094884.704    23094897.4524
  24823395.859    -4530638.671 7  -3523998.08445  24823396.260    24823407.3424
 00  2 26  1 40  0.0000000  0  9 24 26 17 23 06 30 10 05 13
  23987774.933    -4509532.427 8  -3497579.24945  23987774.829    23987787.3184
  23869308.299    -9810735.688 8  -7186591.48245  23869308.542    23869322.9384
  22268880.568   -21518217.177 8 -16751065.95847  22268880.145    22268891.4044
  24416492.330    -3077246.917 7  -2374192.47845  24416491.925    24416510.6174
  20622221.810   -27748507.997 9 -21607736.15048  20622221.773    20622230.4574
  21233739.107   -22958506.870 9 -17871070.11747  21233739.448    21233748.7844
  21430020.277   -21916079.934 9 -16789036.31247  21430019.556    21430029.1504
  23114470.392    -9370612.364 8  -7283209.75946  23114470.025    23114482.8954
  24824371.808    -4525509.164 7  -3520000.98845  24824372.255    24824383.3254
 00  2 26  1 40 30.0000000  0  9 24 26 17 23 06 30 10 05 13
  24002074.550    -4434387.777 8  -3439024.98045  24002074.430    24002086.8064
  23853194.005    -9895416.273 8  -7252576.08745  23853194.218    23853208.4004
  22258436.836   -21573099.367 8 -16793831.18547  22258436.375    22258447.5794
  24396465.525    -3182485.298 7  -2456195.80245  24396465.080    24396483.8354
  20615044.265   -27786226.188 9 -21637126.91148  20615044.222    20615052.8974
  21245563.916   -22896367.363 9 -17822649.76247  21245564.242    21245573.5774
  21441637.891   -21855028.661 9 -16741463.90347  21441637.174    21441646.7964
  23134080.102    -9267563.295 8  -7202911.87746  23134079.710    23134092.5534
  24825441.957    -4519885.253 7  -3515618.61745  24825442.314    24825453.3444
 00  2 26  1 41  0.0000000  0  9 24 26 17 23 06 30 10 05 13
  24016365.728    -4359287.241 8  -3380505.05945  24016365.636    24016377.8974
  23837098.534    -9979997.739 8  -7318483.48045  23837098.770    23837112.7304
  22248029.889   -21627787.835 8 -16836445.47047  22248029.410    22248040.5954
  24376455.672    -3287634.820 7  -2538129.90545  24376455.263    24376473.9514
  20607920.719   -27823660.476 9 -21666296.45148  20607920.674    20607929.3434
  21257475.379   -22833772.275 9 -17773874.41047  21257475.696    21257485.0554
  21453353.289   -21793463.792 9 -16693491.28047  21453352.603    21453362.2064
  23153716.351    -9164374.515 8  -7122505.12446  23153715.965    23153728.7214
  24826609.062    -4513752.111 7  -3510839.44645  24826609.396    24826620.4584
 00  2 26  1 41 30.0000000  0  9 24 26 17 23 06 30 10 05 13
  24030648.806    -4284229.412 8  -3322018.39845  24030648.688    24030660.9704
  23821021.853   -10064480.557 8  -7384313.98545  23821022.050    23821035.9544
  22237662.748   -21682266.806 8 -16878896.50847  22237662.277    22237673.4374
  24356463.851    -3392690.694 7  -2619991.08945  24356463.223    24356481.8184
  20600854.528   -27860793.369 9 -21695231.13148  20600854.475    20600863.1504
  21269475.226   -22770712.745 9 -17724737.14347  21269475.558    21269484.8964
  21465164.231   -21731396.887 9 -16645127.45747  21465163.527    21465173.1664
  23173380.042    -9061041.372 8  -7041985.87546  23173379.693    23173392.4414
  24827876.274    -4507092.523 7  -3505650.05645  24827876.569    24827887.6824
 00  2 26  1 42  0.0000000  0  9 24 26 17 23 06 30 10 05 13
  24044925.996    -4209201.981 8  -3263555.43445  24044925.825    24044938.1464
  23804965.695   -10148855.575 8  -7450060.50445  23804965.895    23804979.6784
  22227336.353   -21736531.780 8 -16921180.81347  22227335.886    22227347.0374
  24336490.178    -3497650.372 7  -2701777.28345  24336489.500    24336507.7714
  20593845.374   -27897626.545 9 -21723932.26948  20593845.328    20593853.9674
  21281564.478   -22707183.426 9 -17675233.81947  21281564.809    21281574.1774
  21477068.075   -21668841.793 9 -16596383.23147  21477067.406    21477076.9804
  23193069.769    -8957571.529 8  -6961360.14546  23193069.422    23193082.1984
  24829245.635    -4499895.948 7  -3500042.22945  24829245.991    24829257.0754
 00  2 26  1 42 30.0000000  0  9 24 26 17 23 06 30 10 05 13
  24059199.264    -4134195.583 8  -3205108.87945  24059199.132    24059211.3114
  23788930.031   -10233122.895 8  -7515723.09845  23788930.177    23788943.9944
  22217048.208   -21790595.849 8 -16963308.56447  22217047.768    22217058.9044
  24316535.954    -3602508.437 8  -2783484.31445  24316535.404    24316553.2174
  20586894.026   -27934156.206 9 -21752396.89648  20586893.960    20586902.5704
  21293744.046   -22643179.344 9 -17625360.55247  21293744.397    21293753.7844
  21489060.614   -21605820.525 9 -16547275.74947  21489059.914    21489069.5614
  23212784.323    -8853971.513 8  -6880632.98346  23212783.954    23212796.8064
  24830714.844    -4492174.722 7  -3494025.60645  24830715.224    24830726.4674
 00  2 26  1 43  0.0000000  0  9 24 26 17 23 06 30 10 05 13
  24073471.354    -4059195.471 8  -3146667.19245  24073471.093    24073483.1544
  23772916.857   -10317270.448 8  -7581292.36545  23772917.063    23772930.9374
  22206797.324   -21844464.442 8 -17005284.00847  22206796.894    22206807.9724
  24296605.474    -3707242.054 8  -2865094.39745  24296605.051    24296622.5214
  20580001.924   -27970374.183 9 -21780618.66348  20580001.871    20580010.4784
  21306016.059   -22578689.872 9 -17575109.05147  21306016.382    21306025.7714
  21501137.933   -21542353.657 9 -16497821.05247  21501137.262    21501146.9334
  23232523.810    -8750240.500 8  -6799803.72146  23232523.379    23232536.2684
  24832282.835    -4483934.187 7  -3487604.30545  24832283.298    24832294.3984
 00  2 26  1 43 30.0000000  0  9 24 26 17 23 06 30 10 05 13
  24087743.604    -3984193.868 8  -3088224.36045  24087743.442    24087755.4814
  23756929.302   -10401284.238 8  -7646757.40645  23756929.490    23756943.3534
  22196583.437   -21898138.462 8 -17047107.84847  22196582.985    22196594.0454
  24276699.328    -3811847.308 7  -2946604.43845  24276698.912    24276716.3024
  20573170.520   -28006273.367 9 -21808592.02048  20573170.461    20573179.0464
  21318380.921   -22513712.166 9 -17524477.10647  21318381.242    21318390.6204
  21513297.071   -21478457.205 9 -16448031.61247  21513296.375    21513305.9924
  23252286.173    -8646389.355 8  -6718880.85946  23252285.707    23252298.5604
  24833947.895    -4475184.111 7  -3480786.01045  24833948.306    24833959.3694
 00  2 26  1 44  0.0000000  0  9 24 26 17 23 06 30 10 05 13
  24102015.836    -3909192.061 8  -3029781.35445  24102015.702    24102027.9654
  23740971.854   -10485140.296 8  -7712099.56945  23740972.087    23740985.7874
  22186406.225   -21951619.850 8 -17088781.59147  22186405.781    22186416.8264
  24256819.226    -3916315.601 8  -3028007.75445  24256818.785    24256836.0554
  20566401.402   -28041845.294 9 -21836310.37448  20566401.337    20566409.9224
  21330838.582   -22448246.957 9 -17473465.30247  21330838.908    21330848.2914
  21525541.666   -21414111.385 9 -16397892.01747  21525540.978    21525550.6204
  23272070.856    -8542421.025 8  -6637866.67446  23272070.380    23272083.1344
  24835708.665    -4465931.866 7  -3473576.39745  24835708.937    24835719.8784
 00  2 26  1 44 30.0000000  0  9 24 26 17 23 06 30 10 05 13
  24116285.643    -3834203.030 8  -2971348.32245  24116285.593    24116297.9164
  23725046.122   -10568829.933 8  -7777312.03745  23725046.372    23725059.9714
  22176267.323   -22004899.778 8 -17130298.35247  22176266.880    22176277.9194
  24236966.723    -4020639.083 7  -3109298.25745  24236966.348    24236983.4964
  20559696.974   -28077077.207 9 -21863763.77148  20559696.908    20559705.4974
  21343387.846   -22382300.439 9 -17422078.44947  21343388.150    21343397.5084
  21537875.375   -21349297.392 9 -16347387.61147  21537874.680    21537884.3624
  23291878.833    -8438329.737 8  -6556756.70246  23291878.378    23291891.1564
  24837565.583    -4456173.232 7  -3465972.18045  24837565.771    24837576.7534
 00  2 26  1 45  0.0000000  0  9 24 26 17 23 06 30 10 05 13
  24130550.891    -3759238.686 8  -2912934.53645  24130550.947    24130563.2914
  23709152.743   -10652349.297 8  -7842391.84545  23709152.995    23709166.5174
  22166171.477   -22057953.322 9 -17171638.72347  22166171.059    22166182.0444
  24217141.190    -4124820.885 7  -3190478.38145  24217140.844    24217157.8184
  20553056.610   -28111972.337 9 -21890954.74548  20553056.545    20553065.1394
  21356025.975   -22315886.668 9 -17370327.50547  21356026.310    21356035.6524
  21550298.447   -21284013.800 9 -16296517.28547  21550297.729    21550307.4264
  23311711.954    -8334106.018 8  -6475543.55646  23311711.507    23311724.4294
  24839520.895    -4445897.615 7  -3457965.14045  24839521.177    24839532.0454
 00  2 26  1 45 30.0000000  0  9 24 26 17 23 06 30 10 05 13
  24144808.989    -3684311.716 8  -2854549.87145  24144809.017    24144821.4174
  23693288.650   -10735714.816 8  -7907351.77345  23693288.878    23693302.2914
  22156119.850   -22110774.871 8 -17212798.31347  22156119.408    22156130.3494
  24197339.996    -4228874.695 7  -3271558.80045  24197339.641    24197356.4094
  20546479.227   -28146536.413 9 -21917887.75648  20546479.179    20546487.7564
  21368748.122   -22249031.727 9 -17318232.79947  21368748.453    21368757.7764
  21562811.586   -21218256.688 9 -16245277.97747  21562810.886    21562820.5624
  23331568.013    -8229761.916 8  -6394236.58846  23331567.622    23331580.5794
  24841573.047    -4435113.623 8  -3449561.96245  24841573.237    24841584.0954
 00  2 26  1 46  0.0000000  0  9 24 26 17 23 06 30 10 05 13
  24159059.312    -3609425.837 8  -2796197.20845  24159059.312    24159071.7314
  23677449.844   -10818947.408 8  -7972208.11145  23677450.162    23677463.3554
  22146111.039   -22163371.264 8 -17253782.45947  22146110.577    22146121.4974
  24177565.828    -4332786.583 7  -3352528.65545  24177565.560    24177582.2134
  20539962.983   -28180779.315 9 -21944570.50048  20539962.930    20539971.5124
  21381550.990   -22181752.251 9 -17265807.27747  21381551.310    21381560.6974
  21575415.941   -21152020.475 9 -16193665.34447  21575415.211    21575424.8844
  23351447.592    -8125295.033 8  -6312833.95346  23351447.139    23351460.1204
  24843722.422    -4423817.893 8  -3440760.02545  24843722.609    24843733.5334
 00  2 26  1 46 30.0000000  0  9 24 26 17 23 06 30 10 05 13
  24173302.952    -3534575.289 8  -2737872.07745  24173302.930    24173315.3244
  23661631.334   -10902073.549 8  -8036981.49745  23661631.584    23661644.7854
  22136142.865   -22215753.692 9 -17294599.88147  22136142.438    22136153.3554
  24157818.457    -4436557.633 7  -3433388.77445  24157818.191    24157834.7344
  20533503.283   -28214725.220 9 -21971021.82148  20533503.242    20533511.7844
  21394433.234   -22114055.802 9 -17213056.84847  21394433.532    21394442.9394
  21588107.378   -21085326.677 9 -16141696.15047  21588106.665    21588116.3364
  23371349.847    -8020708.543 8  -6231338.10746  23371349.382    23371362.4484
  24845967.468    -4412019.662 8  -3431566.52545  24845967.715    24845978.5384
 00  2 26  1 47  0.0000000  0  9 24 26 17 23 06 30 10 05 13
  24187540.389    -3459757.396 8  -2679572.38245  24187540.314    24187552.6964
  23645830.964   -10985104.265 8  -8101680.54345  23645831.142    23645844.2734
  22126213.380   -22267933.405 8 -17335259.33747  22126212.942    22126223.8674
  24138097.170    -4540191.899 7  -3514142.34945  24138096.834    24138113.3504
  20527095.030   -28248400.771 9 -21997262.48048  20527094.968    20527103.4984
  21407394.482   -22045944.275 9 -17159982.98847  21407394.789    21407404.2134
  21600879.824   -21018206.997 9 -16089395.10547  21600879.123    21600888.7614
  23391273.029    -7916011.695 8  -6149756.26046  23391272.569    23391285.7314
  24848305.671    -4399731.901 8  -3421991.57345  24848305.896    24848316.7874
 00  2 26  1 47 30.0000000  0  9 24 26 17 23 06 30 10 05 13
  24201769.444    -3384983.618 8  -2621307.08445  24201769.304    24201781.6734
  23630046.363   -11068052.083 8  -8166314.97445  23630046.560    23630059.6134
  22116319.326   -22319926.411 8 -17375773.30647  22116318.911    22116329.8494
  24118402.179    -4643687.526 7  -3594787.89345  24118401.859    24118418.3474
  20520736.488   -28281815.028 9 -22023299.52548  20520736.430    20520744.9274
  21420432.215   -21977430.547 9 -17106595.72047  21420432.553    21420441.9774
  21613732.780   -20950664.420 9 -16036764.52847  21613732.075    21613741.6854
  23411211.958    -7811232.231 8  -6068110.04246  23411211.485    23411224.6424
  24850733.503    -4386973.391 8  -3412049.81745  24850733.745    24850744.6294
 00  2 26  1 48  0.0000000  0  9 24 26 17 23 06 30 10 05 13
  24215988.938    -3310259.348 7  -2563080.35745  24215988.700    24216000.9844
  23614276.396   -11150922.590 8  -8230889.16945  23614276.597    23614289.6194
  22106460.849   -22371732.990 9 -17416142.01047  22106460.416    22106471.3344
  24098732.053    -4747053.019 7  -3675332.07545  24098731.696    24098748.1934
  20514427.940   -28314966.534 9 -22049131.83748  20514427.887    20514436.3764
  21433546.101   -21908516.933 9 -17052896.85047  21433546.444    21433555.8474
  21626661.981   -20882720.926 9 -15983821.55847  21626661.274    21626670.9294
  23431165.370    -7706376.194 8  -5986404.15746  23431164.942    23431178.0924
  24853250.145    -4373748.441 8  -3401744.61045  24853250.363    24853261.0714
 00  2 26  1 48 30.0000000  0  9 24 26 17 23 06 30 10 05 13
  24230196.039    -3235599.848 7  -2504904.09245  24230195.736    24230208.1834
  23598524.197   -11233700.180 8  -8295390.94245  23598524.402    23598537.3294
  22096639.226   -22423345.874 9 -17456359.77447  22096638.775    22096649.6654
  24079083.037    -4850307.469 7  -3755789.73745  24079082.689    24079099.0564
  20508170.277   -28347850.614 9 -22074755.76248  20508170.229    20508178.7124
  21446734.933   -21839209.401 9 -16998891.02147  21446735.284    21446744.7024
  21639663.990   -20814394.586 9 -15930580.26147  21639663.323    21639673.0134
  23451131.370    -7601454.401 8  -5904647.02046  23451130.949    23451144.1414
  24855855.027    -4360059.504 8  -3391077.86245  24855855.290    24855865.8154
 00  2 26  1 49  0.0000000  0  9 24 26 17 23 06 30 10 05 13
  24244386.862    -3161025.643 7  -2446794.30344  24244386.899    24244398.9394
  23582793.601   -11316364.060 8  -8359804.12245  23582793.792    23582806.5314
  22086856.283   -22474755.421 9 -17496419.09647  22086855.838    22086866.6534
  24059454.199    -4953456.322 8  -3836165.16345  24059453.857    24059470.0284
  20501966.945   -28380449.229 9 -22100157.24248  20501966.884    20501975.3774
  21459996.632   -21769518.930 9 -16944586.79247  21459996.963    21460006.4174
  21652737.327   -20745693.882 9 -15877047.24747  21652736.652    21652746.3274
  23471107.557    -7496479.880 8  -5822848.79345  23471107.071    23471120.1494
  24858550.247    -4345895.440 8  -3380040.88045  24858550.484    24858561.1374
 00  2 26  1 49 30.0000000  0  9 24 26 17 23 06 30 10 05 13
  24258562.782    -3086530.734 7  -2388746.30144  24258562.487    24258574.5574
  23567087.096   -11398901.180 8  -8424118.52445  23567087.255    23567100.1484
  22077110.451   -22525970.141 9 -17536326.60347  22077109.985    22077120.7824
  24039844.822    -5056503.328 8  -3916461.25845  24039844.482    24039860.4534
  20495824.575   -28412726.970 9 -22125308.68748  20495824.536    20495833.0454
  21473333.240   -21699434.773 9 -16889975.79947  21473333.580    21473343.0334
  21665884.840   -20676603.420 9 -15823210.53047  21665884.121    21665893.7984
  23491091.329    -7391464.838 8  -5741019.01445  23491090.787    23491103.9054
  24861336.902    -4331250.634 8  -3368629.31545  24861337.155    24861347.9354
 00  2 26  1 50  0.0000000  0  9 24 26 17 23 06 30 10 05 13
  24272729.109    -3012086.007 7  -2330737.38345  24272728.719    24272741.0964
  23551410.575   -11481281.354 8  -8488310.63045  23551410.668    23551423.4184
  22067403.261   -22576981.549 9 -17576075.67647  22067402.805    22067413.5704
  24020257.448    -5159434.866 8  -3996667.41045  24020257.073    24020272.8724
  20489746.730   -28444665.888 9 -22150196.12448  20489746.704    20489755.2254
  21486752.280   -21628917.355 9 -16835027.19647  21486752.591    21486762.0784
  21679106.869   -20607121.212 9 -15769068.55247  21679106.167    21679115.8294
  23511087.504    -7286384.033 8  -5659138.00745  23511086.963    23511100.2124
  24864220.976    -4316094.857 8  -3356819.57545  24864221.158    24864232.0814
 00  2 26  1 50 30.0000000  0  9 24 26 17 23 06 30 10 05 13
  24286888.785    -2937676.277 8  -2272755.73945  24286888.527    24286900.8394
  23535769.266   -11563475.699 8  -8552357.95245  23535769.476    23535782.1014
  22057734.311   -22627792.174 9 -17615668.29547  22057733.839    22057744.5844
  24000698.183    -5262218.764 8  -4076758.55245  24000697.753    24000713.3344
  20483733.695   -28476264.483 9 -22174818.38248  20483733.656    20483742.1764
  21500259.203   -21557937.913 9 -16779718.58547  21500259.530    21500269.0574
  21692407.297   -20537226.874 9 -15714605.43647  21692406.599    21692416.2954
  23531097.701    -7181229.926 8  -5577199.86045  23531097.170    23531110.5214
  24867205.962    -4300408.696 8  -3344596.54745  24867206.121    24867217.0174
 00  2 26  1 51  0.0000000  0  9 24 26 17 23 06 30 10 05 13
  24301045.991    -2863280.345 8  -2214784.85145  24301045.736    24301058.1524
  23520161.998   -11645491.183 8  -8616265.87545  23520162.271    23520174.8144
  22048102.147   -22678409.402 9 -17655110.20147  22048101.647    22048112.4004
  23981170.888    -5364834.859 8  -4156718.93945  23981170.451    23981185.7664
  20477786.188   -28507518.607 9 -22199172.22048  20477786.154    20477794.6584
  21513856.597   -21486483.591 9 -16724039.92347  21513856.927    21513866.4204
  21705789.690   -20466901.875 9 -15659806.73947  21705788.985    21705798.6924
  23551121.736    -7076003.244 8  -5495205.16345  23551121.258    23551134.6694
  24870292.905    -4284187.013 8  -3331956.21045  24870293.084    24870303.7884
 00  2 26  1 51 30.0000000  0  9 24 26 17 23 06 30 10 05 13
  24315204.371    -2788878.147 8  -2156809.07545  24315204.085    24315216.4994
  23504589.585   -11727323.566 8  -8680031.14145  23504589.801    23504602.4564
  22038505.476   -22728839.728 9 -17694406.46847  22038505.001    22038515.7534
  23961678.210    -5467268.492 8  -4236537.16345  23961677.796    23961693.0084
  20471904.236   -28538428.268 9 -22223257.63648  20471904.196    20471912.7094
  21527547.840   -21414535.883 9 -16667976.81047  21527548.149    21527557.6184
  21719256.730   -20396131.878 9 -15604661.29247  21719256.052    21719265.7404
  23571162.467    -6970689.363 8  -5413142.53146  23571161.994    23571175.3804
  24873483.535    -4267419.878 8  -3318890.86445  24873483.766    24873494.4734
 00  2 26  1 52  0.0000000  0  9 24 26 17 23 06 30 10 05 13
  24329362.295    -2714477.243 8  -2098834.32346  24329362.054    24329374.5574
  23489051.629   -11808974.715 8  -8743655.17145  23489051.898    23489064.5704
  22028946.615   -22779071.370 9 -17733547.92247  22028946.148    22028956.8664
  23942222.527    -5569507.792 8  -4316203.94045  23942222.065    23942237.2364
  20466083.906   -28569014.227 9 -22247090.81648  20466083.875    20466092.3944
  21541329.036   -21342115.260 9 -16611545.20447  21541329.378    21541338.8734
  21732806.390   -20324928.213 9 -15549177.91747  21732805.702    21732815.3414
  23591221.992    -6865276.860 8  -5331003.06546  23591221.517    23591234.8724
  24876778.577    -4250103.771 8  -3305397.75745  24876778.824    24876789.4764
 00  2 26  1 52 30.0000000  0  8 24 26 17 23 06 30 10 05
  24343514.048    -2640109.106 8  -2040885.12646  24343513.846    24343526.3534
  23473544.228   -11890465.966 8  -8807154.62845  23473544.503    23473557.0124
  22019422.141   -22829122.488 9 -17772548.70447  22019421.672    22019432.3494
  23922800.385    -5671570.411 7  -4395732.99445  23922799.911    23922815.1804
  20460322.810   -28599288.821 9 -22270681.36748  20460322.783    20460331.2704
  21555191.287   -21269268.660 9 -16554781.65247  21555191.631    21555201.1494
  21746435.321   -20253307.715 9 -15493369.74347  21746434.617    21746444.2714
  23611295.662    -6759789.821 8  -5248805.49846  23611295.180    23611308.5634
 00  2 26  1 53  0.0000000  0  8 24 26 17 23 06 30 10 05
  24357661.511    -2565763.691 7  -1982953.64245  24357661.312    24357673.7964
  23458069.719   -11971784.333 8  -8870519.38445  23458069.986    23458082.4554
  22009936.671   -22878968.803 9 -17811389.90047  22009936.188    22009946.8114
  23903411.470    -5773458.075 8  -4475125.71845  23903411.043    23903426.4354
  20454628.663   -28629211.760 9 -22293997.91848  20454628.625    20454637.1114
  21569133.225   -21196003.321 9 -16497691.80747  21569133.550    21569143.0804
  21760146.098   -20181257.155 9 -15437226.45047  21760145.375    21760155.0364
  23631386.848    -6654210.312 8  -5166535.87946  23631386.401    23631399.8444
 00  2 26  1 53 30.0000000  0  8 24 26 17 23 06 30 10 05
  24371803.007    -2491449.353 7  -1925046.38045  24371802.772    24371815.3464
  23442632.050   -12052909.102 8  -8933733.28145  23442632.284    23442644.7484
  22000492.108   -22928599.858 9 -17850063.35947  22000491.637    22000502.2414
  23884054.591    -5875178.296 8  -4554387.94745  23884054.144    23884069.4744
  20449003.284   -28658773.251 9 -22317032.81848  20449003.240    20449011.7244
  21583150.855   -21122340.301 9 -16440292.07747  21583151.166    21583160.7464
  21773937.140   -20108784.593 9 -15380754.31647  21773936.457    21773946.0904
  23651496.226    -6548535.327 8  -5084191.86546  23651495.820    23651509.2454
 00  2 26  1 54  0.0000000  0  8 24 26 17 23 06 30 10 05
  24385935.329    -2417182.769 7  -1867176.35645  24385935.189    24385947.8954
  23427229.756   -12133847.871 8  -8996802.25045  23427229.887    23427242.2244
  21991087.955   -22978018.762 9 -17888571.50847  21991087.507    21991098.0424
  23864729.032    -5976734.219 8  -4633522.15545  23864728.583    23864743.7544
  20443446.107   -28687976.094 9 -22339788.25048  20443446.077    20443454.5654
  21597239.162   -21048305.898 9 -16382602.96747  21597239.492    21597249.0774
  21787806.788   -20035899.087 9 -15323960.42347  21787806.096    21787815.7684
  23671620.844    -6442780.180 8  -5001785.39146  23671620.468    23671633.9024
 00  2 26  1 54 30.0000000  0  8 24 26 17 23 06 30 10 05
  24400056.531    -2342974.373 7                  24400056.493    24400069.1624
  23411864.878   -12214590.000 8  -9059717.99345  23411865.014    23411877.4464
  21981723.315   -23027229.887 9 -17926917.74347  21981722.870    21981733.3704
  23845434.165    -6078128.459 8  -4712530.36145  23845433.760    23845448.8594
  20437959.490   -28716808.416 9 -22362254.95748  20437959.455    20437967.9634
  21611398.340   -20973899.144 9 -16324623.71447  21611398.650    21611408.2564
  21801755.324   -19962599.029 9 -15266843.49947  21801754.619    21801764.2524
  23691758.321    -6336957.968 8  -4919326.66445  23691757.936    23691771.4434
 00  2 26  1 55  0.0000000  0  8 24 26 17 23 06 30 10 05
  24414168.821    -2268814.523 7  -1751564.97455  24414168.563    24414181.4194
  23396539.672   -12295123.529 8  -9122471.19045  23396539.853    23396552.2594
  21972399.135     -459227.41245                  21972398.665    21972409.1264
  23826170.085    -6179361.044 8  -4791412.58045  23826169.596    23826184.7254
  20432542.914   -28745272.579 9 -22384434.78848  20432542.895    20432551.3744
  21625631.223   -20899104.937 9 -16266342.55947  21625631.527    21625641.1424
  21815783.672   -19888879.732 9 -15209399.89047  21815782.958    21815792.5454
  23711907.800    -6231072.469 8  -4836818.62145  23711907.298    23711920.8634
 00  2 26  1 55 30.0000000  0  8 24 26 17 23 06 30 10 05
  24428275.331    -2194684.737 7  -1693801.50045  24428275.136    24428287.9204
  23381257.620   -12375430.394 8  -9185047.76245  23381257.772    23381270.2094
  21963119.166     -652393.798 9   -497229.79647  21963118.370    21963128.6864
  23806941.877    -6280404.472 8  -4870147.38845  23806941.388    23806956.4804
  20427195.029   -28773375.748 9 -22406333.32648  20427194.987    20427203.4604
  21639940.597   -20823908.473 9 -16207747.93847  21639940.930    21639950.5824
  21829891.876   -19814740.562 9 -15151629.11047  21829891.181    21829900.7814
  23732069.556    -6125122.059 8  -4754260.00345  23732068.991    23732082.5984
 00  2 26  1 56  0.0000000  0  8 24 26 17 23 06 30 10 05
  24442375.484    -2120588.527 8  -1636064.17145  24442375.316    24442387.8104
  23366016.547   -12455522.077 8  -9247456.68645  23366016.704    23366029.0144
  21953876.644     -700960.758 9   -535074.08747  21953876.247    21953886.6554
  23787751.043    -6381251.549 8  -4948729.18245  23787750.503    23787765.5394
  20421912.668   -28801134.559 9 -22427963.53048  20421912.634    20421921.1054
  21654328.492   -20748299.882 9 -16148832.17647  21654328.820    21654338.4724
  21844076.610   -19740199.253 9 -15093544.96647  21844075.901    21844085.5044
  23752242.710    -6019111.592 8  -4671654.56045  23752242.265    23752255.8384
 00  2 26  1 56 30.0000000  0  8 24 26 17 23 06 30 10 05
  24456469.908    -2046521.910 8  -1578349.86345  24456469.828    24456482.2154
  23350815.681   -12535402.623 8  -9309701.08445  23350815.787    23350828.0554
  21944673.499     -749321.735 9   -572757.87347  21944673.399    21944683.8594
  23768595.083    -6481916.020 8  -5027168.69045  23768594.545    23768609.4454
  20416695.138   -28828552.738 9 -22449328.32348  20416695.106    20416703.5444
  21668795.916   -20672273.118 9 -16089590.57147  21668796.215    21668805.8894
  21858335.032   -19665270.804 9 -15035159.17147  21858334.320    21858343.9404
  23772425.832    -5913048.793 8  -4589008.32245  23772425.391    23772438.8944
 00  2 26  1 57  0.0000000  0  8 24 26 17 23 06 30 10 05
  24470556.200                                    24470556.126    24470568.3464
  23335648.050   -12615108.296 8  -9371809.22845  23335648.238    23335660.3444
  21935503.893     -797507.699 9   -610305.28447  21935503.817    21935514.2954
  23749468.522    -6582425.151 8  -5105487.16145  23749468.036    23749482.8784
  20411535.817   -28855665.093 9 -22470454.80148  20411535.788    20411544.2144
  21683336.389   -20595862.253 9 -16030049.66347  21683336.728    21683346.4044
  21872659.079   -19589997.313 9 -14976504.49547  21872658.394    21872668.0294
  23792612.313    -5806968.706 8  -4506348.62145  23792611.877    23792625.3254
 00  2 26  1 57 30.0000000  0  8 24 26 17 23 06 30 10 05
  24484634.476                                    24484634.361    24484646.4954
  23320515.103   -12694631.400 8  -9433775.09145  23320515.314    23320527.4124
  21926367.636     -845519.016 9   -647716.61147  21926367.462    21926377.9964
  23730374.462    -6682763.743 8  -5183672.73845  23730374.014    23730388.7024
  20406437.167   -28882458.741 9 -22491332.94048  20406437.118    20406445.5094
  21697949.978   -20519067.497 9 -15970209.62847  21697950.341    21697960.0064
  21887049.630   -19514374.583 8 -14917577.70047  21887048.911    21887058.5784
  23812802.584    -5700868.856 8  -4423673.53745  23812802.139    23812815.5294
 00  2 26  1 58  0.0000000  0  8 24 26 17 23 06 30 10 05
  24498704.149    -1824579.97818  -1405407.92455  24498703.960    24498716.1554
  23305418.140   -12773965.616 8  -9495593.79645  23305418.345    23305430.3534
  21917268.007     -893337.885 9   -684977.97547  21917267.761    21917278.2734
  23711311.349    -6782939.686 8  -5261731.56045  23711310.892    23711325.5894
  20401401.608   -28908920.596 9 -22511952.52948  20401401.564    20401409.9344
  21712637.580   -20441883.907 9 -15910066.60547  21712637.913    21712647.5964
  21901509.620   -19438386.508 8 -14858366.21947  21901508.921    21901518.6414
  23832998.713    -5594737.939 8  -4340974.25145  23832998.328    23833011.7044
 00  2 26  1 58 30.0000000  0  8 24 26 17 23 06 30 10 05
  24512768.422    -1750671.515 8  -1347816.90145  24512768.294    24512780.5224
  23290359.604   -12853097.663 8  -9557254.95045  23290359.850    23290371.8194
  21908207.124     -940953.155 9   -722080.69947  21908206.824    21908217.2984
  23692278.493    -6882956.703 8  -5339666.56545  23692277.988    23692292.6254
  20396431.307   -28935039.610 9 -22532304.98148  20396431.265    20396439.6204
  21727398.640   -20364314.171 9 -15849622.69847  21727398.975    21727408.6924
  21916041.332   -19362021.979 8 -14798861.39847  21916040.621    21916050.3084
  23853200.202    -5488578.876 8  -4258253.01345  23853199.793    23853213.3074
 00  2 26  1 59  0.0000000  0  8 24 26 17 23 06 30 10 05
  24526827.767    -1676789.336 8  -1290246.37845  24526827.720    24526839.9474
  23275341.679   -12932016.840 8  -9618750.24846  23275341.956    23275353.9174
  21899183.177     -988374.377 9   -759032.21847  21899182.841    21899193.2664
  23673277.285    -6982807.480 8  -5417472.03746  23673276.822    23673291.3144
  20391526.461   -28960814.496 9 -22552389.27848  20391526.420    20391534.7794
  21742231.383   -20286367.418 9 -15788885.00647  21742231.736    21742241.4514
  21930644.558   -19285281.512 9 -14739063.63647  21930643.851    21930653.5204
  23873406.881    -5382392.797 8  -4175510.74945  23873406.425    23873420.0274
 00  2 26  1 59 30.0000000  0  8 24 26 17 23 06 30 10 05
  24540881.058    -1602938.695 8  -1232700.42645  24540881.002    24540893.2584
  23260365.296   -13010717.782 8  -9680075.49645  23260365.524    23260377.4614
  21890194.711    -1035608.801 9   -795838.17647  21890194.354    21890204.7724
  23654307.927    -7082491.055 8  -5495147.24646  23654307.475    23654321.8714
  20386687.977   -28986240.799 9 -22572201.95748  20386687.930    20386696.2794
  21757136.510   -20208040.633 9 -15727851.18047  21757136.858    21757146.5954
  21945319.795   -19208162.922 8 -14678971.22647  21945319.092    21945328.7484
  23893620.720    -5276168.361 8  -4092738.60645  23893620.360    23893634.0324
 00  2 26  2  0  0.0000000  0  8 24 26 17 23 06 30 10 05
  24554930.040    -1529109.988 7  -1175171.57945  24554930.066    24554942.4244
  23245429.633   -13089204.925 8  -9741234.14646  23245429.794    23245441.6894
  21881241.651    -1082657.458 9   -832499.38247  21881241.262    21881251.6714
  23635372.430    -7181996.397 8  -5572683.57146  23635372.003    23635386.2744
  20381917.440   -29011309.895 9 -22591736.29148  20381917.402    20381925.7614
  21772113.798   -20129334.554 9 -15666521.80247  21772114.149    21772123.8884
  21960065.400   -19130673.964 8 -14618590.22747  21960064.694    21960074.3874
  23913843.600    -5169896.634 8  -4009929.58945  23913843.241    23913856.9094
 00  2 26  2  0 30.0000000  0  8 24 26 17 23 06 30 10 05
  24568974.699    -1455304.717 7  -1117660.99845  24568974.692    24568987.0584
  23230535.933   -13167471.343 8  -9802220.80746  23230536.095    23230547.9434
  21872323.601    -1129522.017 9   -869017.14047  21872323.176    21872333.5544
  23616475.383    -7281299.465 8  -5650062.26945  23616474.935    23616489.2354
  20377216.586   -29036012.948 9 -22610985.39448  20377216.566    20377224.8774
  21787162.676   -20050252.414 9 -15604899.38147  21787163.021    21787172.7764
  21974880.401   -19052820.477 8 -14557925.18247  21974879.727    21974889.4014
  23934073.459    -5063588.496 8  -3927092.20645  23934073.116    23934086.8214
 00  2 26  2  1  0.0000000  0  8 24 26 17 23 06 30 10 05
  24583011.738    -1381539.282 7  -1060181.48445  24583011.865    24583024.1374
  23215684.655   -13245514.078 8  -9863033.16346  23215684.876    23215696.7284
  21863439.641    -1176207.127 9   -905395.06947  21863439.236    21863449.5854
  23597623.853    -7380363.562 8  -5727254.77445  23597623.395    23597637.6284
  20372589.011   -29060330.896 9 -22629934.41148  20372588.990    20372597.2794
  21802283.174   -19970793.873 9 -15542983.65947  21802283.523    21802293.2574
  21989766.195   -18974595.156 8 -14496970.39847  21989765.512    21989775.2294
  23954310.758    -4957241.017 8  -3844224.18345  23954310.516    23954324.1354
 00  2 26  2  1 30.0000000  0  8 24 26 17 23 06 30 10 05
  24597039.187    -1307824.428 7  -1002741.38245  24597039.284    24597051.7074
  23200877.076   -13323327.066 8  -9923666.51846  23200877.307    23200889.2134
  21854592.686    -1222698.059 9   -941621.68747  21854592.261    21854602.5634
  23578821.101    -7479171.263 8  -5804247.47445  23578820.623    23578834.8824
  20368036.433   -29084254.845 9 -22648576.41748  20368036.382    20368044.6564
  21817475.360   -19890958.483 9 -15480774.29347  21817475.686    21817485.4504
  22004724.777   -18895987.477 8 -14435717.67047  22004724.077    22004733.8284
  23974555.991    -4850851.612 7  -3761323.47045  23974555.700    23974569.4434
 00  2 26  2  2  0.0000000  0  8 24 26 17 23 06 30 10 05
  24611065.011    -1234118.036 7   -945307.85845  24611065.144    24611077.4844
  23186123.392   -13400858.162 8  -9984080.21146  23186123.611    23186135.2964
  21845794.312                     -431191.58246  21845793.702    21845804.0354
  23560076.013    -7577676.148 8  -5881004.25145  23560075.569    23560089.7144
  20363567.474   -29107739.320 9 -22666875.98448  20363567.416    20363575.6484
  21832745.586   -19810712.870 9 -15418245.27047  21832745.924    21832755.7234
  22019764.420   -18816953.286 8 -14374132.60347  22019763.725    22019773.5214
  23994814.953    -4744389.972 8  -3678366.47645  23994814.665    23994828.6144
 00  2 26  2  2 30.0000000  0  7 24 26 23 06 30 10 05
  24625065.478    -1160545.304 7   -887978.46945  24625065.652    24625077.8254
  23171404.063   -13478208.614 8 -10044353.13946  23171404.261    23171415.9084
  23541365.081    -7676001.123 8  -5957620.84445  23541364.673    23541378.7614
  20359158.541   -29130908.113 9 -22684929.55848  20359158.488    20359166.7274
  21848071.015   -19730177.293 9 -15355490.28747  21848071.355    21848081.1564
  22034862.765   -18737611.133 8 -14312307.56147  22034862.102    22034871.8464
  24015062.498    -4637989.361 8  -3595457.03845  24015062.158    24015076.1134
 00  2 26  2  3  0.0000000  0  7 26 17 23 06 30 10 05
  23156724.658   -13555348.292 8 -10104461.83446  23156724.883    23156736.5844
  21828288.277     -443209.46347                  21828287.771    21828297.8844
  23522688.350    -7774147.043 8  -6034097.92146  23522687.922    23522701.8474
  20354813.478   -29153741.603 9 -22702721.85648  20354813.446    20354821.6854
  21863455.051   -19649333.568 9 -15292495.18847  21863455.385    21863465.1924
  22050024.146   -18657937.679 8 -14250224.36747  22050023.437    22050033.2074
  24035303.613    -4531622.471 8  -3512573.88545  24035303.186    24035317.2304
 00  2 26  2  3 30.0000000  0  7 26 17 23 06 30 10 05
  23142090.467   -13632250.632 8 -10164385.60046  23142090.704    23142102.2954
  21819591.529     -627118.21519   -478821.36047  21819590.942    21819601.0844
  23504040.959    -7872138.424 8  -6110454.54746  23504040.522    23504054.3864
  20350534.666   -29176226.874 9 -22720242.82148  20350534.628    20350542.8834
  21878901.077   -19568164.093 9 -15229246.27347  21878901.372    21878911.2344
  22065250.346   -18577923.100 8 -14187875.35247  22065249.656    22065259.4034
  24055543.150    -4425263.871 8  -3429697.18645  24055542.654    24055556.7274
 00  2 26  2  4  0.0000000  0  7 26 17 23 06 30 10 05
  23127500.517   -13708920.942 8 -10224128.54746  23127500.745    23127512.3374
  21810930.949     -672628.387 9   -514283.75447  21810930.637    21810940.8004
  23485419.792    -7969991.772 8  -6186703.63246  23485419.393    23485433.2324
  20346320.101   -29198374.409 9 -22737500.62248  20346320.056    20346328.3114
  21894408.543   -19486671.785 9 -15165745.80447  21894408.876    21894418.7264
  22080536.961   -18497591.593 8 -14125279.38647  22080536.263    22080546.0004
  24075779.167    -4318923.538 8  -3346834.73445  24075778.645    24075792.7954
 00  2 26  2  4 30.0000000  0  7 26 17 23 06 30 10 05
  23112967.718   -13785290.163 8 -10283636.88646  23112967.965    23112979.6724
  21802316.208     -717899.081 9   -549559.54147  21802315.871    21802326.0494
  23466838.114    -8067637.836 8  -6262791.19246  23466837.707    23466851.6104
  20342184.529   -29220106.893 9 -22754434.99748  20342184.479    20342192.7414
  21909992.912   -19404775.970 9 -15101930.91947  21909993.207    21910003.0144
  22095896.599   -18416875.968 8 -14062384.10847  22095895.900    22095905.6554
  24096025.545    -4212528.801 8  -3263929.87145  24096025.118    24096039.1544
 00  2 26  2  5  0.0000000  0  7 26 17 23 06 30 10 05
  23098498.000   -13861328.047 8 -10342887.03246  23098498.252    23098509.9464
  21793754.015     -762893.651 9   -584620.17247  21793753.658    21793763.8184
  23448301.283    -8165048.696 8  -6338695.49846  23448300.899    23448314.7234
  20338134.867   -29241387.746 9 -22771017.46148  20338134.822    20338143.0804
  21925660.506   -19322442.006 9 -15037774.61947  21925660.831    21925670.6634
  22111333.952   -18335752.064 8 -13999170.69047  22111333.283    22111342.9864
  24116291.086    -4106033.538 8  -3180946.65845  24116290.589    24116304.6044
 00  2 26  2  5 30.0000000  0  7 26 17 23 06 30 10 05
  23084079.589   -13937096.782 8 -10401927.45446  23084079.854    23084091.5144
  21785231.103     -807681.591 9   -619519.78047  21785230.719    21785240.8804
  23429801.540    -8262264.758 8  -6414448.02646  23429801.136    23429814.8204
  20334159.189   -29262280.049 9 -22787297.15048  20334159.154    20334167.3714
  21941399.866   -19239731.136 9 -14973324.61447  21941400.205    21941410.0514
  22126834.189   -18254297.933 8 -13935699.94947  22126833.532    22126843.2394
  24136562.558    -3999506.840 8  -3097938.94745  24136562.155    24136576.0104
 00  2 26  2  6  0.0000000  0  7 26 17 23 06 30 10 05
  23069712.044   -14012598.298 8 -10460759.66246  23069712.340    23069723.9064
  21776745.455     -852273.938 9   -654266.98647  21776745.063    21776755.1974
  23411343.991    -8359259.033 8  -6490027.76046  23411343.545    23411357.1514
  20330256.052   -29282791.466 9 -22803280.05248  20330256.007    20330264.2014
  21957209.445   -19156651.559 9 -14908587.31147  21957209.810    21957219.6404
  22142395.088   -18172524.976 8 -13871980.77447  22142394.409    22142404.1034
  24156836.530    -3892967.516 8  -3014921.40845  24156835.980    24156849.8704
 00  2 26  2  6 30.0000000  0  7 26 17 23 06 30 10 05
  23055395.953   -14087829.080 8 -10519380.91546  23055396.272    23055407.7804
  21768298.976     -896660.307 9   -688853.68447  21768298.531    21768308.6624
  23392928.593    -8456030.735 8  -6565434.04945  23392928.213    23392941.7154
  20326425.953   -29302918.759 9 -22818963.63048  20326425.878    20326434.0694
  21973084.670   -19073226.745 9 -14843580.99747  21973084.990    21973094.8964
  22158016.960   -18090431.361 8 -13808011.73847  22158016.294    22158025.9824
  24177110.319    -3786428.697 8  -2931904.26545  24177109.735    24177123.6824
 00  2 26  2  7  0.0000000  0  7 26 17 23 06 30 10 05
  23041131.531   -14162789.181 8 -10577791.25646  23041131.817    23041143.1664
  21759893.030     -940833.610 9   -723274.35847  21759892.570    21759902.7154
  23374556.806    -8552574.133 8  -6640662.43845  23374556.392    23374569.8584
  20322664.894   -29322682.834 9 -22834364.18348  20322664.832    20322673.0524
  21989020.371   -18989483.946 9 -14778326.90447  21989020.708    21989030.6494
  22173698.154   -18008026.194 8 -13743799.92746  22173697.478    22173707.1074
  24197381.507    -3679902.939 7  -2848897.28945  24197381.011    24197395.0364
 00  2 26  2  7 30.0000000  0  7 26 17 23 06 30 10 05
  23026916.064   -14237491.600 8 -10636000.79446  23026916.288    23026927.6794
  21751521.603     -984825.428 9   -757553.60347  21751521.145    21751531.2684
  23356229.559    -8648883.486 8  -6715708.45546  23356229.140    23356242.5614
  20318971.108   -29342093.564 9 -22849489.40048  20318971.059    20318979.2914
  22005010.664   -18905454.729 9 -14712849.62047  22005010.998    22005020.8994
  22189436.874   -17925318.750 8 -13679352.56946  22189436.173    22189445.8214
  24217644.609    -3573419.845 7  -2765923.58745  24217644.213    24217658.2234
 00  2 26  2  8  0.0000000  0  7 26 17 23 06 30 10 05
  23012748.399   -14311942.479 8 -10694014.33346  23012748.617    23012760.0054
  21743182.956    -1028645.035 9   -791698.66747  21743182.488    21743192.5934
  23337945.144    -8744968.010 8  -6790579.31046  23337944.707    23337958.0584
  20315346.082   -29361143.049 9 -22864333.13148  20315346.039    20315354.2384
  22021053.450   -18821149.534 8 -14647157.29347  22021053.792    22021063.6534
  22205234.351   -17842302.494 8 -13614664.60046  22205233.637    22205243.3004
  24237899.777    -3466978.399 8  -2682982.33345  24237899.481    24237913.4684
 00  2 26  2  8 30.0000000  0  7 26 17 23 06 30 10 05
  22998628.206   -14386143.316 8 -10751833.02446  22998628.511    22998639.9094
  21734874.893    -1072303.925 9   -825718.48847  21734874.400    21734884.5124
  23319703.239    -8840828.801 8  -6865275.82146  23319702.806    23319716.1194
  20311791.066   -29379824.823 9 -22878890.33448  20311791.020    20311799.2074
  22037146.983   -18736577.444 8 -14581256.98747  22037147.330    22037157.2164
  22221092.710   -17758966.463 8 -13549727.44246  22221091.979    22221101.6534
  24258148.010    -3360573.118 7  -2600069.24745  24258147.634    24258161.8784
 00  2 26  2  9  0.0000000  0  7 26 17 23 06 30 10 05
  22984556.016   -14460092.875 8 -10809455.91846  22984556.353    22984567.6274
  21726595.867    -1115810.191 9   -859619.38547  21726595.381    21726605.4424
  23301504.904    -8936460.512 8  -6939793.84846  23301504.485    23301517.7004
  20308305.132   -29398143.394 9 -22893164.52348  20308305.093    20308313.2864
  22053293.294   -18651728.098 8 -14515140.64447  22053293.662    22053303.5344
  22237011.247   -17675313.602 8 -13484543.41246  22237010.578    22237020.2614
  24278393.038    -3254184.484 7  -2517169.15745  24278392.798    24278407.1354
 00  2 26  2  9 30.0000000  0  7 26 17 23 06 30 10 05
  22970531.509   -14533791.711 8 -10866883.44546  22970531.792    22970543.0914
  21718345.352    -1159166.427 9   -893403.36847  21718344.883    21718354.9034
  23283349.830    -9031865.173 8  -7014134.96146  23283349.413    23283362.5694
  20304891.906   -29416079.874 9 -22907140.97348  20304891.876    20304900.0594
  22069494.932   -18566588.049 8 -14448797.79247  22069495.276    22069505.1604
  22252991.168   -17591339.146 8 -13419108.77846  22252990.475    22253000.0794
  24298635.755    -3147809.010 7  -2434279.31245  24298635.465    24298649.8734
 00  2 26  2 10  0.0000000  0  7 26 17 23 06 30 10 05
  22956558.040   -14607222.485 8 -10924102.09346  22956558.265    22956569.4994
  21710126.516    -1202356.178 9   -927057.62747  21710126.063    21710136.0664
  23265238.464    -9127040.879 8  -7088297.67446  23265238.031    23265251.0694
  20301552.202   -29433630.053 9 -22920816.41148  20301552.158    20301560.3454
  22085754.750   -18481141.970 8 -14382216.48147  22085755.080    22085765.0534
  22269033.167   -17507038.178 8 -13353419.72646  22269032.449    22269042.0364
  24318878.710    -3041432.434 7  -2351388.59845  24318878.380    24318892.8584
 00  2 26  2 10 30.0000000  0  7 26 17 23 06 30 10 05
  22942637.340   -14680375.632 8 -10981104.41346  22942637.562    22942648.7774
  21701940.283    -1245374.745 9   -960578.49247  21701939.820    21701949.8274
  23247170.405    -9221988.788 8  -7162282.88546  23247169.990    23247182.9444
  20298282.825   -29450810.802 9 -22934203.98148  20298282.771    20298290.9564
  22102072.526   -18395391.407 8 -14315397.89747  22102072.863    22102082.8674
  22285135.394   -17422420.373 8 -13287483.78946  22285134.673    22285144.2734
  24339119.545    -2935067.114 7  -2268506.66045  24339119.109    24339133.7044
 00  2 26  2 11  0.0000000  0  7 26 17 23 06 30 10 05
  22928769.478   -14753251.084 8 -11037890.33946  22928769.703    22928780.8344
  21693787.180    -1288218.989 9   -993963.52747  21693786.744    21693796.7814
  23229143.632    -9316719.478 8  -7236098.82946  23229143.209    23229156.1594
  20295083.989   -29467620.709 9 -22947302.58048  20295083.926    20295092.1214
  22118450.276   -18309325.966 8 -14248333.93447  22118450.595    22118460.6144
  22301293.800   -17337507.326 8 -13221317.80446  22301293.066    22301302.6774
  24359354.104    -2828734.366 8  -2185650.12145  24359353.540    24359368.3054
 00  2 26  2 11 30.0000000  0  7 26 17 23 06 30 10 05
  22914957.556   -14825832.822 8 -11094447.39846  22914957.764    22914968.8684
  21685668.008    -1330885.256 9  -1027209.87047  21685667.555    21685677.6154
  23211162.176    -9411211.407 8  -7309728.71446  23211161.767    23211174.7534
  20291960.480   -29484034.650 9 -22960092.63348  20291960.428    20291968.6394
  22134889.680   -18222936.176 8 -14181017.24147  22134890.004    22134900.0874
  22317509.391   -17252294.187 8 -13154917.95846  22317508.640    22317518.2054
  24379579.098    -2722451.812 8  -2102832.69245  24379578.569    24379593.3854
 00  2 26  2 12  0.0000000  0  7 26 17 23 06 30 10 05
  22901205.595   -14898099.602 8 -11150759.02446  22901205.795    22901216.8154
  21677586.825    -1373351.600 9  -1060300.42647  21677586.360    21677596.4464
  23193227.912    -9505455.900 8  -7383165.81446  23193227.493    23193240.4934
  20288914.001   -29500043.743 9 -22972567.21948  20288913.947    20288922.1504
  22151391.948   -18136216.276 8 -14113443.34047  22151392.280    22151402.3684
  22333782.970   -17166775.682 8 -13088280.18946  22333782.224    22333791.9014
  24399795.052    -2616216.518 8  -2020052.07845  24399794.563    24399809.4154
 00  2 26  2 12 30.0000000  0  7 26 17 23 06 30 10 05
  22887512.291   -14970058.143 8 -11206830.47446  22887512.455    22887523.3654
  21669545.916    -1415606.312 9  -1093226.07647  21669545.476    21669555.5254
  23175341.332    -9599450.208 8  -7456407.98046  23175340.895    23175353.7334
  20285947.282   -29515633.909 9 -22984715.37248  20285947.231    20285955.4034
  22167958.148   -18049160.741 8 -14045607.90847  22167958.492    22167968.5264
  22350114.406   -17080953.587 8 -13021405.84146  22350113.688    22350123.3354
  24419998.449    -2510047.291 8  -1937322.94845  24419997.967    24420012.8694
 00  2 26  2 13  0.0000000  0  7 26 17 23 06 30 10 05
  22873878.197   -15041705.274 8 -11262659.26246  22873878.334    22873889.2784
  21661547.045    -1457640.621 9  -1125979.99447  21661546.573    21661556.5794
  23157504.567    -9693182.036 8  -7529445.61446  23157504.154    23157516.9374
  20283063.051   -29530790.554 9 -22996525.72148  20283063.008    20283071.1414
  22184588.508   -17961767.840 8 -13977509.59547  22184588.849    22184598.8464
  22366506.658   -16994811.994 8 -12954282.53846  22366505.900    22366515.5354
  24440190.136    -2403939.556 8  -1854641.74145  24440189.749    24440204.5714
 00  2 26  2 13 30.0000000  0  7 26 17 23 06 30 10 05
  22860305.412   -15113029.957 8 -11318236.77746  22860305.640    22860316.5074
  21653589.908    -1499455.521 9  -1158562.93747  21653589.432    21653599.4054
  23139716.022    -9786660.386 8  -7602285.71946  23139715.588    23139728.3974
  20280258.223   -29545529.967 9 -23008010.94648  20280258.169    20280266.2904
  22201278.409   -17874061.600 8 -13909167.11447  22201278.744    22201288.7834
  22382959.855   -16908349.398 8 -12886909.10746  22382959.150    22382968.8804
  24460371.645    -2297885.669 8  -1772002.47545  24460371.258    24460385.9384
 00  2 26  2 14  0.0000000  0  7 26 17 23 06 30 10 05
  22846792.568   -15184040.062 8 -11373569.17946  22846792.705    22846803.5574
  21645672.850    -1541059.627 9  -1190981.63547  21645672.353    21645682.3154
  23121970.135    -9879915.242 8  -7674951.69446  23121969.694    23121982.4154
  20277529.958   -29559867.220 9 -23019182.80548  20277529.898    20277537.9914
  22218024.679   -17786059.367 8 -13840593.98447  22218025.031    22218035.0754
  22399471.643   -16821579.466 8 -12819296.19846  22399470.959    22399480.6774
  24480543.671    -2191882.029 8  -1689402.35545  24480543.192    24480557.9474
 00  2 26  2 14 30.0000000  0  7 26 17 23 06 30 10 05
  22833339.500   -15254735.501 8 -11428656.38546  22833339.648    22833350.5484
  21637791.542    -1582475.691 9  -1223253.80647  21637791.069    21637801.0094
  23104266.844    -9972946.138 8  -7747443.14646  23104266.439    23104279.0344
  20274876.488   -29573811.060 9 -23030048.10648  20274876.425    20274884.5134
  22234825.981   -17697768.274 8 -13771795.76647  22234826.310    22234836.3564
  22416039.716   -16734514.281 8 -12751453.20146  22416038.979    22416048.6694
  24500706.889    -2085924.319 7  -1606837.99145  24500706.344    24500720.9274
 00  2 26  2 15  0.0000000  0  8 26 17 23 06 30 10 05 22
  22819947.514   -15325109.897 8 -11483493.43946  22819947.699    22819958.5354
  21629941.202    -1623729.245 9  -1255399.35247  21629940.733    21629950.5854
  23086601.966   -10065775.152 8  -7819777.27646  23086601.588    23086614.0874
  20272293.890   -29587382.646 9 -23040623.33748  20272293.813    20272301.8854
  22251676.136   -17609220.437 8 -13702797.48047  22251676.455    22251686.4944
  22432658.156   -16647183.291 8 -12683403.09446  22432657.455    22432667.1924
  24520862.120    -1980008.452 7  -1524306.26945  24520861.661    24520875.9884
  24442783.689    -2696756.927 7  -2089061.21045  24442783.183    24442796.3524
 00  2 26  2 15 30.0000000  0  8 26 17 23 06 30 10 05 22
  22806622.549   -15395132.528 8 -11538056.39346  22806622.714    22806633.5154
  21622126.655    -1664794.924 9  -1287398.49947  21622126.174    21622135.9704
  23068979.993   -10158378.646 8  -7891935.67346  23068979.558    23068991.9894
  20269788.114   -29600550.555 9 -23050884.01448  20269788.068    20269796.1224
  22268577.873   -17520401.490 8 -13633587.94647  22268578.174    22268588.1964
  22449326.316   -16559591.025 8 -12615149.39346  22449325.676    22449335.4324
  24541014.838    -1874105.779 7  -1441784.84744  24541014.038    24541028.7464
  24430133.097    -2763235.539 7  -2140862.62445  24430132.571    24430145.7964
 00  2 26  2 16  0.0000000  0  8 26 17 23 06 30 10 05 22
  22793364.687   -15464802.462 8 -11592344.54146  22793364.882    22793375.6364
  21614348.994    -1705666.543 9  -1319246.43447  21614348.508    21614358.2694
  23051406.935   -10250724.936 8  -7963893.65446  23051406.544    23051418.9124
  20267363.568   -29613291.418 9 -23060811.93348  20267363.506    20267371.5704
  22285534.262   -17431295.363 8 -13564154.63047  22285534.595    22285544.5714
  22466046.475   -16471726.264 8 -12546683.36446  22466045.821    22466055.5884
  24561165.752    -1768211.890 7  -1359270.25844  24561165.209    24561179.9254
  24417559.148    -2829311.283 7  -2192350.09945  24417558.666    24417571.8444
 00  2 26  2 16 30.0000000  0  8 26 17 23 06 30 10 05 22
  22780174.100   -15534118.647 8 -11646357.02246  22780174.304    22780185.0414
  21606609.814    -1746336.175 9  -1350936.99347  21606609.316    21606618.9904
  23033884.791   -10342803.966 8  -8035643.37946  23033884.464    23033896.7574
  20265018.878   -29625612.541 9 -23070412.78448  20265018.819    20265026.8834
  22302543.688   -17341910.760 8 -13494504.32347  22302544.000    22302553.9454
  22482818.753   -16383587.470 8 -12478003.80346  22482818.099    22482827.8604
  24581312.586    -1662339.748 7  -1276772.59145  24581312.181    24581326.8524
  24405062.931    -2894979.467 7  -2243520.01845  24405062.427    24405075.3904
 00  2 26  2 17  0.0000000  0  8 26 17 23 06 30 10 05 22
  22767050.034   -15603085.216 8 -11700097.06646  22767050.299    22767061.0444
  21598908.669    -1786805.573 9  -1382471.52747  21598908.187    21598917.8084
  23016413.705   -10434614.986 8  -8107184.26446  23016413.329    23016425.5644
  20262754.755   -29637510.340 9 -23079683.77748  20262754.707    20262762.7784
  22319603.008   -17252263.516 8 -13424649.36447  22319603.310    22319613.3254
  22499642.174   -16295180.218 8 -12409115.03746  22499641.472    22499651.2274
  24601452.628    -1556503.589 7  -1194302.96345  24601452.288    24601466.9114
  24392647.999    -2960220.811 7  -2294357.33945  24392647.332    24392660.3504
 00  2 26  2 17 30.0000000  0  8 26 17 23 06 30 10 05 22
  22753989.122   -15671720.585 8 -11753579.04046  22753989.341    22754000.1334
  21591242.595    -1827090.592 9  -1413862.39347  21591242.124    21591251.7494
  22998995.108   -10526149.534 8  -8178509.69546  22998994.718    22999006.9784
  20260569.562   -29648993.527 9 -23088631.69248  20260569.510    20260577.5884
  22336712.794   -17162351.276 8 -13354587.92447  22336713.085    22336723.1184
  22516518.899   -16206492.542 8 -12340007.77846  22516518.159    22516527.9384
  24621582.199    -1450722.165 8  -1111876.02145  24621581.933    24621596.6464
  24380315.735    -3025026.930 7  -2344855.53245  24380315.049    24380327.9794
 00  2 26  2 18  0.0000000  0  8 26 17 23 06 30 10 05 22
  22740990.241   -15740030.021 8 -11806807.04846  22740990.420    22741001.1784
  21583607.727    -1867211.779 9  -1445125.60147  21583607.260    21583616.8804
  22981628.549   -10617410.324 8  -8249621.79746  22981628.160    22981640.4214
  20258461.851   -29660069.547 9 -23097262.34148  20258461.799    20258469.8844
  22353874.686   -17072165.190 8 -13284313.09947  22353874.984    22353885.0194
  22533450.938   -16117514.112 8 -12270673.96346  22533450.197    22533460.0194
  24641697.754    -1345014.684 7  -1029506.69545  24641697.437    24641712.2774
  24368064.831    -3089405.543 8  -2395020.58645  24368064.160    24368077.0494
 00  2 26  2 18 30.0000000  0  8 26 17 23 06 30 10 05 22
  22728053.206   -15808014.031 8 -11859781.49846  22728053.446    22728064.0514
  21576002.956    -1907174.680 9  -1476265.47547  21576002.494    21576012.1264
  22964312.902   -10708403.857 8  -8320525.66746  22964312.548    22964324.7034
  20256432.148   -29670735.587 9 -23105573.52148  20256432.104    20256440.1894
  22371087.125   -16981713.416 8 -13213831.23947  22371087.408    22371097.4534
  22550434.863   -16028263.030 8 -12201127.67746  22550434.129    22550443.8834
  24661797.728    -1239388.996 8   -947201.10145  24661797.433    24661812.3514
  24355895.187    -3153357.025 8  -2444852.79745  24355894.525    24355907.4674
 00  2 26  2 19  0.0000000  0  7 26 17 23 06 30 10 22
  22715178.247   -15875671.975 8 -11912501.85446  22715178.489    22715188.9824
  21568426.613    -1946988.175 9  -1507288.92747  21568426.170    21568435.8154
  22947049.699   -10799121.901 8  -8391214.86846  22947049.358    22947061.4624
  20254482.711   -29680979.946 9 -23113556.11948  20254482.663    20254490.7194
  22388352.232   -16890984.573 8 -13143133.48047  22388352.556    22388362.6764
  22567470.730   -15938739.570 8 -12131369.14746  22567469.956    22567479.6714
  24343808.171    -3216874.500 8  -2494346.82445  24343807.563    24343820.5184
 00  2 26  2 19 30.0000000  0  7 26 17 23 06 30 10 22
  22702365.870   -15943000.990 8 -11964965.90146  22702366.110    22702376.5794
  21560879.852    -1986646.005 9  -1538191.08647  21560879.424    21560889.1184
  22929838.280   -10889567.403 8  -8461691.68546  22929837.964    22929850.0954
  20252613.430   -29690803.106 9 -23121210.51648  20252613.377    20252621.4064
  22405670.473   -16799976.490 8 -13072218.14747  22405670.827    22405680.9924
  22584557.946   -15848945.499 8 -12061399.76546  22584557.186    22584566.9814
  24331801.653    -3279969.475 8  -2543511.64045  24331801.044    24331813.9374
 00  2 26  2 20  0.0000000  0  7 26 17 23 06 30 10 22
  22689618.904   -16009985.927 8 -12017161.82946  22689619.104    22689629.6684
  21553367.769    -2026121.979 9  -1568951.54647  21553367.344    21553377.0764
  22912679.181   -10979738.318 8  -8531954.53346  22912678.843    22912691.0404
  20250825.045   -29700201.176 9 -23128533.67048  20250824.986    20250833.0014
  22423039.869   -16708699.810 8 -13001093.50447  22423040.192    22423050.3774
  22601694.467   -15758892.273 8 -11991228.44446  22601693.733    22601703.5694
  24319875.489    -3342641.414 8  -2592346.81445  24319874.881    24319887.7234
 00  2 26  2 20 30.0000000  0  7 26 17 23 06 30 10 22
  22676939.212   -16076617.471 8 -12069082.39546  22676939.462    22676950.0334
  21545893.586    -2065398.912 9  -1599556.90447  21545893.169    21545902.9274
  22895574.377   -11069623.985 8  -8601995.10246  22895574.004    22895586.1724
  20249116.619   -29709178.863 9 -23135529.24848  20249116.558    20249124.5664
  22440455.122   -16617182.102 8 -12929781.03746  22440455.446    22440465.6124
  22618879.483   -15668584.477 8 -11920858.74746  22618878.776    22618888.5304
  24308029.973    -3404889.097 8  -2640851.39345  24308029.392    24308042.0914
 00  2 26  2 21  0.0000000  0  7 26 17 23 06 30 10 22
  22664329.537   -16142881.685 8 -12120716.73646  22664329.742    22664340.3094
  21538458.423    -2104470.626 9  -1630002.35347  21538458.006    21538467.7814
  22878523.945   -11159224.548 8  -8671813.53946  22878523.508    22878535.5734
  20247485.533   -29717750.288 9 -23142208.26648  20247485.497    20247493.4954
  22457914.110   -16525434.572 8 -12858289.48946  22457914.459    22457924.6194
  22636113.628   -15578018.652 8 -11850288.00046  22636112.915    22636122.6674
  24296264.087    -3466718.834 7  -2689030.30545  24296263.407    24296276.0134
 00  2 26  2 21 30.0000000  0  7 26 17 23 06 30 10 22
  22651788.682   -16208783.708 8 -12172068.84046  22651788.893    22651799.4124
  21531063.004    -2143333.755 9  -1660285.27547  21531062.605    21531072.3634
  22861526.672   -11248545.174 8  -8741413.85046  22861526.215    22861538.1724
  20245929.123   -29725929.240 9 -23148581.46048  20245929.065    20245937.0704
  22475412.383   -16433480.987 8 -12786637.38246  22475412.706    22475422.8664
  22653393.728   -15487210.852 8 -11779528.70246  22653393.042    22653402.8614
  24284576.845    -3528134.720 7  -2736886.70845  24284576.138    24284588.9314
 00  2 26  2 22  0.0000000  0  7 26 17 23 06 30 10 22
  22639315.424   -16274330.425 8 -12223144.09046  22639315.668    22639326.0814
  21523706.557    -2181992.089 9  -1690408.60847  21523706.148    21523715.8464
  22844582.611   -11337585.909 8  -8810796.05746  22844582.175    22844594.0954
  20244447.447   -29733715.295 9 -23154648.50348  20244447.391    20244455.3984
  22492947.906   -16341330.996 8 -12714832.24546  22492948.266    22492958.4324
  22670719.634   -15396162.616 8 -11708582.05346  22670718.958    22670728.8234
  24272967.852    -3589140.141 7  -2784423.30845  24272967.114    24272979.7304
 00  2 26  2 22 30.0000000  0  7 26 17 23 06 30 10 22
  22626909.407   -16339524.375 8 -12273944.45546  22626909.607    22626919.9984
  21516386.098    -2220461.515 9  -1720384.73747  21516385.656    21516395.3114
  22827689.962   -11426356.292 8  -8879967.61446  22827689.590    22827701.4754
  20243042.771   -29741096.755 9 -23160400.27348  20243042.713    20243050.7354
  22510522.996   -16248973.562 8 -12642865.46446  22510523.369    22510533.5124
  22688091.123   -15304874.979 8 -11637448.84846  22688090.422    22688100.3404
  24261438.258    -3649727.532 7  -2831634.13845  24261437.636    24261450.1644
 00  2 26  2 23  0.0000000  0  7 26 17 23 06 30 10 22
  22614570.927   -16404363.271 8 -12324468.16246  22614571.128    22614581.4424
  21509100.644    -2258746.885 9  -1750217.44847  21509100.190    21509109.8284
  22810845.928   -11514871.565 8  -8948940.39846  22810845.540    22810857.3634
  20241716.872   -29748064.206 9 -23165829.43148  20241716.831    20241724.8434
  22528143.841   -16156375.689 8 -12570711.31946  22528144.200    22528154.2934
  22705507.948   -15213348.703 8 -11566129.68946  22705507.244    22705517.1934
  24249991.980    -3709877.525 7  -2878504.12145  24249991.410    24250004.0344
 00  2 26  2 23 30.0000000  0  7 26 17 23 06 30 10 22
  22602298.717   -16468853.821 8 -12374720.41946  22602298.954    22602309.1654
  21501850.394    -2296846.911 9  -1779905.73147  21501849.929    21501859.5524
  22794049.646   -11603135.818 8  -9017717.59146  22794049.239    22794061.0224
  20240471.292   -29754609.620 9 -23170929.72748  20240471.263    20240479.2524
  22545812.500   -16063526.388 8 -12498361.25846  22545812.859    22545822.9804
  22722969.525   -15121587.324 8 -11494627.34246  22722968.866    22722978.8084
  24238629.848    -3769585.016 7  -2925029.27945  24238629.157    24238642.0004
 00  2 26  2 24  0.0000000  0  7 26 17 23 06 30 10 22
  22590096.483   -16532976.761 8 -12424686.22746  22590096.702    22590106.9164
  21494635.926    -2334758.911 9  -1809447.49847  21494635.464    21494645.0674
  22777302.137   -11691143.975 8  -9086295.22346  22777301.732    22777313.4584
  20239310.442   -29760710.010 9 -23175683.25548  20239310.417    20239318.3944
  22563531.485   -15970412.345 8 -12425804.90846  22563531.862    22563542.0374
  22740474.994   -15029595.921 8 -11422945.74846  22740474.317    22740484.1884
  24227353.276    -3828842.642 7  -2971203.90245  24227352.523    24227365.4574
 00  2 26  2 24 30.0000000  0  7 26 17 23 06 30 10 22
  22577967.884   -16596712.285 8 -12474350.13246  22577968.128    22577978.4134
  21487457.599    -2372480.992 9  -1838841.27647  21487457.143    21487466.6874
  22760607.730   -11778873.010 8  -9154655.37346  22760607.320    22760618.9944
  20238234.798   -29766362.473 9 -23180087.75048  20238234.742    20238242.7214
  22581302.356   -15877026.023 8 -12353036.39646  22581302.729    22581312.9404
  22758022.491   -14937383.603 8 -11351092.01646  22758021.749    22758031.6704
  24216164.449    -3887639.010 7  -3017019.10945  24216163.669    24216176.8044
 00  2 26  2 25  0.0000000  0  7 26 17 23 06 30 10 22
  22565912.913   -16660060.998 8 -12523712.66446  22565913.154    22565923.4354
  21480315.416    -2410013.216 9  -1868087.10047  21480314.958    21480324.4644
  22743970.398   -11866302.504 8  -9222782.11346  22743969.998    22743981.5594
  20237243.208   -29771573.242 9 -23184148.06448  20237243.168    20237251.1274
  22599121.084   -15783388.461 8 -12280072.10246  22599121.444    22599131.6354
  22775613.349   -14844943.120 8 -11279060.49446  22775612.622    22775622.5454
  24205060.923    -3945987.546 7  -3062485.33445  24205060.206    24205073.4304
 00  2 26  2 25 30.0000000  0  7 26 17 23 06 30 10 22
  22553933.619   -16723012.162 8 -12572765.42046  22553933.877    22553944.0834
  21473209.139    -2447356.518 9  -1897185.71347  21473208.707    21473218.2024
  22727392.451   -11953419.403 8  -9290665.27746  22727392.044    22727403.5524
  20236337.647   -29776331.824 9 -23187856.02848  20236337.585    20236345.5554
  22616981.103   -15689533.967 8 -12206938.76546  22616981.479    22616991.6584
  22793248.782   -14752268.780 8 -11206846.74546  22793248.062    22793257.9324
  24194042.275    -4003890.297 7  -3107604.19945  24194041.653    24194054.7974
 00  2 26  2 26  0.0000000  0  7 26 17 23 06 30 10 22
  22542032.416   -16785552.916 8 -12621498.36746  22542032.656    22542042.8094
  21466137.491    -2484518.014 9  -1926142.65947  21466137.073    21466146.5344
  22710874.101   -12040223.118 8  -9358304.39146  22710873.730    22710885.2294
  20235519.160   -29780633.049 9 -23191207.60448  20235519.112    20235527.0664
  22634881.014   -15595469.645 8 -12133641.92146  22634881.348    22634891.5414
  22810929.855   -14659354.300 8 -11134445.86446  22810929.122    22810938.9244
  24183109.136    -4061344.749 8  -3152373.73245  24183108.472    24183121.4464
 00  2 26  2 26 30.0000000  0  7 26 17 23 06 30 10 22
  22530210.246   -16847678.321 8 -12669907.65746  22530210.510    22530220.6294
  21459099.356    -2521503.754 9  -1954962.65347  21459098.925    21459108.3194
  22694412.408   -12126729.177 8  -9425711.56246  22694412.076    22694423.5664
  20234784.952   -29784491.211 9 -23194213.94548  20234784.910    20234792.8344
  22652819.686   -15501201.706 8 -12060186.42146  22652819.989    22652830.1724
  22828659.392   -14566185.048 8 -11061846.46346  22828658.659    22828668.4494
  24172261.035    -4118351.306 8  -3196794.26745  24172260.432    24172273.3024
 00  2 26  2 27  0.0000000  0  7 26 17 23 06 30 10 22
  22518467.085   -16909388.322 8 -12717993.24646  22518467.330    22518477.5234
  21452093.262    -2558320.961 9  -1983651.31047  21452092.825    21452102.2014
  22678001.706   -12212967.575 8  -9492910.15946  22678001.337    22678012.8464
  20234136.097   -29787901.015 9 -23196870.91348  20234136.049    20234143.9734
  22670796.291   -15406734.370 8 -11986575.55246  22670796.554    22670806.7334
  22846436.920   -14472763.429 8 -10989050.41446  22846436.241    22846446.0374
  24161499.486    -4174903.769 8  -3240860.95945  24161498.792    24161511.5114
 00  2 26  2 27 30.0000000  0  7 26 17 23 06 30 10 22
  22506804.994   -16970672.745 8 -12765747.23046  22506805.223    22506815.4274
  21445120.106    -2594965.095 9  -2012205.10347  21445119.653    21445129.0434
  22661639.665   -12298949.900 8  -9559909.22646  22661639.304    22661650.7974
  20233573.483   -29790857.500 9 -23199174.63948  20233573.429    20233581.3504
  22688812.410   -15312059.163 8 -11912802.69046  22688812.672    22688822.8234
  22864257.313   -14379116.497 8 -10916078.79246  22864256.644    22864266.4974
  24150825.941    -4230993.503 8  -3284567.08945  24150825.272    24150837.9164
 00  2 26  2 28  0.0000000  0  7 26 17 23 06 30 10 22
  22495224.262   -17031529.427 8 -12813167.91646  22495224.490    22495234.5564
  21438181.785    -2631426.038 9  -2040616.15047  21438181.306    21438190.6764
  22645330.397   -12384655.423 8  -9626692.61446  22645330.035    22645341.4404
  20233096.779   -29793362.576 9 -23201126.61948  20233096.739    20233104.6504
  22706869.848   -15217166.349 8 -11838860.26646  22706870.151    22706880.3264
  22882117.959   -14285258.203 8 -10842942.46146  22882117.260    22882127.1474
  24140239.250    -4286626.568 8  -3327917.36745  24140238.640    24140250.9844
 00  2 26  2 28 30.0000000  0  7 26 17 23 06 30 10 22
  22483724.185   -17091962.448 8 -12860258.49746  22483724.422    22483734.3544
  21431277.947    -2667705.618 9  -2068885.87847  21431277.475    21431286.8374
  22629077.888   -12470062.934 8  -9693243.77946  22629077.476    22629088.8314
  20232706.463   -29795413.681 9 -23202724.85948  20232706.389    20232714.3064
  22724968.220   -15122058.700 8 -11764750.43646  22724968.492    22724978.7444
  22900017.272   -14191197.035 8 -10769648.05746  22900016.539    22900026.3994
  24129741.320    -4341792.810 8  -3370903.87945  24129740.708    24129753.0244
 00  2 26  2 29  0.0000000  0  7 26 17 23 06 30 10 22
  22472302.806   -17151981.986 8 -12907026.86446  22472302.989    22472312.8754
  21424409.849    -2703797.434 9  -2097009.29347  21424409.370    21424418.7404
  22612886.972   -12555145.909 8  -9759542.04846  22612886.575    22612897.9764
  20232403.736   -29797004.332 9 -23203964.31148  20232403.659    20232411.5614
  22743105.326   -15026747.401 8 -11690481.91446  22743105.615    22743115.8914
  22917954.226   -14096937.295 8 -10696198.92046  22917953.511    22917963.4154
  24119332.848    -4396489.022 8  -3413524.13245  24119332.264    24119344.6054
 00  2 26  2 29 30.0000000  0  7 26 17 23 06 30 10 22
  22460958.544   -17211595.570 8 -12953478.88046  22460958.702    22460968.7134
  21417580.284    -2739686.435 9  -2124974.65847  21417579.828    21417589.2214
  22596761.773   -12639883.483 8  -9825571.17046  22596761.418    22596772.7904
  20232186.562   -29798145.350 9 -23204853.38848  20232186.509    20232194.4234
  22761279.793   -14931240.376 8 -11616060.87846  22761280.073    22761290.3524
  22935929.923   -14002473.840 8 -10622591.04746  22935929.236    22935939.1934
  24109011.843    -4450725.775 8  -3455786.35345  24109011.250    24109023.6834
 00  2 26  2 30  0.0000000  0  7 26 17 23 06 30 10 22
  22449691.081   -17270806.030 8 -12999616.78846  22449691.243    22449701.2814
  21410787.761    -2775380.857 9  -2152788.41147  21410787.330    21410796.6744
  22580701.069   -12724282.700 8  -9891336.67046  22580700.687    22580711.9454
  20232053.632   -29798843.707 9 -23205397.54548  20232053.591    20232061.4834
  22779489.427   -14835548.084 8 -11541495.47946  22779489.727    22779499.9474
  22953948.173   -13907787.285 8 -10548809.31846  22953947.503    22953957.4044
  24098778.954    -4504499.601 8  -3497687.87345  24098778.352    24098790.5574
 00  2 26  2 30 30.0000000  0  7 26 17 23 06 30 10 22
  22438497.184   -17329630.367 8 -13045453.83346  22438497.341    22438507.3144
  21404029.625    -2810895.101 9  -2180461.76647  21404029.179    21404038.4484
  22564698.875   -12808374.181 8  -9956862.37546  22564698.515    22564709.6324
  20232004.558   -29799101.508 9 -23205598.40548  20232004.505    20232012.3844
  22797734.948   -14739667.698 8 -11466783.51946  22797735.226    22797745.4424
  22972008.960   -13812877.632 8 -10474853.75446  22972008.220    22972018.1144
  24088636.334    -4557798.696 7  -3539219.46445  24088635.675    24088647.9374
 00  2 26  2 31  0.0000000  0  7 26 17 23 06 30 10 22
  22427377.945   -17388062.115 8 -13090984.96446  22427378.129    22427387.9864
  21397307.741    -2846218.620 9  -2207986.50347  21397307.292    21397316.4994
  22548753.216   -12892168.093 8 -10022156.19046  22548752.854    22548764.0004
  20232038.501   -29798922.975 9 -23205459.26648  20232038.451    20232046.3344
  22816015.251   -14643604.286 8 -11391928.95846  22816015.491    22816025.7124
  22990111.596   -13717747.438 8 -10400726.33246  22990110.838    22990120.7724
  24078581.570    -4610635.514 7  -3580390.83445  24078580.915    24078593.2464
 00  2 26  2 31 30.0000000  0  7 26 17 23 06 30 10 22
  22416335.502   -17446090.435 8 -13136201.73946  22416335.664    22416345.3734
  21390621.526    -2881354.940 9  -2235365.36547  21390621.051    21390630.1994
  22532861.878   -12975676.971 8 -10087227.90246  22532861.545    22532872.6824
  20232156.466   -29798302.961 9 -23204976.11548  20232156.430    20232164.3124
  22834332.523   -14547346.261 8 -11316922.75846  22834332.791    22834343.0244
  23008254.514   -13622405.703 8 -10326434.07346  23008253.798    23008263.6914
  24068614.248    -4663013.219 7  -3621204.45445  24068613.756    24068625.8394
 00  2 26  2 32  0.0000000  0  7 26 17 23 06 30 10 22
  22405371.984   -17503703.316 8 -13181094.79946  22405372.163    22405381.8674
  21383967.799    -2916320.192 9  -2262610.93547  21383967.328    21383976.4714
  22517023.351   -13058908.959 8 -10152083.87346  22517022.980    22517034.0244
  20232359.815   -29797234.295 9 -23204143.37648  20232359.769    20232367.6184
  22852687.315   -14450891.570 8 -11241763.28646  22852687.574    22852697.7554
  23026437.122   -13526855.597 8 -10251979.45746  23026436.370    23026446.3124
  24058737.010    -4714917.134 7  -3661648.93245  24058736.563    24058748.5634
 00  2 26  2 32 30.0000000  0  7 26 17 23 06 30 10 22
  22394490.640   -17560884.643 8 -13225651.57146  22394490.817    22394500.5724
  21377345.381    -2951120.831 9  -2289728.23547  21377344.902    21377354.0604
  22501240.288   -13141849.288 8 -10216712.57946  22501239.866    22501250.7974
  20232648.339   -29795718.058 9 -23202961.87148  20232648.269    20232656.1404
  22871078.810   -14354243.743 8 -11166453.31546  22871079.052    22871089.2464
  23044655.738   -13431115.693 8 -10177376.95046  23044655.007    23044664.9774
  24048948.022    -4766356.946 7  -3701731.70745  24048947.491    24048959.8484
 00  2 26  2 33  0.0000000  0  7 26 17 23 06 30 10 22
  22383695.610   -17617612.625 8 -13269855.09546  22383695.780    22383705.5314
  21370754.943    -2985753.522 9  -2316714.66547  21370754.445    21370763.6564
  22485514.310   -13224489.291 8 -10281107.26446  22485513.863    22485524.7744
  20233020.043   -29793764.719 9 -23201439.77448  20233020.002    20233027.8464
  22889504.572   -14257415.591 8 -11091002.84346  22889504.846    22889515.0614
  23062909.371   -13335192.102 8 -10102631.32046  23062908.650    23062918.6324
  24039244.303    -4817350.666 7  -3741466.91845  24039243.678    24039255.8944
 00  2 26  2 33 30.0000000  0  7 26 17 23 06 30 10 22
  22372986.575   -17673888.745 8 -13313706.51446  22372986.764    22372996.4714
  21364194.452    -3020228.447 9  -2343578.15947  21364193.976    21364203.2244
  22469845.011   -13306831.804 8 -10345270.13746  22469844.570    22469855.4614
  20233474.123   -29791378.392 9 -23199580.28448  20233474.057    20233481.9074
  22907963.389   -14160413.364 8 -11015416.75046  22907963.707    22907974.0494
  23081198.154   -13239084.019 8 -10027741.90846  23081197.420    23081207.3974
  24029627.196    -4867888.297 7  -3780846.73245  24029626.516    24029638.6404
 00  2 26  2 34  0.0000000  0  7 26 17 23 06 30 10 22
  22362361.510   -17729723.565 8 -13357214.06046  22362361.690    22362371.4214
  21357662.146    -3054555.656 9  -2370326.55847  21357661.679    21357670.9094
  22454233.744   -13388869.299 8 -10409195.33447  22454233.258    22454244.1084
  20234009.444   -29788565.155 9 -23197388.13548  20234009.397    20234017.2344
  22926451.951   -14063255.139 8 -10939709.09246  22926452.327    22926462.7394
  23099520.420   -13142799.863 8  -9952715.30246  23099519.705    23099529.6634
  24020096.768    -4917970.340 7  -3819871.57045  24020096.153    24020108.2224
 00  2 26  2 34 30.0000000  0  7 26 17 23 06 30 10 22
  22351818.787   -17785125.157 8 -13400384.04246  22351818.988    22351828.7554
  21351159.916    -3088724.798 9  -2396951.79047  21351159.450    21351168.6194
  22438683.203   -13470587.251 8 -10472871.54346  22438682.704    22438693.5464
  20234627.330   -29785317.935 9 -23194857.82348  20234627.299    20234635.1134
  22944968.483   -13965950.660 8 -10863887.46946  22944968.869    22944979.1984
  23117873.708   -13046352.055 8  -9877561.20146  23117873.029    23117883.0674
  24010651.334    -4967605.823 7  -3858548.43445  24010650.653    24010662.7404
 00  2 26  2 35  0.0000000  0  7 26 17 23 06 30 10 22
  22341355.694   -17840108.862 8 -13443228.38046  22341355.891    22341365.5904
  21344691.330    -3122717.276 9  -2423439.36247  21344690.848    21344699.9764
  22423193.654   -13551984.781 8 -10536298.07047  22423193.206    22423203.9754
  20235330.209   -29781624.416 9 -23191979.74548  20235330.162    20235337.9754
  22963514.708   -13868489.762 8 -10787943.95146  22963515.069    22963525.4234
  23136259.700   -12949733.101 8  -9802273.70446  23136259.031    23136269.0554
  24001294.145    -5016777.878 8  -3896864.19945  24001293.460    24001305.3604
 00  2 26  2 35 30.0000000  0  7 26 17 23 06 30 10 22
  22330971.217   -17894678.998 8 -13485750.46346  22330971.381    22330981.1334
  21338256.665    -3156531.237 9  -2449787.83447  21338256.193    21338265.2934
  22407767.699   -13633048.322 8 -10599464.34147  22407767.266    22407778.0454
  20236121.938   -29777463.497 9 -23188737.45548  20236121.894    20236129.7074
  22982088.903   -13770882.084 8 -10711886.06946  22982089.221    22982099.6174
  23154679.066   -12852939.034 8  -9726849.77846  23154678.370    23154688.3584
  23992028.924    -5065466.945 8  -3934803.60745  23992028.245    23992040.1174
 00  2 26  2 36  0.0000000  0  7 26 17 23 06 30 10 22
  22320669.715   -17948812.848 8 -13527932.58146  22320669.912    22320679.7174
  21331858.098    -3190155.602 9  -2475988.56447  21331857.622    21331866.6764
  22392408.656   -13713760.325 8 -10662356.67847  22392408.239    22392419.0464
  20237006.677   -29772814.291 9 -23185114.68348  20237006.632    20237014.4134
  23000692.579   -13673119.161 8 -10635707.20646  23000692.902    23000703.3654
  23173131.544   -12755970.985 8  -9651290.27646  23173130.805    23173140.7924
  23982855.881    -5113671.491 8  -3972365.48745  23982855.205    23982867.0214
 00  2 26  2 36 30.0000000  0  7 26 17 23 06 30 10 22
  22310456.356   -18002483.716 8 -13569753.94946  22310456.553    22310466.3294
  21325497.740    -3223579.206 9  -2502032.86247  21325497.256    21325506.3064
  22377115.885   -13794123.680 8 -10724977.35447  22377115.485    22377126.2804
  20237985.897   -29767668.435 9 -23181104.91348  20237985.844    20237993.6394
  23019327.371   -13575192.714 8 -10559400.92846  23019327.741    23019338.2084
  23191618.779   -12658819.962 8  -9575588.20646  23191618.027    23191628.0774
  23973776.487    -5161383.897 8  -4009543.88045  23973775.851    23973787.5394
 00  2 26  2 37  0.0000000  0  7 26 17 23 06 30 10 22
  22300333.177   -18055680.966 8 -13611206.27346  22300333.390    22300343.0534
  21319174.939    -3256805.271 9  -2527923.23247  21319174.473    21319183.5434
  22361888.211   -13874145.299 8 -10787331.75447  22361887.807    22361898.4824
  20239058.080   -29762034.122 9 -23176714.53448  20239058.012    20239065.7964
  23037993.153   -13477103.773 8 -10482968.03446  23037993.479    23038003.9274
  23210141.786   -12561481.228 8  -9499739.86346  23210141.054    23210151.0744
  23964793.581    -5208589.400 8  -4046327.29745  23964792.969    23964804.5094
 00  2 26  2 37 30.0000000  0  7 26 17 23 06 30 10 22
  22290302.204   -18108394.074 8 -13652281.34046  22290302.415    22290312.0254
  21312887.650    -3289844.817 9  -2553668.24947  21312887.195    21312896.3024
  22346723.900   -13953833.785 8 -10849426.56347  22346723.495    22346734.1144
  20240221.317   -29755921.093 9 -23171951.13048  20240221.256    20240229.0474
  23056687.762   -13378863.382 8 -10406417.13046  23056688.047    23056698.4744
  23228698.392   -12463966.127 8  -9423754.08046  23228697.647    23228707.6384
  23955906.185    -5255292.842 8  -4082719.48545  23955905.541    23955917.0864
 00  2 26  2 38  0.0000000  0  7 26 17 23 06 30 10 22
  22280362.617   -18160626.930 8 -13692982.18146  22280362.816    22280372.3984
  21306635.636    -3322699.099 9  -2579268.91747  21306635.193    21306644.2764
  22331620.451   -14033202.146 8 -10911271.91347  22331620.081    22331630.7324
  20241472.729   -29749344.955 9 -23166826.85948  20241472.670    20241480.4574
  23075412.998   -13280461.929 8 -10329740.70946  23075413.284    23075423.7034
  23247286.510   -12366285.194 8  -9347639.08746  23247285.759    23247295.7004
  23947114.203    -5301494.385 8  -4118720.58545  23947113.609    23947125.1854
 00  2 26  2 38 30.0000000  0  7 26 17 23 06 30 10 22
  22270511.131   -18212396.419 8 -13733321.95546  22270511.335    22270520.9054
  21300418.836    -3355368.447 9  -2604725.48247  21300418.377    21300427.4194
  22316575.010   -14112265.979 8 -10972879.97747  22316574.617    22316585.2514
  20242808.812   -29742323.608 9 -23161355.67248  20242808.775    20242816.5794
  23094168.098   -13181903.372 8 -10252941.88946  23094168.390    23094178.8584
  23265904.911   -12268444.635 8  -9271399.71146  23265904.130    23265914.1384
  23938417.798    -5347194.221 7  -4154330.77245  23938417.259    23938428.6914
 00  2 26  2 39  0.0000000  0  7 26 17 23 06 30 10 22
  22260744.843   -18263718.308 8 -13773312.94746  22260745.037    22260754.5464
  21294235.202    -3387863.320 9  -2630046.09847  21294234.738    21294243.7484
  22301588.086   -14191022.666 8 -11034248.71347  22301587.652    22301598.2244
  20244227.151   -29734870.043 9 -23155547.69048  20244227.113    20244234.9144
  23112950.904   -13083199.071 8 -10176029.50246  23112951.197    23112961.7294
  23284551.765   -12170455.223 8  -9195044.34246  23284550.990    23284560.9534
  23929815.789    -5392397.436 8  -4189553.95045  23929815.243    23929826.6464
 00  2 26  2 39 30.0000000  0  7 26 17 23 06 30 10 22
  22251063.469   -18314593.551 8 -13812955.90046  22251063.690    22251073.1624
  21288082.256    -3420197.044 9  -2655241.14347  21288081.788    21288090.7484
  22286659.028   -14269474.823 8 -11095380.14447  22286658.558    22286669.1434
  20245728.027   -29726982.960 9 -23149401.90048  20245727.994    20245735.7824
  23131759.512   -12984359.549 8 -10099011.74446  23131759.766    23131770.3194
  23303225.467   -12072324.521 8  -9118578.87746  23303224.713    23303234.6584
  23921305.988    -5437116.201 8  -4224399.62945  23921305.385    23921316.8564
 00  2 26  2 40  0.0000000  0  7 26 17 23 06 30 10 22
  22241468.541   -18365014.864 8 -13852245.15146  22241468.782    22241478.2164
  21281958.920    -3452374.928 9  -2680314.74647  21281958.447    21281967.4064
  22271790.428   -14347609.334 8 -11156264.06147  22271789.981    22271800.5904
  20247311.328   -29718662.479 9 -23142918.39248  20247311.288    20247319.0794
  23150592.581   -12885390.720 8 -10021893.23546  23150592.849    23150603.4184
  23321924.870   -11974058.755 8  -9042008.17046  23321924.108    23321934.0454
  23912887.562    -5481354.570 8  -4258871.00145  23912886.983    23912898.3824
 00  2 26  2 40 30.0000000  0  7 26 17 23 06 30 10 22
  22231962.122   -18414971.209 8 -13891172.08346  22231962.363    22231971.7704
  21275863.602    -3484405.646 9  -2705273.68047  21275863.156    21275872.0824
  22256984.511   -14425414.620 8 -11216891.44647  22256984.021    22256994.6114
  20248977.052   -29709908.997 9 -23136097.49148  20248977.025    20248984.8334
  23169447.782   -12786305.782 8  -9944684.25146  23169448.094    23169458.6274
  23340649.728   -11875658.768 8  -8965332.87546  23340649.025    23340658.9354
  23904559.058    -5525120.345 8  -4292974.08745  23904558.449    23904569.9634
 00  2 26  2 41  0.0000000  0  7 26 17 23 06 30 10 22
  22222544.661   -18464459.973 8 -13929734.65246  22222544.873    22222554.2804
  21269793.641    -3516303.362 9  -2730128.97347  21269793.189    21269802.0364
  22242243.454   -14502878.444 8 -11277252.76447  22242243.006    22242253.5504
  20250727.652   -29700709.514 9 -23128929.04848  20250727.613    20250735.4234
  23188321.642   -12687122.945 8  -9867398.98946  23188321.998    23188332.4564
  23359398.597   -11777132.721 8  -8888559.34846  23359397.905    23359407.8304
  23896320.367    -5568414.034 8  -4326709.31045  23896319.773    23896331.4474
 00  2 26  2 41 30.0000000  0  7 26 17 23 06 30 10 22
  22213218.421   -18513469.602 8 -13967923.87946  22213218.629    22213228.0264
  21263750.872    -3548058.243 9  -2754872.96247  21263750.392    21263759.2454
  22227567.427   -14580000.860 8 -11337348.05647  22227566.986    22227577.5304
  20252566.266   -29691047.462 9 -23121400.16148  20252566.230    20252574.0434
  23207215.751   -12587833.789 8  -9790030.90646  23207216.148    23207226.5204
  23378172.597   -11678474.982 8  -8811683.18846  23378171.878    23378181.8514
  23888171.504    -5611236.454 8  -4360077.33445  23888170.914    23888182.4644
 00  2 26  2 42  0.0000000  0  7 26 17 23 06 30 10 22
  22203983.075   -18562001.435 8 -14005740.79146  22203983.292    22203992.6224
  21257737.826    -3579656.802 9  -2779495.14047  21257737.355    21257746.1724
  22212958.400   -14656771.292 8 -11397169.05847  22212957.969    22212968.5374
  20254494.569   -29680914.102 9 -23113504.02148  20254494.525    20254502.3464
  23226131.160   -12488433.366 8  -9712576.08146  23226131.554    23226141.8544
  23396973.379   -11579676.218 8  -8734697.15546  23396972.663    23396982.6574
  23880113.124    -5653583.095 8  -4393074.60645  23880112.483    23880124.0224
 00  2 26  2 42 30.0000000  0  7 26 17 23 06 30 10 22
  22194838.048   -18610058.540 8 -14043187.78746  22194838.253    22194847.6144
  21251755.038    -3611096.325 9  -2803993.39847  21251754.567    21251763.3684
  22198415.085   -14733196.462 8 -11456721.02547  22198414.677    22198425.2194
  20256515.319   -29670294.851 9 -23105229.26148  20256515.266    20256523.0944
  23245067.603   -12388922.483 8  -9635035.18946  23245067.954    23245078.2204
  23415803.587   -11480722.411 8  -8657590.33046  23415802.897    23415812.9594
  23872147.041    -5695444.981 8  -4425694.13445  23872146.357    23872157.8784
 00  2 26  2 43  0.0000000  0  7 26 17 23 06 30 10 22
  22185784.686   -18657634.002 8 -14080259.47946  22185784.911    22185794.2084
  21245804.850    -3642364.399 9  -2828358.05847  21245804.386    21245813.1784
  22183937.189   -14809277.967 8 -11516005.21747  22183936.770    22183947.2214
  20258631.671   -29659173.308 9 -23096563.10948  20258631.631    20258639.4544
  23264027.882   -12289286.067 8  -9557396.47446  23264028.228    23264038.5194
  23434664.888   -11381605.463 8  -8580356.35745  23434664.219    23434674.2714
  23864274.718    -5736813.529 8  -4457929.25545  23864274.038    23864285.5424
 00  2 26  2 43 30.0000000  0  7 26 17 23 06 30 10 22
  22176823.816   -18704723.359 8 -14116952.40046  22176824.044    22176833.2774
  21239890.855    -3673442.249 9  -2852574.49347  21239890.390    21239899.1464
  22169523.627   -14885021.177 8 -11575025.79447  22169523.219    22169533.6564
  20260841.242   -29647561.946 9 -23087515.28148  20260841.191    20260848.9834
  23283013.304   -12189517.209 8  -9479654.56546  23283013.605    23283024.0204
  23453557.484   -11282324.571 8  -8502994.63545  23453556.811    23453566.8064
  23856496.826    -5777686.283 8  -4489778.05345  23856496.152    23856507.5534
 00  2 26  2 44  0.0000000  0  7 26 17 23 06 30 10 22
  22167955.557   -18751325.995 8 -14153266.05446  22167955.784    22167964.9494
  21234015.332    -3704318.110 9  -2876633.54747  21234014.867    21234023.5504
  22155175.178   -14960422.226 8 -11633779.74747  22155174.762    22155185.2534
  20263143.753   -29635462.148 9 -23078086.85648  20263143.708    20263151.4834
  23302021.539   -12089629.073 8  -9401819.71446  23302021.796    23302032.3154
  23472479.049   -11182891.397 8  -8425514.25545  23472478.332    23472488.3644
  23848814.696    -5818055.524 8  -4521234.47845  23848814.030    23848825.4804
 00  2 26  2 44 30.0000000  0  7 26 17 23 06 30 10 22
  22159182.825   -18797426.689 8 -14189188.57946  22159183.037    22159192.2234
  21228179.082    -3734987.803 9  -2900531.94147  21228178.618    21228187.2214
  22140890.605   -15035487.669 8 -11692272.18547  22140890.221    22140900.7084
  20265538.112   -29622879.759 9 -23068282.37848  20265538.050    20265545.8364
  23321051.932   -11989623.690 8  -9323893.50846  23321052.171    23321062.8274
  23491426.676   -11083320.481 8  -8347926.56345  23491426.005    23491436.1304
  23841229.430    -5857916.053 8  -4552294.52145  23841228.771    23841240.2224
 00  2 26  2 45  0.0000000  0  7 26 17 23 06 30 10 22
  22150507.410   -18843015.808 8 -14224712.47946  22150507.663    22150516.7884
  21222384.290    -3765439.430 9  -2924260.41747  21222383.810    21222392.4164
  22126669.598   -15110219.065 8 -11750504.33747  22126669.246    22126679.6484
  20268022.151   -29609825.666 9 -23058110.33048  20268022.100    20268029.9214
  23340104.082   -11889504.177 8  -9245878.34146  23340104.302    23340115.0844
  23510396.913   -10983631.082 8  -8270246.54745  23510396.301    23510406.4024
  23833741.325    -5897266.228 8  -4582956.88445  23833740.645    23833752.0134
 00  2 26  2 45 30.0000000  0  7 26 17 23 06 30 10 22
  22141929.674   -18888092.234 8 -14259836.86146  22141929.891    22141938.9284
  21216632.030    -3795667.248 9  -2947814.50147  21216631.572    21216640.2084
  22112512.140   -15184616.764 8 -11808476.46947  22112511.797    22112522.0964
  20270595.374   -29596303.116 9 -23047573.25548  20270595.339    20270603.1494
  23359175.474   -11789283.487 8  -9167784.38046  23359175.699    23359186.4954
  23529389.048   -10883826.989 8  -8192477.13545  23529388.463    23529398.4644
  23826350.822    -5936103.056 8  -4613219.24745  23826350.111    23826361.4984
 00  2 26  2 46  0.0000000  0  7 26 17 23 06 30 10 22
  22133451.364   -18932645.705 8 -14294553.76846  22133451.551    22133460.6224
  21210918.730    -3825690.326 9  -2971209.04747  21210918.287    21210926.9474
  22098417.704   -15258682.775 8 -11866190.12847  22098417.364    22098427.7114
  20273260.374   -29582298.367 9 -23036660.43948  20273260.324    20273268.1384
  23378263.999   -11688972.874 8  -9089620.32746  23378264.254    23378275.0214
  23548404.331   -10783900.981 8  -8114612.72345  23548403.779    23548413.7604
  23819057.761    -5974427.912 8  -4643082.66445  23819057.000    23819068.4584
 00  2 26  2 46 30.0000000  0  7 26 17 23 06 30 10 22
  22125073.643   -18976670.434 8 -14328858.65946  22125073.820    22125082.8924
  21205240.696    -3855528.263 9  -2994459.32947  21205240.238    21205248.8884
  22084387.594   -15332410.836 8 -11923640.45747  22084387.277    22084397.6484
  20276018.836   -29567802.418 9 -23025364.88248  20276018.794    20276026.6104
  23397370.817   -11588565.807 8  -9011381.12946  23397371.127    23397381.9244
  23567445.274   -10683839.975 8  -8036643.13445  23567444.708    23567454.7494
  23811860.632    -6012248.281 8  -4672552.96745  23811859.962    23811871.4174
 00  2 26  2 47  0.0000000  0  7 26 17 23 06 30 10 22
  22116795.027   -19020174.402 8 -14362757.77246  22116795.211    22116804.2614
  21199596.486    -3885188.742 9  -3017571.33447  21199596.025    21199604.6254
  22070423.719   -15405791.067 8 -11980819.76047  22070423.394    22070433.7074
  20278871.797   -29552809.933 9 -23013682.40848  20278871.749    20278879.5294
  23416495.520   -11488064.836 8  -8933068.74946  23416495.797    23416506.5574
  23586514.415   -10583630.900 8  -7958558.17245  23586513.866    23586523.8594
  23804757.225    -6049576.491 8  -4701639.77645  23804756.620    23804767.9574
 00  2 26  2 47 30.0000000  0  7 26 17 23 06 30 10 22
  22108615.426   -19063158.180 8 -14396251.54746  22108615.614    22108624.6214
  21193983.926    -3914682.729 9  -3040553.60947  21193983.471    21193992.0194
  22056528.003   -15478813.135 8 -12037719.96547  22056527.674    22056537.9784
  20281819.636   -29537318.920 9 -23001611.46848  20281819.588    20281827.3604
  23435637.177   -11387475.188 8  -8854687.26146  23435637.416    23435648.0954
  23605613.112   -10483267.099 8  -7880352.62445  23605612.514    23605622.4684
  23797746.440    -6086417.428 7  -4730346.88745  23797745.834    23797757.1604
 00  2 26  2 48  0.0000000  0  7 26 17 23 06 30 10 22
  22100535.352   -19105619.011 8 -14429337.82046  22100535.538    22100544.5204
  21188400.311    -3944024.711 9  -3063417.43147  21188399.856    21188408.3674
  22042703.006   -15551463.604 8 -12094330.60347  22042702.675    22042712.9964
  20284862.071   -29521330.734 9 -22989153.14048  20284862.022    20284869.7734
  23454797.145   -11286789.174 8  -8776230.67146  23454797.401    23454808.0304
  23624739.494   -10382758.056 8  -7802033.88946  23624738.764    23624748.7194
  23790827.369    -6122777.106 8  -4758678.98645  23790826.713    23790838.0564
 00  2 26  2 48 30.0000000  0  7 26 17 23 06 30 10 22
  22092552.330   -19147569.460 8 -14462026.40346  22092552.494    22092561.4774
  21182847.148    -3973206.514 9  -3086156.44247  21182846.690    21182855.2054
  22028949.360   -15623739.389 8 -12150649.28647  22028948.996    22028959.2664
  20287995.387   -29504864.949 9 -22976322.62848  20287995.353    20288003.1114
  23473977.923   -11185993.288 8  -8697688.46846  23473978.243    23473988.8624
  23643889.448   -10282124.701 8  -7723618.32145  23643888.696    23643898.6244
  23783999.583    -6158656.895 8  -4786637.15745  23783998.900    23784010.2414
 00  2 26  2 49  0.0000000  0  7 26 17 23 06 30 10 22
  22084665.929   -19189012.442 8 -14494319.55646  22084666.094    22084675.0534
  21177325.112    -4002224.601 9  -3108767.88247  21177324.663    21177333.1904
  22015266.101   -15695644.855 9 -12206679.41647  22015265.759    22015275.9044
  20291216.090   -29487940.252 9 -22963134.53148  20291216.033    20291223.7814
  23493177.772   -11085097.034 8  -8619068.07946  23493178.072    23493188.8094
  23663058.146   -10181392.542 8  -7645125.74945  23663057.347    23663067.2904
  23777266.491    -6194039.132 7  -4814207.65145  23777265.801    23777277.1404
 00  2 26  2 49 30.0000000  0  7 26 17 23 06 30 10 22
  22076875.396   -19229951.629 8 -14526220.14746  22076875.567    22076884.5574
  21171832.791    -4031087.087 9  -3131258.08047  21171832.326    21171840.8104
  22001651.266   -15767191.002 9 -12262429.55047  22001650.904    22001661.0054
  20294524.721   -29470553.126 9 -22949586.13348  20294524.663    20294532.3874
  23512394.564   -10984111.844 8  -8540378.38646  23512394.918    23512405.7414
  23682241.382   -10080583.908 8  -7566573.58245  23682240.576    23682250.5354
  23770630.426    -6228911.894 8  -4841381.13345  23770629.646    23770640.9124
 00  2 26  2 50  0.0000000  0  7 26 17 23 06 30 10 22
  22069178.063   -19270400.801 8 -14557738.89746  22069178.236    22069187.2594
  21166369.932    -4059794.330 9  -3153627.30847  21166369.458    21166377.9004
  21988104.682   -15838378.554 9 -12317900.25247  21988104.302    21988114.3614
  20297921.651   -29452702.040 9 -22935676.19648  20297921.581    20297929.3254
  23531627.199   -10883043.999 8  -8461624.28046  23531627.494    23531638.4434
  23701439.286    -9979698.544 8  -7487961.62745  23701438.476    23701448.3694
  23764093.858    -6263261.723 8  -4868147.13945  23764093.021    23764104.4234
 00  2 26  2 50 30.0000000  0  7 26 17 23 06 30 10 22
  22061574.675   -19310356.512 8 -14588873.13646  22061574.860    22061583.8264
  21160937.414    -4088342.152 9  -3175872.30847  21160936.938    21160945.3584
  21974625.479   -15909211.979 9 -12373095.01347  21974625.074    21974635.1224
  20301408.359   -29434379.185 9 -22921398.64548  20301408.317    20301416.0824
  23550871.022   -10781917.719 8  -8382824.63946  23550871.271    23550882.1794
  23720652.755    -9878731.205 8  -7409285.80445  23720651.994    23720661.8964
  23757661.016    -6297066.329 8  -4894488.31245  23757660.184    23757671.5904
 00  2 26  2 51  0.0000000  0  7 26 17 23 06 30 10 22
  22054067.785   -19349805.582 8 -14619612.58046  22054067.977    22054076.8814
  21155533.746    -4116738.357 9  -3197999.16947  21155533.269    21155541.7034
  21961215.646   -15979680.606 9 -12428005.52447  21961215.237    21961225.2244
  20304986.443   -29415576.152 9 -22906746.91948  20304986.410    20304994.1304
  23570120.523   -10680761.219 8  -8304001.45746  23570120.845    23570131.6714
  23739883.235    -9777674.148 8  -7330540.08145  23739882.492    23739892.4824
  23751332.138    -6330324.976 8  -4920404.07145  23751331.166    23751342.5204
 00  2 26  2 51 30.0000000  0  7 26 17 23 06 30 10 22
  22046658.865   -19388739.584 8 -14649950.68146  22046659.026    22046667.8754
  21150161.404    -4144970.021 9  -3219997.81747  21150160.918    21150169.3924
  21947875.722   -16049782.035 9 -12482629.90547  21947875.302    21947885.2884
  20308657.052   -29396287.017 9 -22891716.41948  20308657.009    20308664.7344
  23589375.316   -10579577.261 8  -8225156.87146  23589375.605    23589386.4374
  23759134.562    -9676507.644 8  -7251709.06345  23759133.784    23759143.8474
  23745104.971    -6363048.316 8  -4945902.71145  23745104.077    23745115.3074
 00  2 26  2 52  0.0000000  0  7 26 17 23 06 30 10 22
  22039349.712   -19427148.720 8 -14679879.79946  22039349.886    22039358.7424
  21144822.079    -4173028.070 9  -3241861.17647  21144821.605    21144830.0564
  21934606.285   -16119512.823 9 -12536965.47047  21934605.859    21934615.8774
  20312416.318   -29376531.848 9 -22876322.78248  20312416.267    20312423.9644
  23608635.029   -10478367.127 8  -8146291.89946  23608635.331    23608646.1974
  23778407.563    -9575227.139 8  -7172789.21745  23778406.832    23778416.9064
  23738977.661    -6395247.196 8  -4970992.69245  23738976.828    23738987.9324
 00  2 26  2 52 30.0000000  0  7 26 17 23 06 30 10 22
  22032143.330   -19465018.176 8 -14709388.38246  22032143.525    22032152.2894
  21139516.679    -4200907.709 9  -3263585.50547  21139516.208    21139524.6564
  21921405.430   -16188883.123 9 -12591020.14247  21921405.037    21921414.9654
  20316263.380   -29356315.299 9 -22860569.61448  20316263.344    20316271.0264
  23627899.634   -10377131.158 8  -8067406.79246  23627899.955    23627910.8594
  23797699.507    -9473847.156 8  -7093791.83445  23797698.856    23797708.8714
  23732946.512    -6426941.865 8  -4995689.78845  23732945.583    23732956.5104
 00  2 26  2 53  0.0000000  0  7 26 17 23 06 30 10 22
  22025038.533   -19502353.791 8 -14738480.98546  22025038.713    22025047.4284
  21134247.646    -4228596.518 9  -3285161.14647  21134247.195    21134255.5794
  21908271.932   -16257899.689 9 -12644799.17447  21908271.519    21908281.3674
  20320197.861   -29335639.432 9 -22844458.53448  20320197.820    20320205.5104
  23647173.155   -10275848.571 8  -7988485.34746  23647173.433    23647184.4014
  23817009.437    -9372372.906 8  -7014720.99545  23817008.779    23817018.8144
  23727007.462    -6458151.039 8  -5020008.55845  23727006.606    23727017.5764
 00  2 26  2 53 30.0000000  0  7 26 17 23 06 30 10 22
  22018033.738   -19539163.433 8 -14767163.74646  22018033.933    22018042.6644
  21129016.809    -4256084.764 9  -3306580.50947  21129016.326    21129024.6644
  21895203.513   -16326574.138 9 -12698311.60547  21895203.117    21895212.9904
  20324222.718   -29314488.717 9 -22827977.44848  20324222.683    20324230.3904
  23666458.767   -10174502.027 8  -7909514.08246  23666459.061    23666470.0534
  23836337.664    -9270802.226 8  -6935575.01945  23836336.998    23836347.0694
  23721161.477    -6488871.413 8  -5043946.45745  23721160.622    23721171.6674
 00  2 26  2 54  0.0000000  0  7 26 17 23 06 30 10 22
  22011130.269   -19575441.116 8 -14795431.98946  22011130.482    22011139.2434
  21123823.838    -4283373.621 9  -3327844.49747  21123823.362    21123831.7094
  21882201.574   -16394899.689 9 -12751552.17447  21882201.147    21882211.0104
  20328341.038   -29292846.897 9 -22811113.69048  20328340.992    20328348.6824
  23685758.505   -10073081.611 8  -7830485.25946  23685758.721    23685769.7844
  23855682.137    -9169146.258 7  -6856362.61645  23855681.436    23855691.6124
  23715409.694    -6519096.978 8  -5067498.80445  23715408.805    23715419.8604
 00  2 26  2 54 30.0000000  0  7 26 17 23 06 30 10 22
  22004328.206   -19611185.927 8 -14823285.02146  22004328.410    22004337.1304
  21118668.219    -4310466.172 9  -3348955.52148  21118667.761    21118676.1704
  21869267.565   -16462868.015 9 -12804514.39747  21869267.122    21869276.9304
  20332557.162   -29270690.990 9 -22793849.35048  20332557.114    20332564.7864
  23705074.518    -9971575.098 8  -7751389.33446  23705074.738    23705085.8374
  23875042.515    -9067406.640 8  -6777085.03745  23875041.853    23875052.0804
  23709754.768    -6548812.786 8  -5090653.91845  23709753.999    23709765.0984
 00  2 26  2 55  0.0000000  0  7 26 17 23 06 30 10 22
  21997628.291   -19646393.826 8 -14850719.66946  21997628.499    21997637.1914
  21113548.755    -4337369.023 9  -3369918.72748  21113548.295    21113556.6834
  21856405.212   -16530459.573 9 -12857183.02747  21856404.806    21856414.5934
  20336870.972   -29248021.924 9 -22776185.14248  20336870.917    20336878.5664
  23724407.658    -9869978.732 8  -7672223.39345  23724407.894    23724419.0884
  23894420.746    -8965573.406 8  -6697734.50845  23894420.057    23894430.3544
  23704198.564    -6578010.656 8  -5113405.44145  23704197.776    23704208.9264
 00  2 26  2 55 30.0000000  0  7 26 17 23 06 30 10 22
  21991031.656   -19681059.181 8 -14877731.55446  21991031.856    21991040.5454
  21108463.175    -4364093.789 9  -3390743.16748  21108462.725    21108471.0254
  21843617.252   -16597660.581 9 -12909547.33047  21843616.819    21843626.5894
  20341279.569   -29224854.463 9 -22758132.56548  20341279.505    20341287.1854
  23743753.339    -9768316.806 8  -7593006.37145  23743753.601    23743764.6944
  23913816.606    -8863647.514 8  -6618311.76945  23913815.989    23913826.2584
  23698741.785    -6606685.615 8  -5135749.53445  23698741.003    23698752.1464
 00  2 26  2 56  0.0000000  0  7 26 17 23 06 30 10 22
  21984539.960   -19715172.845 8 -14904313.56146  21984540.170    21984548.8754
  21103409.231    -4390652.304 9  -3411438.05848  21103408.764    21103417.0414
  21830903.678   -16664470.535 9 -12961606.92047  21830903.250    21830912.9874
  20345778.707   -29201211.269 9 -22739709.29348  20345778.661    20345786.3344
  23763108.788    -9666603.567 8  -7513749.36245  23763109.082    23763120.1454
  23933227.078    -8761645.073 8  -6538829.34945  23933226.432    23933236.6854
  23693384.266    -6634839.260 8  -5157687.38945  23693383.452    23693394.6974
 00  2 26  2 56 30.0000000  0  7 26 17 23 06 30 10 22
  21978152.484   -19748738.812 8 -14930468.78946  21978152.721    21978161.3794
  21098385.125    -4417053.676 9  -3432010.49948  21098384.662    21098392.9524
  21818263.974   -16730891.871 9 -13013363.70247  21818263.551    21818273.2654
  20350365.869   -29177105.495 9 -22720925.57248  20350365.825    20350373.4734
  23782470.158    -9564858.984 8  -7434467.92545  23782470.438    23782481.5034
  23952651.370    -8659570.241 8  -6459290.51945  23952650.735    23952660.8014
  23688123.784    -6662483.229 8  -5179228.11145  23688123.024    23688134.1274
 00  2 26  2 57  0.0000000  0  7 26 17 23 06 30 10 22
  21971870.989   -19781748.324 8 -14956190.41646  21971871.190    21971879.7764
  21093389.844    -4443303.951 9  -3452465.20248  21093389.370    21093397.6864
  21805696.289   -16796935.135 9 -13064825.87847  21805695.861    21805705.5194
  20355038.779   -29152549.383 9 -22701790.91848  20355038.710    20355046.3584
  23801831.613    -9463114.057 8  -7355186.22445  23801831.904    23801842.9784
  23972089.223    -8557423.904 7  -6379695.96745  23972088.488    23972098.5794
  23682958.390    -6689627.856 8  -5200379.73345  23682957.520    23682968.5414
 00  2 26  2 57 30.0000000  0  7 26 17 23 06 30 10 22
  21965694.917   -19814203.870 8 -14981480.37146  21965695.136    21965703.6694
  21088423.636    -4469401.413 9  -3472800.84548  21088423.158    21088431.4354
  21793197.116   -16862618.194 9 -13116007.37747  21793196.734    21793206.3754
  20359801.379   -29127521.665 9 -22682288.78648  20359801.333    20359808.9644
  23821191.459    -9361377.791 8  -7275911.27045  23821191.742    23821202.7964
  23991539.896    -8455209.828 7  -6300048.67945  23991539.153    23991549.3264
  23677891.117    -6716256.599 8  -5221129.37146  23677890.278    23677901.2224
 00  2 26  2 58  0.0000000  0  7 26 17 23 06 30 10 22
  21959626.215   -19846095.137 8 -15006330.64046  21959626.377    21959634.9274
  21083486.935    -4495343.763 9  -3493015.60848  21083486.456    21083494.7084
  21780765.254   -16927947.433 9 -13166913.18347  21780764.871    21780774.4484
  20364657.191   -29102004.169 9 -22662405.00348  20364657.141    20364664.7894
  23840551.881    -9259638.074 8  -7196633.60945  23840552.209    23840563.2194
  24011003.688    -8352926.660 7  -6220347.56045  24011002.929    24011013.1464
  23672921.063    -6742374.654 8  -5241481.08246  23672920.129    23672931.1374
 00  2 26  2 58 30.0000000  0  7 26 17 23 06 30 10 22
  21953664.641   -19877422.839 8 -15030741.76946  21953664.844    21953673.3854
  21078581.630    -4521120.689 9  -3513101.47848  21078581.172    21078589.4474
  21768400.960   -16992921.941 9 -13217542.57947  21768400.580    21768410.1044
  20369609.864   -29075977.635 9 -22642124.58548  20369609.823    20369617.4774
  23859914.180    -9157888.696 8  -7117348.43645  23859914.545    23859925.5584
  24030483.869    -8250557.510 8  -6140579.42945  24030483.203    24030493.3774
  23668047.655    -6767984.902 8  -5261437.07546  23668046.682    23668057.6504
 00  2 26  2 59  0.0000000  0  7 26 17 23 06 30 10 22
  21947809.703   -19908190.806 8 -15054716.73846  21947809.887    21947818.3624
  21073710.129    -4546720.708 9  -3533049.49648  21073709.664    21073717.9144
  21756102.936   -17057548.205 9 -13267900.59547  21756102.544    21756112.0834
  20374661.050   -29049433.281 9 -22621440.67448  20374661.026    20374668.6984
  23879280.731    -9056117.172 8  -7038045.99845  23879281.058    23879292.0654
  24049982.657    -8148090.715 8  -6060735.17945  24049981.943    24049992.0804
  23663274.847    -6793066.228 8  -5280980.91946  23663273.917    23663284.7584
 00  2 26  2 59 30.0000000  0  7 26 17 23 06 30 10 22
  21942060.810   -19938401.024 8 -15078257.09446  21942060.987    21942069.4364
  21068874.751    -4572130.730 9  -3552849.46548  21068874.282    21068882.5124
  21743871.966   -17121821.762 9 -13317983.79547  21743871.601    21743881.1164
  20379811.338   -29022368.426 9 -22600351.17248  20379811.300    20379818.9624
  23898653.869    -8954310.555 8  -6958716.23645  23898654.217    23898665.1764
  24069497.196    -8045541.089 8  -5980826.39845  24069496.535    24069506.6534
  23658601.930    -6817621.298 8  -5300114.69645  23658601.191    23658611.9784
 00  2 26  3  0  0.0000000  0  7 26 17 23 06 30 10 22
  21936421.761   -19968034.110 8 -15101347.74046  21936421.961    21936430.3894
  21064076.190    -4597347.254 9  -3572498.65448  21064075.704    21064083.9354
  21731711.104   -17185727.183 9 -13367780.13947  21731710.730    21731720.1624
  20385057.946   -28994797.387 9 -22578867.24548  20385057.908    20385065.5354
  23918034.253    -8852465.836 8  -6879356.79645  23918034.479    23918045.6314
  24089025.626    -7942918.431 8  -5900860.70345  24089024.995    24089035.1744
  23654029.533    -6841649.321 8  -5318837.79845  23654028.846    23654039.5774
 00  2 26  3  0 30.0000000  0  7 26 17 23 06 30 10 22
  21930890.359   -19997101.485 8 -15123997.56546  21930890.561    21930899.0104
  21059313.792    -4622373.560 9  -3591999.62548  21059313.321    21059321.5334
  21719619.769   -17249266.965 9 -13417291.55747  21719619.391    21719628.8414
  20390398.252   -28966733.835 9 -22556999.53048  20390398.211    20390405.8334
  23937419.050    -8750598.145 8  -6799979.44345  23937419.320    23937430.4164
  24108565.420    -7840236.159 8  -5820848.54345  24108564.798    24108574.9394
  23649560.754    -6865133.588 8  -5337137.19145  23649559.931    23649570.6094
 00  2 26  3  1  0.0000000  0  7 26 17 23 06 30 10 22
  21925468.754   -20025591.317 8 -15146197.37746  21925469.014    21925477.4804
  21054585.584    -4647220.345 9  -3611360.72548  21054585.114    21054593.2624
  21707600.626   -17312427.394 9 -13466507.37647  21707600.251    21707609.7314
  20395828.842   -28938195.691 9 -22534762.01248  20395828.812    20395836.4724
  23956804.910    -8648725.296 8  -6720598.06045  23956805.198    23956816.2904
  24128112.660    -7737514.889 8  -5740806.00745  24128112.005    24128122.1704
  23645196.261    -6888068.939 8  -5355008.85445  23645195.482    23645206.1504
 00  2 26  3  1 30.0000000  0  7 26 17 23 06 30 10 22
  21920159.303   -20053492.401 8 -15167938.41246  21920159.549    21920168.0044
  21049888.516    -4671903.401 9  -3630594.23748  21049888.026    21049896.1824
  21695656.629   -17375193.293 9 -13515415.78347  21695656.250    21695665.7044
  20401346.715   -28909198.839 9 -22512167.05648  20401346.702    20401354.3904
  23976188.335    -8546865.352 8  -6641226.73545  23976188.620    23976199.6444
  24147664.495    -7634769.765 8  -5660744.87345  24147663.810    24147673.9744
  23640931.662    -6910478.780 8  -5372471.03745  23640931.004    23640941.6274
 00  2 26  3  2  0.0000000  0  7 26 17 23 06 30 10 22
  21914958.644   -20080821.534 8 -15189233.77046  21914958.900    21914967.3444
  21045219.227    -4696440.139 9  -3649713.73848  21045218.748    21045226.9644
  21683787.663   -17437564.860 9 -13564016.90547  21683787.287    21683796.7254
  20406950.264   -28879752.103 9 -22489221.54648  20406950.252    20406957.9394
  23995568.534    -8445021.893 8  -6561868.27445  23995568.823    23995579.9374
  24167223.466    -7531986.985 8  -5580654.40145  24167222.720    24167232.8084
  23636766.055    -6932369.445 8  -5389528.64745  23636765.318    23636775.8604
 00  2 26  3  2 30.0000000  0  7 26 17 23 06 30 10 22
  21909863.910   -20107594.267 8 -15210095.58046  21909864.167    21909872.6014
  21040578.184    -4720828.711 9  -3668717.80848  21040577.741    21040585.9494
  21671991.638   -17499552.953 9 -13612319.22647  21671991.243    21672000.7024
  20412641.587   -28849843.915 9 -22465916.48348  20412641.582    20412649.2564
  24014945.370    -8343196.803 8  -6482524.12645  24014945.629    24014956.7434
  24186791.668    -7429155.533 8  -5500526.02245  24186790.883    24186800.9984
  23632695.099    -6953762.187 8  -5406198.27445  23632694.416    23632704.8594
 00  2 26  3  3  0.0000000  0  7 26 17 23 06 30 10 22
  21904875.625   -20133807.527 8 -15230521.43046  21904875.850    21904884.3024
  21035965.715    -4745067.374 9  -3687605.03548  21035965.244    21035973.3904
  21660269.411   -17561153.033 9 -13660319.19747  21660269.028    21660278.4644
  20418422.804   -28819463.438 9 -22442243.38748  20418422.790    20418430.4554
  24034318.780    -8241389.635 8  -6403193.93945  24034318.997    24034330.0694
  24206369.004    -7326275.717 8  -5420359.91945  24206368.240    24206378.4104
  23628716.488    -6974669.503 8  -5422489.65445  23628715.880    23628726.2734
 00  2 26  3  3 30.0000000  0  8 21 26 17 23 06 30 10 22
  24936425.733    -3607288.566 7  -2570635.24844  24936425.223    24936440.5204
  21899991.448   -20159473.484 8 -15250520.80746  21899991.682    21900000.1534
  21031384.403    -4769142.141 9  -3706364.54948  21031383.916    21031392.0614
  21648619.375   -17622373.959 9 -13708023.72547  21648619.003    21648628.4074
  20424298.617   -28788585.823 9 -22418182.90048  20424298.592    20424306.2574
  24053691.821    -8139583.954 8  -6323864.91245  24053692.076    24053703.1884
  24225957.140    -7223339.123 8  -5340149.60645  24225956.449    24225966.5064
  23624831.123    -6995087.106 8  -5438399.43245  23624830.450    23624840.9004
 00  2 26  3  4  0.0000000  0  8 21 26 17 23 06 30 10 22
  24918949.844    -3699122.632 7  -2642193.90544  24918949.449    24918964.3954
  21895212.852   -20184584.644 8 -15270087.88746  21895213.090    21895221.5684
  21026837.221    -4793037.373 9  -3724984.16548  21026836.744    21026844.9194
  21637040.652   -17683220.388 9 -13755436.44347  21637040.259    21637049.6394
  20430274.044   -28757184.714 9 -22393714.51448  20430274.046    20430281.6964
  24073067.227    -8037765.281 8  -6244525.75445  24073067.561    24073078.7954
  24245556.454    -7120343.698 8  -5259893.41645  24245555.921    24245565.8964
  23621043.061    -7014993.396 8  -5453910.77345  23621042.353    23621052.8724
 00  2 26  3  4 30.0000000  0  8 21 26 17 23 06 30 10 22
  24901506.081    -3790788.438 7  -2713621.41744  24901505.677    24901520.3644
  21890542.446   -20209127.387 8 -15289212.04346  21890542.693    21890551.1704
  21022325.269    -4816747.650 9  -3743459.66148  21022324.797    21022332.9944
  21625535.080   -17743682.279 9 -13802549.51847  21625534.694    21625544.0834
  20436349.893   -28725256.067 9 -22368835.06048  20436349.859    20436357.5234
  24092444.592    -7935937.147 8  -6165179.25845  24092444.888    24092456.1174
  24265164.597    -7017302.484 8  -5179601.55345  24265163.877    24265173.8854
  23617355.524    -7034371.732 8  -5469010.73746  23617354.776    23617365.2474
 00  2 26  3  5  0.0000000  0  8 21 26 17 23 06 30 10 22
  24884095.667    -3882279.442 7  -2784912.71144  24884095.380    24884109.7284
  21885981.697   -20233094.302 8 -15307887.50946  21885981.930    21885990.3854
  21017847.422    -4840278.845 9  -3761795.61548  21017846.947    21017855.1084
  21614104.726   -17803748.672 9 -13849354.42247  21614104.347    21614113.6804
  20442522.912   -28692816.677 9 -22343557.61948  20442522.886    20442530.5364
  24111824.274    -7834096.562 8  -6085823.03645  24111824.511    24111835.8104
  24284779.796    -6914223.968 7  -5099280.58945  24284779.167    24284789.1194
  23613771.579    -7053205.394 8  -5483686.28946  23613770.827    23613781.3174
 00  2 26  3  5 30.0000000  0  8 21 26 17 23 06 30 10 22
  24866714.251    -3973618.976 7  -2856086.04945  24866713.763    24866728.1764
  21881531.322   -20256480.834 8 -15326110.72147  21881531.571    21881540.0244
  21013401.760    -4863640.880 9  -3779999.75448  21013401.275    21013409.4294
  21602747.783   -17863429.383 9 -13895858.78147  21602747.399    21602756.7304
  20448790.423   -28659880.470 9 -22317893.03848  20448790.397    20448798.0694
  24131206.077    -7732244.237 8  -6006457.68845  24131206.393    24131217.7564
  24304401.938    -6811109.043 8  -5018931.31645  24304401.373    24304411.2834
  23610289.168    -7071505.616 8  -5497946.15546  23610288.418    23610298.9784
 00  2 26  3  6  0.0000000  0  8 21 26 17 23 06 30 10 22
  24849356.629    -4064832.760 8  -2927161.41445  24849356.149    24849370.5484
  21877193.196   -20279277.956 8 -15343874.65147  21877193.434    21877201.8674
  21008987.315    -4886838.831 9  -3798076.05348  21008986.841    21008994.9784
  21591463.631   -17922727.543 9 -13942065.05447  21591463.271    21591472.6124
  20455148.777   -28626467.127 9 -22291856.64748  20455148.755    20455156.4414
  24150587.733    -7630393.223 8  -5927093.34545  24150588.005    24150599.4144
  24324030.515    -6707960.349 8  -4938555.70845  24324029.894    24324039.8534
  23606908.702    -7089269.163 8  -5511787.82845  23606908.087    23606918.5844
 00  2 26  3  6 30.0000000  0  8 21 26 17 23 06 30 10 22
  24832020.106    -4155935.438 8  -2998150.22045  24832019.681    24832034.0534
  21872965.969   -20301491.671 8 -15361183.98947  21872966.220    21872974.6294
  21004603.072    -4909878.026 9  -3816028.63348  21004602.596    21004610.7274
  21580252.113   -17981644.165 9 -13987974.02747  21580251.753    21580261.0564
  20461594.955   -28592591.914 9 -22265460.37448  20461594.943    20461602.6524
  24169966.668    -7528556.477 8  -5847740.11545  24169966.980    24169978.3744
  24343664.288    -6604783.980 8  -4858158.52745  24343663.713    24343673.7794
  23603628.695    -7106505.342 8  -5525218.58245  23603628.029    23603638.5584
 00  2 26  3  7  0.0000000  0  8 21 26 17 23 06 30 10 22
  24814705.642    -4246922.366 8  -3069048.85645  24814705.347    24814719.6334
  21868852.201   -20323109.597 8 -15378029.07847  21868852.468    21868860.7884
  21000248.806    -4932759.601 9  -3833858.39548  21000248.331    21000256.4754
  21569110.253   -18040194.716 9 -14033597.74947  21569109.866    21569119.1704
  20468129.606   -28558251.942 9 -22238701.95948  20468129.589    20468137.3034
  24189339.987    -7426749.498 8  -5768410.07945  24189340.318    24189351.6374
  24363302.832    -6501582.769 7  -4777741.99245  24363302.187    24363312.3224
  23600445.568    -7123232.463 8  -5538252.65645  23600444.822    23600455.4894
 00  2 26  3  7 30.0000000  0  8 21 26 17 23 06 30 10 22
  24797411.970    -4337800.060 8  -3139862.37945  24797411.710    24797425.9314
  21864851.537   -20344133.126 8 -15394410.99647  21864851.768    21864860.0904
  20995926.489    -4955473.407 9  -3851557.40848  20995926.003    20995934.1274
  21558038.752   -18098375.648 9 -14078933.45147  21558038.371    21558047.6664
  20474754.734   -28523436.928 9 -22211573.37748  20474754.712    20474762.4244
  24208703.403    -7324994.638 8  -5689120.64545  24208703.753    24208714.9774
  24382945.148    -6398361.400 7  -4697309.76445  24382944.499    24382954.7224
  23597358.686    -7139453.498 8  -5550892.36445  23597357.969    23597368.6974
 00  2 26  3  8  0.0000000  0  8 21 26 17 23 06 30 10 22
  24780143.545    -4428544.971 8  -3210572.42445  24780143.275    24780157.3804
  21860962.717   -20364568.957 8 -15410334.95947  21860962.980    21860971.2094
  20991638.505    -4978006.816 9  -3869115.86348  20991638.031    20991646.1364
  21547040.922   -18156169.536 9 -14123967.56647  21547040.524    21547049.7634
  20481472.476   -28488134.956 9 -22184065.35448  20481472.432    20481480.1354
  24228057.479    -7223288.583 8  -5609869.24545  24228057.805    24228069.1074
  24402591.648    -6295117.822 7  -4616860.24045  24402590.979    24402601.4714
  23594370.696    -7155155.052 8  -5563127.28645  23594369.938    23594380.7264
 00  2 26  3  8 30.0000000  0  8 21 26 17 23 06 30 10 22
  24762903.735    -4519139.571 8  -3281165.33745  24762903.439    24762917.6214
  21857187.072   -20384409.958 8 -15425795.42647  21857187.304    21857195.5484
  20987385.294    -5000357.463 9  -3886531.92148  20987384.826    20987392.9134
  21536119.629   -18213560.856 9 -14168687.98547  21536119.255    21536128.4624
  20488284.689   -28452336.486 9 -22156170.44448  20488284.666    20488292.3724
  24247402.880    -7121628.397 8  -5530653.59745  24247403.113    24247414.4944
  24422241.460    -6191855.719 6  -4536396.34245  24422240.865    24422251.6844
  23591479.624    -7170347.723 8  -5574965.66245  23591478.849    23591489.6944
 00  2 26  3  9  0.0000000  0  8 21 26 17 23 06 30 10 22
  24745694.592    -4609573.328 8  -3351632.92245  24745694.213    24745708.3074
  21853524.971   -20403654.062 8 -15440790.77747  21853525.199    21853533.4224
  20983168.667    -5022515.946 9  -3903798.21448  20983168.185    20983176.2714
  21525275.881   -18270544.896 9 -14213091.04147  21525275.502    21525284.7014
  20495193.475   -28416030.731 9 -22127880.24548  20495193.443    20495201.1554
  24266740.074    -7020011.056 8  -5451471.32845  24266740.285    24266751.6614
  24441897.720    -6088559.883 7  -4455906.19545  24441897.268    24441908.2504
  23588687.366    -7185020.962 8  -5586399.31245  23588686.572    23588697.4484
 00  2 26  3  9 30.0000000  0  8 21 26 17 23 06 30 10 22
  24728516.306    -4699844.401 7  -3421973.71245  24728515.925    24728529.9584
  21849973.206   -20422318.310 8 -15455334.29247  21849973.438    21849981.6884
  20978989.027    -5044479.853 9  -3920912.87948  20978988.538    20978996.6184
  21514511.892   -18327109.834 9 -14257167.52747  21514511.504    21514520.6634
  20502196.860   -28379227.754 9 -22099202.60948  20502196.825    20502204.5534
  24286071.690    -6918422.765 8  -5372311.69745  24286071.952    24286083.2534
  24461562.996    -5985218.691 7  -4375380.61545  24461562.472    24461573.3324
  23585996.956    -7199158.965 8  -5597415.88445  23585996.145    23586006.9854
 00  2 26  3 10  0.0000000  0  8 21 26 17 23 06 30 10 22
  24711369.967    -4789947.669 7  -3492183.71245  24711369.526    24711383.4324
  21846533.006   -20440396.396 8 -15469421.05547  21846533.240    21846541.5064
  20974843.843    -5066262.861 9  -3937886.60948  20974843.348    20974851.4344
  21503824.770   -18383270.523 9 -14300929.01847  21503824.392    21503833.5064
  20509292.429   -28341940.389 9 -22070147.52748  20509292.402    20509300.1084
  24305397.983    -6816862.374 8  -5293173.81045  24305398.333    24305409.6324
  24481235.140    -5881841.759 8  -4294827.15145  24481234.604    24481245.2174
  23583408.922    -7212758.675 8  -5608013.01245  23583408.147    23583418.9504
 00  2 26  3 10 30.0000000  0  8 21 26 17 23 06 30 10 22
  24694252.465    -4879899.343 7  -3562275.58345  24694251.906    24694265.8444
  21843206.512   -20457876.924 8 -15483042.19247  21843206.723    21843214.9724
  20970732.258    -5087869.258 9  -3954722.72848  20970731.775    20970739.8494
  21493212.074   -18439040.082 9 -14344385.73747  21493211.699    21493220.7684
  20516477.265   -28304183.963 9 -22040726.93348  20516477.218    20516484.9314
  24324713.389    -6715359.618 8  -5214080.84345  24324713.761    24324725.1434
  24500913.145    -5778434.022 8  -4214249.68845  24500912.541    24500923.0624
  23580924.826    -7225812.251 8  -5618184.56145  23580924.086    23580934.8794
 00  2 26  3 11  0.0000000  0  8 21 26 17 23 06 30 10 22
  24677163.003    -4969701.973 7  -3632251.34245  24677162.865    24677176.3654
  21839991.369   -20474772.164 8 -15496207.26847  21839991.618    21839999.8754
  20966652.401    -5109308.729 9  -3971428.78048  20966651.929    20966660.0014
  21482670.273   -18494437.143 9 -14387552.19347  21482669.907    21482678.9884
  20523748.729   -28265971.919 9 -22010951.30848  20523748.695    20523756.4094
  24344017.420    -6613916.508 7  -5135034.37545  24344017.768    24344029.2114
  24520596.939    -5674995.731 8  -4133648.38745  24520596.374    24520606.6774
  23578544.562    -7238319.903 8  -5627930.71845  23578543.903    23578554.7224
 00  2 26  3 11 30.0000000  0  8 21 26 17 23 06 30 10 22
  24660101.414    -5059359.464 7  -3702113.99345  24660101.398    24660114.6574
  21836888.195   -20491079.459 8 -15508914.19547  21836888.447    21836896.6494
  20962601.229    -5130597.576 9  -3988017.44648  20962600.763    20962608.8364
  21472199.460   -18549461.428 9 -14430428.18247  21472199.086    21472208.1204
  20531105.230   -28227313.169 9 -21980827.61348  20531105.222    20531112.9334
  24363309.665    -6512535.224 7  -5056036.08045  24363309.951    24363321.4914
  24540281.389    -5571553.752 8  -4053044.19445  24540280.827    24540291.0574
  23576263.445    -7250306.772 8  -5637271.06745  23576262.773    23576273.6264
 00  2 26  3 12  0.0000000  0  8 21 26 17 23 06 30 10 22
  24643067.581    -5148872.148 7  -3771863.84545  24643067.340    24643080.5074
  21833898.980   -20506788.231 8 -15521154.74647  21833899.196    21833907.3834
  20958578.512    -5151736.973 9  -4004489.66448  20958578.048    20958586.1154
  21461797.776   -18604122.413 9 -14473021.07547  21461797.397    21461806.3964
  20538550.585   -28188187.642 9 -21950340.19848  20538550.567    20538558.2644
  24382588.244    -6411225.827 8  -4977093.80245  24382588.515    24382600.1244
  24559963.600    -5468123.606 8  -3972449.24645  24559962.962    24559973.1334
  23574076.576    -7261798.180 8  -5646225.34945  23574075.927    23574086.8284
 00  2 26  3 12 30.0000000  0  8 21 26 17 23 06 30 10 22
  24626061.813    -5238237.241 8  -3841498.67045  24626061.493    24626074.7614
  21831023.652   -20521897.773 8 -15532928.35947  21831023.857    21831032.0694
  20954586.408    -5172715.526 9  -4020836.53848  20954585.922    20954593.9764
  21451467.817   -18658406.405 9 -14515320.20447  21451467.448    21451476.4284
  20546089.563   -28148570.122 9 -21919469.41148  20546089.558    20546097.2394
  24401857.124    -6309967.839 8  -4898191.57245  24401857.476    24401868.9484
  24579645.541    -5364694.396 8  -3891855.04645  24579644.956    24579655.1094
  23571981.392    -7272808.151 8  -5654804.47345  23571980.767    23571991.6874
 00  2 26  3 13  0.0000000  0  8 21 26 17 23 06 30 10 22
  24609087.578    -5327436.435 8  -3911004.22345  24609087.274    24609100.5104
  21828262.111   -20536409.492 8 -15544236.14847  21828262.328    21828270.5304
  20950624.509    -5193535.275 9  -4037059.68948  20950624.045    20950632.0464
  21441211.193   -18712305.137 9 -14557319.13847  21441210.809    21441219.7414
  20553727.232   -28108433.959 9 -21888194.47848  20553727.221    20553734.9124
  24421121.496    -6208733.349 8  -4819307.64645  24421121.829    24421133.3254
  24599326.258    -5261271.533 8  -3811265.80745  24599325.691    24599335.9274
  23569976.109    -7283345.244 8  -5663015.13445  23569975.586    23569986.4834
 00  2 26  3 13 30.0000000  0  8 21 26 17 23 06 30 10 22
  24592144.327    -5416472.695 8  -3980382.79145  24592143.934    24592157.1924
  21825616.105   -20550314.387 8 -15555071.08347  21825616.320    21825624.4844
  20946696.576    -5214176.443 9  -4053143.67848  20946696.084    20946704.1014
  21431030.337   -18765805.402 9 -14599007.57947  21431029.957    21431038.8714
  20561467.353   -28067759.342 9 -21856499.97348  20561467.352    20561475.0124
  24440379.032    -6107534.880 8  -4740451.79845  24440379.437    24440390.8574
  24619007.085    -5157848.146 7  -3730676.18045  24619006.416    24619016.7454
  23568064.487    -7293391.366 8  -5670843.21545  23568063.919    23568074.7404
 00  2 26  3 14  0.0000000  0  8 21 26 17 23 06 30 10 22
  24575233.668    -5505337.927 8  -4049628.13945  24575233.250    24575246.4314
  21823086.220   -20563608.874 8 -15565430.36347  21823086.432    21823094.5594
  20942806.301    -5234619.683 9  -4069073.42648  20942805.827    20942813.8734
  21420925.207   -18818907.746 9 -14640385.95347  21420924.833    21420933.7324
  20569310.393   -28026544.040 9 -21824384.15748  20569310.373    20569318.0144
  24459626.825    -6006387.457 8  -4661635.70845  24459627.223    24459638.7534
  24638692.294    -5054401.850 7  -3650068.67845  24638691.689    24638701.8904
  23566252.067    -7302916.091 8  -5678265.02445  23566251.463    23566262.2054
 00  2 26  3 14 30.0000000  0  8 21 26 17 23 06 30 10 22
  24558356.737    -5594026.199 8  -4118735.59745  24558356.244    24558369.3734
  21820671.597   -20576297.755 8 -15575317.75147  21820671.773    21820679.9094
  20938953.119    -5254868.082 9  -4084851.35248  20938952.635    20938960.6954
  21410897.600   -18871602.869 9 -14681447.01047  21410897.234    21410906.1034
  20577251.648   -27984812.503 9 -21791866.08948  20577251.635    20577259.2864
  24478864.729    -5905291.844 8  -4582859.99045  24478865.164    24478876.7284
  24658384.046    -4950921.134 8  -3569434.35245  24658383.416    24658393.5674
  23564543.952    -7311892.133 8  -5685259.29146  23564543.357    23564553.9674
 00  2 26  3 15  0.0000000  0  8 21 26 17 23 06 30 10 22
  24541513.535    -5682535.902 7  -4187703.91345  24541513.164    24541526.3304
  21818370.875   -20588387.676 8 -15584738.42847  21818371.046    21818379.2324
  20935137.055    -5274921.718 9  -4100477.52748  20935136.567    20935144.5664
  21400947.044   -18923893.059 9 -14722192.54447  21400946.693    21400955.5224
  20585286.112   -27942591.039 9 -21758966.25348  20585286.073    20585293.7364
  24498087.331    -5804276.894 8  -4504147.12045  24498087.717    24498099.2444
  24678081.408    -4847411.093 8  -3488777.15745  24678080.739    24678090.8364
  23562941.857    -7320311.406 8  -5691819.71346  23562941.225    23562951.7254
 00  2 26  3 15 30.0000000  0  8 21 26 17 23 06 30 10 22
  24524703.167    -5770873.577 8  -4256538.17145  24524702.822    24524715.9794
  21816184.129   -20599878.637 8 -15593692.37447  21816184.330    21816192.4924
  20931358.858    -5294776.049 9  -4115948.39948  20931358.372    20931366.3464
  21391072.733   -18975782.995 9 -14762626.19047  21391072.359    21391081.1494
  20593407.352   -27899913.255 9 -21725710.83748  20593407.311    20593415.0084
  24517290.524    -5703363.812 8  -4425513.63845  24517290.893    24517302.5084
  24697785.099    -4743867.939 8  -3408094.15345  24697784.420    24697794.4504
  23561443.980    -7328183.355 8  -5697953.65146  23561443.273    23561453.7454
 00  2 26  3 16  0.0000000  0  8 21 26 17 23 06 30 10 22
  24507926.504    -5859034.654 8  -4325234.83245  24507926.136    24507939.1644
  21814111.686   -20610769.462 8 -15602178.67047  21814111.864    21814119.9934
  20927613.786    -5314456.088 9  -4131283.46748  20927613.305    20927621.2604
  21381274.966   -19027270.354 9 -14802746.13847  21381274.582    21381283.3704
  20601611.954   -27856797.620 9 -21692114.22948  20601611.921    20601619.6254
  24536477.156    -5602537.952 8  -4346948.13145  24536477.471    24536489.0624
  24717489.523    -4640320.611 8  -3327407.89445  24717488.809    24717498.8134
  23560046.218    -7335528.046 8  -5703676.74146  23560045.550    23560056.1354
 00  2 26  3 16 30.0000000  0  8 21 26 17 23 06 30 10 22
  24491180.227    -5947035.848 8  -4393806.95645  24491179.939    24491192.6934
  21812153.200   -20621061.142 8 -15610198.10647  21812153.390    21812161.4894
  20923899.490    -5333974.799 9  -4146492.84048  20923899.016    20923906.9514
  21371553.970   -19078354.508 9 -14842551.91047  21371553.581    21371562.3094
  20609899.778   -27813244.729 9 -21658176.90648  20609899.763    20609907.4764
  24555650.986    -5501778.948 7  -4268434.74845  24555651.176    24555662.7974
  24737189.797    -4536794.906 8  -3246738.49045  24737189.140    24737199.1524
  23558745.589    -7342362.167 7  -5709001.98846  23558744.891    23558755.5914
 00  2 26  3 17  0.0000000  0  7 21 26 17 23 06 30 22
  24474462.254    -6034888.229 8  -4462263.11845  24474461.963    24474474.6704
  21810311.428   -20630739.508 8 -15617739.63947  21810311.635    21810319.6924
  20920219.079    -5353315.470 9  -4161563.46948  20920218.594    20920226.5304
  21361910.065   -19129033.270 9 -14882041.78847  21361909.658    21361918.3674
  20618275.006   -27769232.736 9 -21623881.84748  20618274.985    20618282.7144
  24574812.110    -5401086.111 7  -4189972.89945  24574812.381    24574824.1724
  23557542.237    -7348684.865 7  -5713928.70445  23557541.534    23557552.3914
 00  2 26  3 17 30.0000000  0  7 21 26 17 23 06 30 22
  24457770.439    -6122603.372 8  -4530612.32745  24457770.178    24457782.8804
  21808586.733   -20639802.641 8 -15624801.77247  21808586.959    21808594.9864
  20916568.939    -5372496.988 9  -4176510.07548  20916568.471    20916576.4004
  21352342.141   -19179312.611 9 -14921220.42447  21352341.752    21352350.4834
  20626738.939   -27724754.347 9 -21589223.36748  20626738.916    20626746.6744
  24593961.820    -5300453.972 7  -4111558.36145  24593962.204    24593973.8934
  23556435.688    -7354499.132 7  -5718459.25645  23556434.980    23556445.8904
 00  2 26  3 18  0.0000000  0  7 21 26 17 23 06 30 22
  24441101.677    -6210197.198 8  -4598867.02245  24441101.428    24441114.0544
  21806977.314   -20648259.870 8 -15631391.77247  21806977.554    21806985.6114
  20912947.672    -5391526.950 9  -4191338.59248  20912947.178    20912955.0944
  21342850.207   -19229192.674 9 -14960087.94447  21342849.823    21342858.5444
  20635295.466   -27679789.507 9 -21554185.84348  20635295.462    20635303.2194
  24613099.316    -5199886.808 8  -4033194.47145  24613099.675    24613111.3184
  23555429.075    -7359788.537 7  -5722580.81245  23555428.356    23555439.2774
 00  2 26  3 18 30.0000000  0  7 21 26 17 23 06 30 22
  24424457.696    -6297660.595 7  -4667020.06045  24424457.381    24424470.0774
  21805482.865   -20656112.950 8 -15637510.99947  21805483.128    21805491.1584
  20909358.822    -5410386.311 9  -4206034.17248  20909358.323    20909366.2564
  21333434.229   -19278673.806 9 -14998644.60547  21333433.851    21333442.5594
  20643946.427   -27634328.486 9 -21518761.68647  20643946.423    20643954.1464
  24632220.027    -5099407.838 7  -3954899.25145  24632220.249    24632231.8674
  23554525.431    -7364536.406 8  -5726280.39345  23554524.812    23554535.7684
 00  2 26  3 19  0.0000000  0  7 21 26 17 23 06 30 22
  24407844.451    -6384962.305 8  -4735047.10145  24407844.141    24407856.8304
  21804104.723   -20663355.236 8 -15643154.29547  21804104.952    21804112.9624
  20905803.024    -5429071.940 9  -4220594.38848  20905802.544    20905810.4574
  21324095.680   -19327748.065 9 -15036884.22347  21324095.296    21324103.9624
  20652693.797   -27588360.981 9 -21482942.86547  20652693.787    20652701.5004
  24651319.921    -4999037.346 7  -3876688.58045  24651320.256    24651331.9514
  23553727.175    -7368731.601 8  -5729549.34446  23553726.485    23553737.4224
 00  2 26  3 19 30.0000000  0  7 21 26 17 23 06 30 22
  24391268.774    -6472067.416 7  -4802920.96545  24391268.387    24391281.0854
  21802842.121   -20669990.104 8 -15648324.27547  21802842.346    21802850.2914
  20902280.666    -5447581.995 9  -4235017.79248  20902280.192    20902288.0814
  21314836.298   -19376406.291 9 -15074799.65447  21314835.886    21314844.5424
  20661538.435   -27541882.183 9 -21446725.62847  20661538.395    20661546.1194
  24670399.639    -4898773.114 8  -3798560.72345  24670399.967    24670411.7344
  23553032.629    -7372381.805 8  -5732393.61146  23553031.905    23553042.6994
 00  2 26  3 20  0.0000000  0  7 21 26 17 23 06 30 22
  24374733.327    -6558960.820 8  -4870629.83645  24374732.984    24374745.6114
  21801695.751   -20676014.060 8 -15653018.21747  21801695.960    21801703.9174
  20898794.401    -5465902.424 9  -4249293.42148  20898793.916    20898801.7924
  21305655.537   -19424651.200 9 -15112393.02447  21305655.122    21305663.7574
  20670480.025   -27494893.626 9 -21410111.18147  20670479.995    20670487.7264
  24689459.268    -4798614.471 8  -3720515.14045  24689459.574    24689471.3614
  23552440.092    -7375495.965 8  -5734820.20346  23552439.305    23552450.0184
 00  2 26  3 20 30.0000000  0  7 21 26 17 23 06 30 22
  24358242.566    -6645619.634 8  -4938155.92745  24358242.170    24358254.7354
  21800668.294   -20681413.218 8 -15657225.31947  21800668.511    21800676.4094
  20895343.838    -5484035.095 9  -4263422.74748  20895343.355    20895351.2584
  21296551.329   -19472493.718 9 -15149672.84347  21296550.925    21296559.5594
  20679517.432   -27447401.892 9 -21373104.63347  20679517.398    20679525.1234
  24708499.627    -4698557.209 7  -3642548.55745  24708499.861    24708511.7154
  23551944.020    -7378102.907 8  -5736851.55046  23551943.289    23551953.9544
 00  2 26  3 21  0.0000000  0  7 21 26 17 23 06 30 22
  24341792.942    -6732062.608 8  -5005513.85645  24341792.578    24341804.8604
  21799761.284   -20686179.693 8 -15660939.41947  21799761.469    21799769.3294
  20891928.017    -5501985.160 9  -4277409.79148  20891927.540    20891935.4054
  21287521.276   -19519946.441 9 -15186648.92247  21287520.896    21287529.5214
  20688649.875   -27399410.604 9 -21335708.82347  20688649.836    20688657.5864
  24727523.069    -4598589.174 8  -3564651.50145  24727523.272    24727535.1534
  23551539.435    -7380229.980 8  -5738508.97546  23551538.569    23551549.1494
 00  2 26  3 21 30.0000000  0  7 21 26 17 23 06 30 22
  24325379.007    -6818317.670 8  -5072725.35645  24325378.651    24325390.7764
  21798975.053   -20690311.297 8 -15664158.81247  21798975.273    21798983.1304
  20888547.070    -5519751.972 9  -4291254.04648  20888546.600    20888554.4724
  21278563.441   -19567019.933 9 -15223329.49648  21278563.057    21278571.6464
  20697874.829   -27350933.212 9 -21297934.23747  20697874.779    20697882.5334
  24746532.214    -4498695.481 7  -3486812.38745  24746532.482    24746544.3774
  23551223.743    -7381888.690 8  -5739801.45146  23551222.988    23551233.4094
 00  2 26  3 22  0.0000000  0  7 21 26 17 23 06 30 22
  24308993.968    -6904419.946 8  -5139817.80045  24308993.624    24309005.7184
  21798311.746   -20693796.677 8 -15666874.65947  21798311.933    21798319.8514
  20885198.171    -5537350.517 9  -4304967.18148  20885197.698    20885205.5644
  21269676.946   -19613718.565 9 -15259717.96848  21269676.559    21269685.1524
  20707190.512   -27301979.062 9 -21259788.15047  20707190.480    20707198.2124
  24765525.608    -4398885.071 7  -3409038.18845  24765525.853    24765537.8144
  23550996.782    -7383081.163 8  -5740730.61046  23550996.005    23551006.4344
 00  2 26  3 22 30.0000000  0  7 21 26 17 23 06 30 22
  24292636.589    -6990377.666 8  -5206797.61145  24292636.208    24292648.2714
  21797768.146   -20696653.109 8 -15669100.40947  21797768.329    21797776.2564
  20881881.684    -5554778.708 9  -4318547.55948  20881881.195    20881889.0614
  21260861.677   -19660042.946 9 -15295814.82048  21260861.322    21260869.8654
  20716597.295   -27252546.135 9 -21221268.99147  20716597.238    20716604.9614
  24784499.650    -4299176.736 8  -3331343.50845  24784499.897    24784511.8104
  23550859.613    -7383802.177 8  -5741292.40846  23550858.790    23550869.1644
 00  2 26  3 23  0.0000000  0  7 21 26 17 23 06 30 22
  24276305.042    -7076199.439 8  -5273671.51845  24276304.675    24276316.6254
  21797342.402   -20698890.146 8 -15670843.52347  21797342.604    21797350.5024
  20878599.471    -5572026.602 9  -4331987.44948  20878598.987    20878606.8714
  21252121.996   -19705970.104 9 -15331602.14848  21252121.603    21252130.1604
  20726095.757   -27202631.363 9 -21182374.38647  20726095.712    20726103.4404
  24803453.486    -4199574.581 8  -3253731.55045  24803453.696    24803465.5774
  23550819.991    -7384010.469 8  -5741454.66946  23550819.127    23550829.5114
 00  2 26  3 23 30.0000000  0  6 21 26 17 23 06 22
  24260001.851    -7161871.359 7  -5340428.61545  24260001.441    24260013.5564
  21797029.678   -20700533.782 8 -15672124.24047  21797029.860    21797037.6664
  20875350.045    -5589102.360 9  -4345293.21248  20875349.586    20875357.4544
  21243457.061   -19751504.093 9 -15367083.10548  21243456.681    21243465.2484
  20735683.752   -27152246.117 9 -21143113.17947  20735683.715    20735691.4314
  23550879.047    -7383699.529 8  -5741212.34346  23550878.297    23550888.6744
 00  2 26  3 24  0.0000000  0  6 21 26 17 23 06 22
  24243734.161    -7247357.264 7  -5407040.76145  24243733.823    24243745.8474
  21796829.712   -20701584.260 8 -15672942.75947  21796829.889    21796837.7344
  20872138.306    -5605980.078 9  -4358444.65848  20872137.830    20872145.7174
  21234870.708   -19796625.356 9 -15402242.46348  21234870.325    21234878.8554
  20745364.681   -27101372.740 9 -21103471.60747  20745364.623    20745372.3604
  23551040.645    -7382849.831 8  -5740550.20746  23551039.944    23551050.4334
 00  2 26  3 24 30.0000000  0  6 21 26 17 23 06 22
  24227511.081    -7332609.125 7  -5473470.56245  24227510.794    24227522.6234
  21796744.708   -20702030.672 8 -15673290.56947  21796744.908    21796752.7474
  20868969.819    -5622630.441 9  -4371418.94148  20868969.323    20868977.2164
  21226365.925   -19841317.786 9 -15437067.66348  21226365.563    21226374.0584
  20755142.283   -27049991.082 9 -21063433.96847  20755142.244    20755149.9904
  23551310.487    -7381432.034 8  -5739445.39546  23551309.757    23551320.2154
 00  2 26  3 25  0.0000000  0  6 21 26 17 23 06 22
  24211331.794    -7417630.484 7  -5539720.75845  24211331.594    24211343.4204
  21796777.990   -20701855.514 8 -15673154.04547  21796778.165    21796786.0144
  20865841.394    -5639070.145 9  -4384229.07348  20865840.919    20865848.8074
  21217940.557   -19885593.192 9 -15471567.91048  21217940.196    21217948.6894
  20765011.253   -26998129.194 9 -21023022.11747  20765011.222    20765019.0104
  23551685.965    -7379459.340 8  -5737908.20246  23551685.257    23551695.5334
 00  2 26  3 25 30.0000000  0  6 21 26 17 23 06 22
  24195192.703    -7502441.458 8  -5605807.02045  24195192.477    24195204.3204
  21796928.721   -20701063.223 8 -15672536.63947  21796928.920    21796936.7814
  20862749.542    -5655317.806 9  -4396889.56748  20862749.069    20862756.9564
  21209589.884   -19929475.720 9 -15505762.02948  21209589.537    21209598.0624
  20774967.144   -26945810.762 9 -20982254.53947  20774967.110    20774974.9114
  23552159.464    -7376970.555 8  -5735968.85046  23552158.820    23552169.1104
 00  2 26  3 26  0.0000000  0  6 21 26 17 23 06 22
  24179088.893    -7587066.955 8  -5671748.77245  24179088.666    24179100.5034
  21797197.822   -20699649.202 8 -15671434.77047  21797198.044    21797205.8524
  20859690.344    -5671393.915 9  -4409416.37648  20859689.877    20859697.7694
  21201313.197   -19972969.898 9 -15539653.53448  21201312.827    21201321.3444
  20785007.972   -26893045.717 9 -20941138.94047  20785007.948    20785015.7344
  23552729.885    -7373972.686 8  -5733632.81846  23552729.305    23552739.5444
 00  2 26  3 26 30.0000000  0  6 21 26 17 23 06 22
  24163016.180    -7671529.512 8  -5737563.55445  24163015.863    24163027.6314
  21797586.335   -20697607.583 8 -15669843.85747  21797586.535    21797594.2834
  20856658.232    -5687327.629 9  -4421832.23548  20856657.756    20856665.6714
  21193107.389   -20016091.457 9 -15573254.68448  21193107.027    21193115.5084
  20795133.098   -26839837.931 9 -20899678.33747  20795133.089    20795140.8844
  23553394.238    -7370481.762 8  -5730912.57946  23553393.615    23553403.8194
 00  2 26  3 27  0.0000000  0  6 21 26 17 23 06 22
  24146969.184    -7755856.296 8  -5803272.56545  24146968.811    24146980.5544
  21798093.242   -20694943.499 8 -15667767.90647  21798093.454    21798101.1354
  20853651.388    -5703128.742 9  -4434144.77048  20853650.908    20853658.8114
  21184972.892   -20058838.615 9 -15606564.09648  21184972.499    21184980.9724
  20805341.365   -26786193.389 9 -20857877.41547  20805341.352    20805349.1344
  23554150.556    -7366507.579 8  -5727815.77946  23554149.871    23554160.0394
 00  2 26  3 27 30.0000000  0  6 21 26 17 23 06 22
  24130948.969    -7840042.737 8  -5868872.21545  24130948.612    24130960.2164
  21798716.184   -20691669.718 8 -15665216.86847  21798716.403    21798724.0394
  20850670.435    -5718793.562 9  -4446351.09248  20850669.981    20850677.8724
  21176912.587   -20101195.644 9 -15639569.50848  21176912.199    21176920.6434
  20815638.871   -26732079.716 9 -20815710.94047  20815638.863    20815646.6524
  23554999.149    -7362047.963 8  -5724340.71846  23554998.434    23555008.6644
 00  2 26  3 28  0.0000000  0  6 21 26 17 23 06 22
  24114960.172    -7924063.730 8  -5934342.93545  24114959.831    24114971.3604
  21799455.993   -20687781.855 8 -15662187.32447  21799456.181    21799463.8244
  20847718.690    -5734305.049 9  -4458437.93948  20847718.235    20847726.1104
  21168927.458   -20143157.247 9 -15672266.78948  21168927.067    21168935.5334
  20826028.611   -26677481.394 9 -20773166.80447  20826028.581    20826036.3824
  23555942.369    -7357090.919 8  -5720478.05046  23555941.651    23555951.8614
 00  2 26  3 28 30.0000000  0  6 21 26 17 23 06 22
  24099004.538    -8007910.050 8  -5999677.55245  24099004.198    24099015.7274
  21800314.446   -20683270.383 8 -15658671.85247  21800314.616    21800322.3394
  20844800.122    -5749642.230 9  -4470388.96748  20844799.665    20844807.5044
  21161019.031   -20184716.123 9 -15704650.26548  21161018.652    21161027.0884
  20836507.856   -26622412.538 9 -20730256.01347  20836507.836    20836515.6254
  23556980.968    -7351632.549 8  -5716224.73846  23556980.312    23556990.5314
 00  2 26  3 29  0.0000000  0  6 21 26 17 23 06 22
  24083084.304    -8091570.089 7  -6064867.02345  24083083.928    24083095.4894
  21801291.334   -20678136.606 8 -15654671.46647  21801291.530    21801299.2924
  20841918.592    -5764784.691 9  -4482188.24848  20841918.110    20841925.9654
  21153190.158   -20225856.894 9 -15736707.94048  21153189.762    21153198.1694
  20847073.445   -26566889.931 9 -20686991.64447  20847073.421    20847081.2074
  23558116.905    -7345662.925 8  -5711573.03746  23558116.256    23558126.4364
 00  2 26  3 29 30.0000000  0  6 21 26 17 23 06 22
  24067203.865    -8175021.157 7  -6129893.62945  24067203.591    24067215.1564
  21802387.093   -20672377.964 8 -15650184.17747  21802387.281    21802395.0804
  20839075.088    -5779727.021 9  -4493831.58948  20839074.609    20839082.4694
  21145440.091   -20266583.805 9 -15768443.13448  21145439.697    21145448.0634
  20857725.296   -26510914.030 9 -20643374.06747  20857725.287    20857733.0534
  23559350.894    -7339177.867 8  -5706519.70546  23559350.291    23559360.4394
 00  2 26  3 30  0.0000000  0  6 21 26 17 23 06 22
  24051361.986    -8258270.315 8  -6194762.91545  24051361.719    24051373.1824
  21803603.581   -20665985.295 8 -15645202.83947  21803603.799    21803611.5304
  20836269.525    -5794470.067 9  -4505319.64548  20836269.071    20836276.9014
  21137766.397   -20306909.149 9 -15799865.41348  21137766.009    21137774.3504
  20868457.512   -26454515.858 9 -20599427.44447  20868457.498    20868465.2294
  23560682.112    -7332182.143 8  -5701068.46746  23560681.529    23560691.6364
 00  2 26  3 30 30.0000000  0  6 21 26 17 23 06 22
  24035556.405    -8341328.954 8  -6259483.75845  24035556.041    24035567.4264
  21804938.759   -20658968.708 8 -15639735.32947  21804938.975    21804946.6774
  20833497.643    -5809036.673 9  -4516670.22148  20833497.170    20833504.9744
  21130168.966   -20346833.402 9 -15830975.15548  21130168.579    21130176.9274
  20879270.219   -26397695.095 9 -20555151.53347  20879270.192    20879277.8864
  23562109.712    -7324680.472 8  -5695222.96846  23562109.131    23562119.1004
 00  2 26  3 31  0.0000000  0  6 21 26 17 23 06 22
  24019786.793    -8424197.969 8  -6324056.82745  24019786.568    24019797.8644
  21806390.025   -20651341.636 8 -15633792.11047  21806390.250    21806397.9934
  20830756.788    -5823439.889 9  -4527893.47348  20830756.318    20830764.1004
  21122645.246   -20386370.524 9 -15861783.22448  21122644.857    21122653.2034
  20890168.951   -26340421.898 9 -20510523.08447  20890168.917    20890176.6034
  23563631.011    -7316686.344 8  -5688993.74246  23563630.378    23563640.3044
 00  2 26  3 31 30.0000000  0  6 21 26 17 23 06 22
  24004055.345    -8506867.235 8  -6388474.25845  24004055.099    24004066.3464
  21807957.860   -20643102.368 8 -15627371.86147  21807958.095    21807965.8314
  20828046.312    -5837683.166 9  -4538992.10348  20828045.854    20828053.6514
  21115194.120   -20425526.274 9 -15892294.12648  21115193.746    21115202.0744
  20901157.202   -26282678.199 9 -20465528.00947  20901157.170    20901164.8984
  23565243.061    -7308214.681 8  -5682392.41046  23565242.403    23565252.3394
 00  2 26  3 32  0.0000000  0  6 21 26 17 23 06 22
  23988360.324    -8589344.534 8  -6452742.09645  23988360.034    23988371.2244
  21809643.709   -20634243.030 8 -15620468.43847  21809643.947    21809651.6394
  20825367.834    -5851758.678 9  -4549960.01048  20825367.358    20825375.1214
  21107815.513   -20464300.920 9 -15922508.07148  21107815.144    21107823.4254
  20912235.087   -26224463.573 9 -20420165.98347  20912235.061    20912242.8034
  23566944.745    -7299271.743 8  -5675423.84646  23566944.124    23566954.1224
 00  2 26  3 32 30.0000000  0  6 21 26 17 23 06 22
  23972703.433    -8671621.481 8  -6516853.82945  23972703.143    23972714.2364
  21811445.655   -20624773.865 8 -15613089.83747  21811445.900    21811453.5744
  20822720.160    -5865672.145 9  -4560801.65248  20822719.711    20822727.4684
  21100509.948   -20502691.730 9 -15952422.92348  21100509.561    21100517.8254
  20923405.899   -26165760.561 9 -20374423.39847  20923405.867    20923413.6174
  23568736.589    -7289855.859 8  -5668086.74646  23568735.934    23568745.8974
 00  2 26  3 33  0.0000000  0  6 21 26 17 23 06 22
  23957085.861    -8753691.996 8  -6580804.68845  23957085.435    23957096.5284
  21813365.465   -20614685.254 8 -15605228.55047  21813365.711    21813373.3584
  20820107.108    -5879403.635 9  -4571501.48448  20820106.650    20820114.4004
  21093275.795   -20540707.185 9 -15982045.29448  21093275.399    21093283.6414
  20934667.967   -26106578.015 9 -20328307.13547  20934667.941    20934675.7004
  23570616.758    -7279975.569 8  -5660387.78546  23570616.072    23570626.0304
 00  2 26  3 33 30.0000000  0  6 21 26 17 23 06 22
  23941506.363    -8835561.632 8  -6644599.04445  23941506.001    23941517.0004
  21815402.250   -20603981.929 8 -15596888.25247  21815402.461    21815410.0854
  20817529.320    -5892949.902 9  -4582056.99248  20817528.865    20817536.6244
  21086115.228   -20578335.881 9 -16011366.30648  21086114.857    21086123.0844
  20946018.970   -26046928.485 9 -20281826.99947  20946018.933    20946026.6844
  23572588.013    -7269616.553 8  -5652315.78646  23572587.268    23572597.2474
 00  2 26  3 34  0.0000000  0  6 21 26 17 23 06 22
  23925961.696    -8917248.520 8  -6708251.01645  23925961.352    23925972.1784
  21817556.819   -20592659.017 8 -15588065.16847  21817557.069    21817564.7414
  20814987.866    -5906305.235 9  -4592463.71948  20814987.424    20814995.1704
  21079030.094   -20615568.266 9 -16040378.49248  21079029.722    21079037.9334
  20957461.549   -25986797.481 9 -20234971.68847  20957461.501    20957469.2544
  23574653.546    -7258761.857 8  -5643857.53246  23574652.778    23574662.7584
 00  2 26  3 34 30.0000000  0  6 21 26 17 23 06 22
  23910452.977    -8998746.466 8  -6771755.76445  23910452.658    23910463.3244
  21819829.668   -20580715.050 8 -15578758.15247  21819829.916    21819837.5714
  20812483.999    -5919463.111 9  -4602716.58848  20812483.548    20812491.2914
  21072024.125   -20652384.588 9 -16069066.47948  21072023.752    21072031.9484
  20968998.621   -25926169.872 9 -20187729.41447  20968998.574    20969006.3134
  23576813.780    -7247409.673 8  -5635011.61246  23576813.032    23576822.9164
 00  2 26  3 35  0.0000000  0  6 21 26 17 23 06 22
  23894980.498    -9080054.162 8  -6835112.27045  23894980.160    23894990.7804
  21822223.971   -20568132.859 8 -15568953.81547  21822224.228    21822231.8854
  20810022.076    -5932400.571 9  -4612797.70148  20810021.612    20810029.3604
  21065100.065   -20688770.609 9 -16097419.15948  21065099.675    21065107.8514
  20980628.686   -25865053.488 9 -20140106.27147  20980628.653    20980636.4014
  23579070.852    -7235548.399 8  -5625769.02346  23579070.100    23579079.9574
 00  2 26  3 35 30.0000000  0  6 21 26 17 23 06 22
  23879546.180    -9161161.309 8  -6898312.49245  23879545.865    23879556.4704
  21824740.759   -20554907.008 8 -15558647.92147  21824740.996    21824748.6794
  20807601.912    -5945118.562 9  -4622707.80648  20807601.437    20807609.1784
  21058260.193   -20724713.826 9 -16125426.81448  21058259.810    21058267.9844
  20992352.822   -25803442.729 9 -20092097.91147  20992352.786    20992360.5284
  23581427.543    -7223163.461 8  -5616118.38146  23581426.827    23581436.6084
 00  2 26  3 36  0.0000000  0  6 21 26 17 23 06 22
  23864152.655    -9242054.246 8  -6961345.79445  23864152.341    23864162.9784
  21827382.912   -20541022.141 8 -15547828.50847  21827383.157    21827390.8204
  20805224.337    -5957612.859 9  -4632443.60748  20805223.853    20805231.6094
  21051503.329   -20760220.884 9 -16153094.58648  21051502.958    21051511.1294
  21004168.262   -25741352.299 9 -20043715.79447  21004168.227    21004175.9774
  23583881.681    -7210266.801 8  -5606068.97846  23583880.919    23583890.6944
 00  2 26  3 36 30.0000000  0  6 21 26 17 23 06 22
  23848804.242    -9322710.219 8  -7024194.45445  23848803.957    23848814.5724
  21830148.563   -20526488.433 8 -15536503.50947  21830148.792    21830156.4454
  20802887.632    -5969892.022 9  -4642011.76648  20802887.161    20802894.9224
  21044827.294   -20795303.756 9 -16180431.81348  21044826.900    21044835.0464
  21016068.583   -25678815.817 9 -19994986.10247  21016068.548    21016076.2924
  23586430.762    -7196870.885 8  -5595630.54746  23586430.064    23586439.7884
 00  2 26  3 37  0.0000000  0  6 21 26 17 23 06 22
  23833500.599    -9403131.177 8  -7086859.96545  23833500.242    23833510.8384
  21833034.488   -20511322.913 8 -15524686.19047  21833034.715    21833042.3524
  20800587.060    -5981981.464 9  -4651432.09348  20800586.594    20800594.3654
  21038226.107   -20829992.860 9 -16207462.20948  21038225.720    21038233.8684
  21028051.560   -25615844.874 9 -19945917.85447  21028051.543    21028059.2824
  23589073.394    -7182983.502 8  -5584809.17046  23589072.715    23589082.3974
 00  2 26  3 37 30.0000000  0  6 21 26 17 23 06 22
  23818239.931    -9483325.595 8  -7149348.96945  23818239.587    23818250.2564
  21836035.629   -20495551.717 8 -15512396.92047  21836035.827    21836043.5054
  20798319.611    -5993896.940 9  -4660716.85648  20798319.143    20798326.8904
  21031696.962   -20864303.373 9 -16234197.59148  21031696.580    21031704.7264
  21040116.977   -25552440.883 9 -19896512.16047  21040116.940    21040124.6854
  23591805.547    -7168625.441 8  -5573621.00146  23591804.923    23591814.5534
 00  2 26  3 38  0.0000000  0  6 21 26 17 23 06 22
  23803021.735    -9563297.302 8  -7211664.43445  23803021.361    23803032.0004
  21839150.443   -20479182.814 8 -15499641.91347  21839150.631    21839158.3894
  20796084.747    -6005641.073 9  -4669868.10648  20796084.280    20796092.0174
  21025240.898   -20898230.002 9 -16260633.85748  21025240.519    21025248.6264
  21052264.327   -25488606.398 9 -19846771.03247  21052264.281    21052272.0034
  23594627.806    -7153793.878 8  -5562063.89546  23594627.209    23594636.7964
 00  2 26  3 38 30.0000000  0  6 21 26 17 23 06 22
  23787845.567    -9643048.139 8  -7273807.79745  23787845.167    23787855.7894
  21842376.849   -20462227.617 8 -15486430.04147  21842377.027    21842384.8524
  20793880.471    -6017224.688 9  -4678894.27048  20793880.006    20793887.7104
  21018856.748   -20931778.622 9 -16286775.57148  21018856.369    21018864.4544
  21064495.280   -25424332.494 9 -19796687.50347  21064495.223    21064502.9464
  23597541.277    -7138483.501 8  -5550133.67346  23597540.593    23597550.2314
 00  2 26  3 39  0.0000000  0  6 21 26 17 23 06 22
  23772707.260    -9722599.974 8  -7335796.09646  23772706.918    23772717.4244
  21845716.152   -20444679.558 8 -15472756.19647  21845716.355    21845724.1754
  20791708.274    -6028639.513 9  -4687788.91248  20791707.790    20791715.4964
  21012545.683   -20964943.115 9 -16312617.97748  21012545.318    21012553.3724
  21076811.255   -25359611.410 9 -19746255.52147  21076811.207    21076818.9734
  23600545.042    -7122698.558 8  -5537833.66846  23600544.353    23600553.9454
 00  2 26  3 39 30.0000000  0  6 21 26 17 23 06 22
  23757605.403    -9801959.798 8  -7397634.77046  23757605.083    23757615.6344
  21849172.362   -20426517.379 8 -15458603.82347  21849172.523    21849180.2784
  20789571.720    -6039866.787 9  -4696537.41748  20789571.259    20789578.9714
  21006312.901   -20997696.413 9 -16338139.97348  21006312.533    21006320.5504
  21089211.660   -25294446.808 9 -19695477.93647  21089211.633    21089219.4244
  23603640.631    -7106431.385 8  -5525157.90346  23603639.890    23603649.4664
 00  2 26  3 40  0.0000000  0  6 21 26 17 23 06 22
  23742541.917    -9881118.352 8  -7459316.62846  23742541.610    23742552.0944
  21852750.402   -20407714.576 8 -15443952.25247  21852750.605    21852758.2304
  20787470.606    -6050908.114 9  -4705141.03048  20787470.134    20787477.8394
  21000159.367   -21030033.337 9 -16363337.51348  21000158.983    21000166.9824
  21101697.107   -25228835.489 9 -19644352.24747  21101697.059    21101704.8574
  23606827.917    -7089681.434 8  -5512105.94546  23606827.264    23606836.7494
 00  2 26  3 40 30.0000000  0  6 21 26 17 23 06 22
  23727514.318    -9960088.405 8  -7520851.61146  23727514.004    23727524.4284
  21856452.292   -20388260.911 8 -15428793.52647  21856452.453    21856460.0654
  20785406.165    -6061756.850 9  -4713594.56748  20785405.683    20785413.3954
  20994083.618   -21061961.372 9 -16388216.44748  20994083.219    20994091.2254
  21114267.569   -25162777.333 9 -19592878.38847  21114267.537    21114275.3494
  23610103.477    -7072467.745 8  -5498692.62946  23610102.816    23610112.3254
 00  2 26  3 41  0.0000000  0  6 21 26 17 23 06 22
  23712521.894   -10038873.659 8  -7582242.57746  23712521.603    23712531.9754
  21860279.989   -20368145.797 8 -15413119.39147  21860280.173    21860287.7414
  20783380.895    -6072399.390 9  -4721887.43548  20783380.435    20783388.1594
  20988087.808   -21093469.479 9 -16412768.15948  20988087.419    20988095.4084
  21126922.697   -25096274.463 9 -19541057.99547  21126922.666    21126930.4534
  23613467.087    -7054792.332 8  -5484919.55646  23613466.268    23613475.8084
 00  2 26  3 41 30.0000000  0  6 21 26 17 23 06 22
  23697568.423   -10117454.100 8  -7643473.95846  23697568.095    23697578.5164
  21864231.612   -20347379.867 8 -15396938.12447  21864231.747    21864239.3304
  20781396.249    -6082828.938 9  -4730014.33848  20781395.799    20781403.4994
  20982169.952   -21124567.770 9 -16437000.54148  20982169.556    20982177.5284
  21139662.415   -25029326.788 9 -19488891.01147  21139662.376    21139670.1834
  23616921.711    -7036637.584 8  -5470772.94046  23616920.986    23616930.5394
 00  2 26  3 42  0.0000000  0  6 21 26 17 23 06 22
  23682656.713   -10195815.287 8  -7704534.49046  23682656.378    23682666.7624
  21868302.850   -20325984.855 8 -15380266.66647  21868303.049    21868310.6644
  20779451.367    -6093049.265 9  -4737978.20248  20779450.905    20779458.6184
  20976325.795   -21155278.665 9 -16460931.06948  20976325.422    20976333.3474
  21152486.136   -24961937.745 9 -19436380.11147  21152486.109    21152493.9244
  23620466.327    -7018010.288 8  -5456258.12446  23620465.602    23620475.1294
 00  2 26  3 42 30.0000000  0  6 21 26 17 23 06 22
  23667785.003   -10273966.328 8  -7765431.27646  23667784.614    23667794.9734
  21872490.151   -20303980.611 8 -15363120.48047  21872490.350    21872497.9444
  20777547.558    -6103053.838 9  -4745773.95148  20777547.094    20777554.7684
  20970554.989   -21185604.359 9 -16484561.43148  20970554.597    20970562.5194
  21165393.535   -24894108.797 9 -19383526.40747  21165393.513    21165401.3454
  23624102.529    -6998901.394 8  -5441368.04146  23624101.855    23624111.3564
 00  2 26  3 43  0.0000000  0  6 21 26 17 23 06 22
  23652956.784   -10351888.165 8  -7826149.46346  23652956.439    23652966.7024
  21876790.284   -20281383.332 8 -15345512.18447  21876790.473    21876798.0524
  20775683.272    -6112850.638 9  -4753407.79748  20775682.814    20775690.4864
  20964857.017   -21215547.108 9 -16507893.38748  20964856.622    20964864.5404
  21178384.937   -24825838.707 9 -19330328.95947  21178384.909    21178392.7724
  23627832.559    -6979299.396 8  -5426093.72746  23627831.913    23627841.5124
 00  2 26  3 43 30.0000000  0  6 21 26 17 23 06 22
  23638172.599   -10429579.075 8  -7886687.71346  23638172.243    23638182.4304
  21881201.475   -20258202.689 8 -15327449.31947  21881201.659    21881209.2044
  20773855.280    -6122456.946 9  -4760893.20848  20773854.800    20773862.4654
  20959229.978   -21245117.263 9 -16530935.01248  20959229.577    20959237.4704
  21191458.501   -24757136.648 9 -19276794.91147  21191458.459    21191466.3604
  23631656.292    -6959205.527 8  -5410436.13046  23631655.645    23631665.2994
 00  2 26  3 44  0.0000000  0  6 21 26 17 23 06 22
  23623429.681   -10507053.004 8  -7947056.88246  23623429.271    23623439.4954
  21885725.934   -20234426.109 8 -15308922.09347  21885726.118    21885733.7224
  20772058.324    -6131900.064 9  -4768251.46548  20772057.834    20772065.4764
  20953673.216   -21274318.096 9 -16553688.85248  20953672.814    20953680.7134
  21204612.440   -24688012.321 9 -19222931.82747  21204612.392    21204620.3434
  23635568.859    -6938644.597 8  -5394414.60045  23635568.127    23635577.9474
 00  2 26  3 44 30.0000000  0  6 21 26 17 23 06 22
  23608726.057   -10584319.823 8  -8007264.66245  23608725.709    23608735.8884
  21890364.203   -20210051.082 8 -15289928.54747  21890364.396    21890372.0384
  20770291.643    -6141183.944 9  -4775485.63748  20770291.167    20770298.7994
  20948187.341   -21303146.462 9 -16576152.46348  20948186.932    20948194.8194
  21217845.694   -24618471.216 9 -19168743.99547  21217845.651    21217853.5914
  23639566.897    -6917634.595 8  -5378043.14645  23639566.209    23639575.9524
 00  2 26  3 45  0.0000000  0  6 21 26 17 23 06 22
  23594063.678   -10661370.719 8  -8067304.20545  23594063.350    23594073.4004
  21895116.849   -20185075.438 8 -15270466.98947  21895117.086    21895124.6914
  20768554.715    -6150311.458 9  -4782597.95948  20768554.259    20768561.8714
  20942771.751   -21331605.148 9 -16598327.99848  20942771.361    20942779.2374
  21231156.945   -24548520.334 9 -19114236.83547  21231156.916    21231164.8264
  23643649.025    -6896182.282 8  -5361327.03345  23643648.363    23643658.1294
 00  2 26  3 45 30.0000000  0  6 21 26 17 23 06 22
  23579439.831   -10738219.043 8  -8127185.88745  23579439.494    23579449.5754
  21899984.842   -20159493.975 8 -15250533.37647  21899985.066    21899992.6244
  20766848.132    -6159279.576 9  -4789586.08248  20766847.661    20766855.2904
  20937427.760   -21359687.591 9 -16620210.36148  20937427.381    20937435.2364
  21244545.174   -24478164.733 9 -19059414.30847  21244545.137    21244553.0624
  23647812.893    -6874300.539 8  -5344276.30746  23647812.280    23647822.0654
 00  2 26  3 46  0.0000000  0  6 21 26 17 23 06 22
  23564854.547   -10814864.870 8  -8186909.79346  23564854.221    23564864.2864
  21904967.986   -20133307.253 8 -15230128.11747  21904968.216    21904975.7694
  20765175.440    -6168069.583 9  -4796435.41248  20765174.958    20765182.5654
  20932157.748   -21387381.438 9 -16641789.90948  20932157.359    20932165.2174
  21258015.084   -24407379.916 9 -19004257.32447  21258015.062    21258023.0044
  23652058.587    -6851989.584 8  -5326891.11546  23652057.971    23652067.6524
 00  2 26  3 46 30.0000000  0  6 21 26 17 23 06 22
  23550309.685   -10891298.275 8  -8246468.17846  23550309.401    23550319.3844
  21910066.324   -20106515.374 8 -15209251.31047  21910066.567    21910074.0564
  20763542.350    -6176651.552 9  -4803122.63948  20763541.839    20763549.4274
  20926965.525   -21414666.359 9 -16663050.82348  20926965.164    20926973.0094
  21271569.958   -24336148.580 9 -18948752.41347  21271569.919    21271577.8854
  23656389.438    -6829230.901 8  -5309157.04946  23656388.783    23656398.4904
 00  2 26  3 47  0.0000000  0  6 21 26 17 23 06 22
  23535807.563   -10967507.175 8  -8305851.62546  23535807.300    23535817.2364
  21915283.062   -20079101.233 8 -15187889.63447  21915283.315    21915290.8024
  20761951.472    -6185011.664 9  -4809636.99448  20761950.980    20761958.5564
  20921853.263   -21441531.416 9 -16683984.57348  20921852.883    20921860.7164
  21285210.922   -24264464.867 9 -18892895.00147  21285210.915    21285218.8704
  23660809.987    -6806000.821 8  -5291055.66546  23660809.353    23660819.0534
 00  2 26  3 47 30.0000000  0  6 21 26 17 23 06 22
  23521347.473   -11043495.043 8  -8365062.83746  23521347.180    23521357.1424
  21920620.387   -20051053.464 8 -15166034.20647  21920620.630    21920628.0404
  20760403.846    -6193144.333 9  -4815974.12148  20760403.362    20760410.9414
  20916820.548   -21467978.266 9 -16704592.45948  20916820.157    20916827.9814
  21298938.549   -24192326.063 9 -18836682.97247  21298938.532    21298946.4814
  23665320.724    -6782296.658 8  -5272584.85746  23665320.120    23665329.8194
 00  2 26  3 48  0.0000000  0  6 21 26 17 23 06 22
  23506929.210   -11119263.075 8  -8424102.76646  23506928.961    23506938.8974
  21926078.642   -20022370.005 8 -15143683.44947  21926078.881    21926086.3124
  20758897.269    -6201061.330 9  -4822143.19548  20758896.795    20758904.3534
  20911863.542   -21494027.103 9 -16724890.21648  20911863.168    20911870.9864
  21312749.730   -24119747.921 9 -18780128.61147  21312749.700    21312757.6584
  23669921.929    -6758117.116 8  -5253743.64046  23669921.295    23669931.0474
 00  2 26  3 48 30.0000000  0  7 21 26 17 23 06 03 22
  23492546.900   -11194842.193 8  -8482995.47846  23492546.608    23492556.5274
  21931653.413   -19993074.226 8 -15120855.55046  21931653.652    21931661.0874
  20757423.374    -6208806.546 9  -4828178.41048  20757422.895    20757430.4744
  20906972.510   -21519729.731 9 -16744918.19548  20906972.114    20906979.9184
  21326631.826   -24046796.894 9 -18723283.68847  21326631.820    21326639.7734
  24627452.996    -4812882.576 7  -3736246.12445  24627452.859    24627463.7944
  23674604.958    -6733507.416 8  -5234567.22446  23674604.313    23674614.1184
 00  2 26  3 49  0.0000000  0  7 21 26 17 23 06 03 22
  23478205.319   -11270207.729 8  -8541721.75946  23478204.987    23478214.8504
  21937346.843   -19963154.905 8 -15097541.77146  21937347.071    21937354.4864
  20755982.214    -6216379.789 9  -4834079.61948  20755981.743    20755989.3264
  20902149.079   -21545076.772 9 -16764669.10248  20902148.694    20902156.4574
  21340587.261   -23973460.787 9 -18666138.70147  21340587.279    21340595.2064
  24607886.314    -4915706.041 7  -3816368.14345  24607886.145    24607896.9934
  23679373.969    -6708446.247 8  -5215039.01446  23679373.301    23679383.0994
 00  2 26  3 49 30.0000000  0  7 21 26 17 23 06 03 22
  23463903.929   -11345361.551 8  -8600283.08646  23463903.578    23463913.3934
  21943156.308   -19932625.916 8 -15073752.92546  21943156.519    21943163.9194
  20754571.303    -6223793.967 9  -4839856.88948  20754570.820    20754578.3974
  20897391.087   -21570080.063 9 -16784152.15948  20897390.707    20897398.4254
  21354615.932   -23899740.034 9 -18608694.01247  21354615.907    21354623.8144
  24588338.355    -5018431.112 7  -3896413.50845  24588338.238    24588348.8374
  23684226.254    -6682947.600 8  -5195169.91646  23684225.552    23684235.3504
 00  2 26  3 50  0.0000000  0  7 21 26 17 23 06 03 22
  23449643.818   -11420298.370 8  -8658675.31646  23449643.480    23449653.2474
  21949078.094   -19901506.459 8 -15049503.97346  21949078.339    21949085.7214
  20753189.707    -6231054.282 9  -4845514.26448  20753189.246    20753196.7904
  20892700.207   -21594730.875 9 -16803360.55248  20892699.825    20892707.5154
  21368716.029   -23825643.560 9 -18550956.53447  21368716.006    21368723.9214
  24568805.030    -5121079.171 8  -3976398.87945  24568804.820    24568815.3354
  23689155.857    -6657042.312 8  -5174983.94546  23689155.209    23689164.9784
 00  2 26  3 50 30.0000000  0  7 21 26 17 23 06 03 22
  23435426.158   -11495012.439 8  -8716893.97246  23435425.792    23435435.5934
  21955109.593   -19869810.626 8 -15024805.90646  21955109.834    21955117.2284
  20751841.392    -6238139.732 9  -4851035.38048  20751840.910    20751848.4374
  20888082.030   -21618999.394 9 -16822271.05248  20888081.642    20888089.3084
  21382891.540   -23751151.005 9 -18492910.42947  21382891.522    21382899.4454
  24549286.426    -5223649.627 8  -4056323.77145  24549286.253    24549296.6594
  23694163.549    -6630726.545 8  -5154478.12146  23694162.882    23694172.6674
 00  2 26  3 51  0.0000000  0  7 21 26 17 23 06 03 22
  23421253.268   -11569491.201 8  -8774929.29446  23421252.904    23421262.6744
  21961250.166   -19837541.755 8 -14999661.31246  21961250.433    21961257.7404
  20750531.584    -6245022.815 9  -4856398.80948  20750531.106    20750538.6404
  20883543.126   -21642851.376 9 -16840856.96848  20883542.744    20883550.3854
  21397149.836   -23676223.426 9 -18434525.34147  21397149.811    21397157.7344
  24529788.342    -5326112.143 8  -4136164.54745  24529788.191    24529798.6024
  23699255.197    -6603969.415 8  -5133628.38946  23699254.567    23699264.3224
 00  2 26  3 51 30.0000000  0  7 21 26 17 23 06 03 22
  23407125.675   -11643731.516 8  -8832778.79146  23407125.315    23407135.0604
  21967503.744   -19804679.181 8 -14974054.08346  21967503.983    21967511.2854
  20749266.483    -6251670.989 9  -4861579.19048  20749266.002    20749273.5494
  20879086.608   -21666270.300 9 -16859105.41148  20879086.220    20879093.8944
  21411493.938   -23600844.894 9 -18375788.85247  21411493.891    21411501.8714
  24510314.043    -5428449.572 8  -4215907.87045  24510313.913    24510324.3564
  23704430.691    -6576772.372 8  -5112435.85946  23704430.015    23704439.7454
 00  2 26  3 52  0.0000000  0  7 21 26 17 23 06 03 22
  23393046.135   -11717719.105 8  -8890431.36846  23393045.812    23393055.5424
  21973874.332   -19771201.198 8 -14947967.33046  21973874.573    21973881.9314
  20748050.589    -6258060.344 9  -4866557.89948  20748050.124    20748057.6384
  20874715.955   -21689237.841 9 -16877002.13148  20874715.595    20874723.2644
  21425926.072   -23525003.527 9 -18316691.71447  21425926.050    21425934.0194
  24490868.021    -5530638.435 8  -4295535.43845  24490867.915    24490878.2704
  23709695.106    -6549107.667 8  -5090878.91346  23709694.440    23709704.1814
 00  2 26  3 52 30.0000000  0  7 21 26 17 23 06 03 22
  23379012.539   -11791465.285 8  -8947895.84046  23379012.207    23379021.9254
  21980362.972   -19737102.942 8 -14921397.22946  21980363.241    21980370.6174
  20746882.519    -6264198.550 9  -4871340.90148  20746882.043    20746889.5744
  20870426.904   -21711776.870 9 -16894564.96048  20870426.534    20870434.2084
  21440446.689   -23448697.369 9 -18257232.39847  21440446.658    21440454.6164
  24471453.685    -5632661.037 8  -4375033.48345  24471453.565    24471463.8934
  23715053.236    -6520950.202 8  -5068938.01446  23715052.621    23715062.3404
 00  2 26  3 53  0.0000000  0  7 21 26 17 23 06 03 22
  23365023.961   -11864975.180 8  -9005176.20046  23365023.671    23365033.3584
  21986971.558   -19702374.291 8 -14894335.93046  21986971.826    21986979.2064
  20745757.634    -6270109.624 9  -4875946.92048  20745757.181    20745764.6924
  20866211.013   -21733931.313 9 -16911828.11348  20866210.643    20866218.2924
  21455050.954   -23371951.617 9 -18197430.53347  21455050.917    21455058.8714
  24452068.369    -5734530.870 7  -4454412.48545  24452068.325    24452078.5124
  23720501.561    -6492319.202 8  -5046628.11046  23720500.909    23720510.6074
 00  2 26  3 53 30.0000000  0  7 21 26 17 23 06 03 22
  23351076.307   -11938270.428 8  -9062289.31646  23351075.987    23351085.6504
  21993698.631   -19667022.972 8 -14866789.43346  21993698.879    21993706.3634
  20744670.846    -6275820.715 9  -4880397.10548  20744670.374    20744677.9094
  20862062.309   -21755732.633 9 -16928816.09848  20862061.945    20862069.5864
  21469730.431   -23294810.374 9 -18137320.49347  21469730.375    21469738.3784
  24432707.430    -5836272.554 7  -4533691.64445  24432707.089    24432717.5714
  23726033.325    -6463249.622 8  -5023976.47846  23726032.589    23726042.3394
 00  2 26  3 54  0.0000000  0  7 21 26 17 23 06 03 22
  23337167.563   -12011361.200 8  -9119243.09146  23337167.245    23337176.8654
  22000539.302   -19631074.936 8 -14838777.95546  22000539.514    22000547.0564
  20743618.167    -6281352.484 9  -4884707.55948  20743617.683    20743625.2304
  20857979.439   -21777188.137 9 -16945534.64448  20857979.062    20857986.6834
  21484481.092   -23217295.170 9 -18076919.05247  21484481.043    21484489.0404
  24413372.039    -5937880.140 7  -4612866.28145  24413371.785    24413382.1304
  23731646.520    -6433751.700 8  -5000991.04946  23731645.764    23731655.5504
 00  2 26  3 54 30.0000000  0  7 21 26 17 23 06 03 22
  23323297.272   -12084249.968 8  -9176039.47446  23323296.948    23323306.5444
  22007491.062   -19594542.970 8 -14810311.48346  22007491.281    22007498.8884
  20742597.888    -6286713.668 9  -4888885.09348  20742597.419    20742604.9864
  20853963.283   -21798292.992 9 -16961979.97248  20853962.912    20853970.5034
  21499302.545   -23139407.850 9 -18016227.65947  21499302.503    21499310.5224
  24394061.304    -6039358.219 7  -4691939.98245  24394060.923    24394071.3864
  23737336.610    -6403849.515 8  -4977690.64146  23737335.894    23737345.7074
 00  2 26  3 55  0.0000000  0  7 21 26 17 23 06 03 22
  23309467.469   -12156925.801 8  -9232669.93746  23309467.162    23309476.7134
  22014553.202   -19557431.126 8 -14781393.13846  22014553.422    22014561.0124
  20741612.948    -6291889.493 9  -4892918.19048  20741612.481    20741620.0514
  20850017.877   -21819026.234 9 -16978135.72348  20850017.503    20850025.0674
  21514195.566   -23061144.741 9 -17955243.44447  21514195.542    21514203.5724
  24374774.336    -6140711.695 7  -4770916.57045  24374774.075    24374784.3754
  23743100.796    -6373558.025 8  -4954086.88346  23743100.104    23743109.8904
 00  2 26  3 55 30.0000000  0  7 21 26 17 23 06 03 22
  23295680.749   -12229375.149 8  -9289123.89646  23295680.456    23295690.0334
  22021725.960   -19519738.296 8 -14752022.07046  22021726.136    22021733.6894
  20740668.287    -6296853.699 9  -4896786.38248  20740667.815    20740675.3884
  20846150.596   -21839348.852 9 -16993971.49948  20846150.211    20846157.7724
  21529163.975   -22982485.442 9 -17893950.50847  21529163.950    21529171.9464
  24355516.499    -6241912.367 7  -4849774.07345  24355516.337    24355526.4984
  23748942.454    -6342859.978 8  -4930166.29745  23748941.670    23748951.4874
 00  2 26  3 56  0.0000000  0  7 21 26 17 23 06 03 22
  23281940.531   -12301580.147 8  -9345387.47046  23281940.259    23281949.7974
  22029011.410   -19481452.999 8 -14722189.35546  22029011.593    22029019.1064
  20739765.518    -6301597.645 9  -4900482.94448  20739765.050    20739772.6144
  20842363.229   -21859251.398 9 -17009479.93148  20842362.853    20842370.4254
  21544213.559   -22903399.387 9 -17832325.03447  21544213.501    21544221.5474
  24336289.880    -6342948.478 8  -4928503.36845  24336289.757    24336299.8044
  23754864.308    -6311739.817 8  -4905916.82545  23754863.620    23754873.4514
 00  2 26  3 56 30.0000000  0  7 21 26 17 23 06 03 22
  23268247.639   -12373536.482 8  -9401457.27046  23268247.357    23268256.8874
  22036412.160   -19442561.977 8 -14691884.63746  22036412.349    22036419.7764
  20738906.308    -6306112.924 9  -4904001.32648  20738905.854    20738913.4024
  20838652.599   -21878750.613 9 -17024674.09248  20838652.211    20838659.7844
  21559345.435   -22823880.615 9 -17770362.38547  21559345.396    21559353.4964
  24317093.052    -6443828.155 8  -5007110.76445  24317092.917    24317103.0094
  23760866.620    -6280196.990 8  -4881337.99245  23760865.925    23760875.8054
 00  2 26  3 57  0.0000000  0  7 21 26 17 23 06 03 22
  23254598.874   -12445261.227 8  -9457346.60546  23254598.557    23254608.1274
  22043927.652   -19403067.905 8 -14661110.00446  22043927.836    22043935.1764
  20738090.459    -6310400.205 9  -4907342.04348  20738089.979    20738097.5414
  20835013.920   -21897871.729 9 -17039573.62848  20835013.540    20835021.1074
  21574557.013   -22743942.904 9 -17708073.27647  21574557.015    21574565.1104
  24297925.278    -6544555.155 8  -5085599.17445  24297925.107    24297935.2014
  23766950.954    -6248223.765 8  -4856423.79145  23766950.113    23766960.0444
 00  2 26  3 57 30.0000000  0  7 21 26 17 23 06 03 22
  23240990.977   -12516770.934 8  -9513068.39546  23240990.677    23241000.1514
  22051557.281   -19362974.137 8 -14629868.08046  22051557.455    22051564.7384
  20737316.209    -6314468.883 9  -4910512.41448  20737315.725    20737323.2674
  20831443.689   -21916633.258 9 -17054192.95948  20831443.312    20831450.8944
  21589845.086   -22663603.670 8 -17645471.30147  21589845.071    21589853.1894
  24278784.291    -6645141.118 8  -5163977.67845  24278784.128    24278794.1984
  23773117.773    -6215816.306 8  -4831171.22445  23773117.053    23773126.9384
 00  2 26  3 58  0.0000000  0  7 21 26 17 23 06 03 22
  23227424.204   -12588064.757 8  -9568621.96246  23227423.928    23227433.3554
  22059298.156   -19322295.460 8 -14598170.38846  22059298.345    22059305.5844
  20736581.030    -6318332.312 9  -4913522.86348  20736580.554    20736588.1104
  20827939.283   -21935048.971 9 -17068542.82848  20827938.908    20827946.4754
  21605208.248   -22582870.030 9 -17582562.00247  21605208.206    21605216.3344
  24259666.592    -6745604.304 8  -5242260.49845  24259666.453    24259676.5484
  23779364.358    -6182990.211 7  -4805592.43445  23779363.600    23779373.6134
 00  2 26  3 58 30.0000000  0  7 21 26 17 23 06 03 22
  23213897.306   -12659149.059 8  -9624012.26346  23213896.974    23213906.4274
  22067148.278   -19281042.484 8 -14566025.19546  22067148.481    22067155.7564
  20735886.088    -6321984.040 9  -4916368.34948  20735885.615    20735893.1904
  20824501.519   -21953114.398 9 -17082619.73448  20824501.138    20824508.6924
  21620643.280   -22501758.503 9 -17519358.23647  21620643.270    21620651.3884
  24240572.991    -6845941.272 8  -5320444.94245  24240572.901    24240582.9304
  23785689.498    -6149750.997 8  -4779691.76345  23785688.761    23785698.7984
 00  2 26  3 59  0.0000000  0  7 21 26 17 23 06 03 22
  23200411.970   -12730014.940 8  -9679232.35946  23200411.629    23200421.0784
  22075106.599   -19239221.121 8 -14533437.09646  22075106.782    22075114.0974
  20735232.631    -6325418.059 9  -4919044.18548  20735232.148    20735239.7074
  20821135.357   -21970803.674 9 -17096403.52448  20821134.988    20821142.5254
  21636149.273   -22420274.104 8 -17455863.92047  21636149.256    21636157.3874
  24221506.486    -6946135.777 8  -5398518.36845  24221506.341    24221516.3314
  23792095.391    -6116087.380 8  -4753460.35245  23792094.726    23792104.6914
 00  2 26  3 59 30.0000000  0  7 21 26 17 23 06 03 22
  23186972.383   -12800640.096 8  -9734264.87446  23186972.004    23186981.5394
  22083175.200   -19196820.335 8 -14500397.50446  22083175.386    22083182.6884
  20734622.171    -6328625.823 9  -4921543.73048  20734621.710    20734629.2694
  20817846.794   -21988085.027 9 -17109869.45748  20817846.415    20817853.9404
  21651727.748   -22338408.877 8 -17392072.85447  21651727.711    21651735.8374
  24202472.419    -7046159.384 8  -5476458.65645  24202472.227    24202482.3094
  23798581.526    -6082002.869 8  -4726900.99645  23798580.865    23798590.8624
 00  2 26  4  0  0.0000000  0  7 21 26 17 23 06 03 22
  23173581.718   -12871007.869 8  -9789096.81546  23173581.363    23173590.9034
  22091356.291   -19153828.445 8 -14466897.30346  22091356.492    22091363.7564
  20734055.527    -6331603.597 9  -4923864.05148  20734055.043    20734062.6274
  20814636.885   -22004953.018 9 -17123013.30548  20814636.497    20814644.0164
  21667378.861   -22256161.593 8 -17327984.08747  21667378.826    21667386.9834
  24183476.130    -7145984.838 8  -5554244.52945  24183475.868    24183485.9494
  23805146.379    -6047504.212 8  -4700018.92345  23805145.711    23805155.7064
 00  2 26  4  0 30.0000000  0  7 21 26 17 23 06 03 22
  23160238.520   -12941126.520 8  -9843734.64546  23160238.191    23160247.7184
  22099653.055   -19110228.323 8 -14432923.16646  22099653.279    22099660.5314
  20733535.162    -6334337.817 9  -4925994.59848  20733534.713    20733542.2994
  20811504.716   -22021412.279 9 -17135838.66648  20811504.326    20811511.8334
  21683100.255   -22173545.102 8 -17263607.63047  21683100.222    21683108.3824
  24164519.884    -7245600.090 8  -5631866.64045  24164519.671    24164529.5474
  23811792.429    -6012579.648 8  -4672804.97745  23811791.630    23811801.6544
 00  2 26  4  1  0.0000000  0  7 21 26 17 23 06 03 22
  23146944.277   -13010987.945 8  -9898172.05046  23146943.954    23146953.4594
  22108064.228   -19066027.077 8 -14398480.61846  22108064.485    22108071.7494
  20733058.401    -6336843.220 9  -4927946.84848  20733057.933    20733065.5084
  20808446.275   -22037484.405 9 -17148362.37448  20808445.893    20808453.3794
  21698891.202   -22090562.778 8 -17198946.09747  21698891.210    21698899.4074
  24145602.488    -7345010.971 7  -5709329.47345  24145602.377    24145612.0804
  23818518.964    -5977231.870 8  -4645261.24545  23818518.063    23818527.9944
 00  2 26  4  1 30.0000000  0  7 21 26 17 23 06 03 22
  23133697.881   -13080598.408 8  -9952413.90246  23133697.545    23133706.9204
  22116590.968   -19021218.940 8 -14363565.16446  22116591.222    22116598.4894
  20732621.461    -6339139.173 9  -4929735.87848  20732620.995    20732628.5554
  20805455.147   -22053202.617 9 -17160610.29348  20805454.763    20805462.2644
  21714750.794   -22007220.396 8 -17134004.00347  21714750.821    21714759.0084
  24126717.807    -7444249.964 8  -5786658.36745  24126717.711    24126727.3324
  23825322.231    -5941481.221 8  -4617403.59045  23825321.333    23825331.1404
 00  2 26  4  2  0.0000000  0  7 21 26 17 23 06 03 22
  23120495.739   -13149975.872 8 -10006474.19046  23120495.394    23120504.6624
  22125229.530   -18975822.835 8 -14328191.55846  22125229.792    22125237.0474
  20732221.472    -6341241.160 9  -4931373.76748  20732221.002    20732228.5444
  20802525.550   -22068597.591 9 -17172606.34048  20802525.162    20802532.6474
  21730677.273   -21923526.609 8 -17068788.10447  21730677.245    21730685.4254
  24107859.992    -7543348.061 8  -5863877.50945  24107859.885    24107869.3634
  23832200.965    -5905333.671 8  -4589236.66245  23832200.051    23832209.8134
 00  2 26  4  2 30.0000000  0  7 21 26 17 23 06 03 22
  23107332.052   -13219151.281 8 -10060377.03646  23107331.678    23107340.9604
  22133974.818   -18929866.315 8 -14292381.26146  22133975.068    22133982.2524
  20731854.290    -6343170.786 9  -4932877.34548  20731853.826    20731861.3254
  20799656.755   -22083673.071 9 -17184353.41748  20799656.358    20799663.8344
  21746671.827   -21839474.944 8 -17003293.34447  21746671.802    21746679.9754
  24089024.802    -7642326.724 8  -5941003.55945  24089024.636    24089034.1244
  23839153.283    -5868798.946 8  -4560768.03146  23839152.418    23839162.1474
 00  2 26  4  3  0.0000000  0  7 21 26 17 23 06 03 22
  23094207.333   -13288121.617 8 -10114120.08846  23094206.993    23094216.2364
  22142825.570   -18883355.198 8 -14256138.81146  22142825.781    22142832.9784
  20731515.869    -6344949.053 9  -4934262.98748  20731515.391    20731522.8844
  20796850.203   -22098421.301 9 -17195845.50248  20796849.811    20796857.2994
  21762737.231   -21755050.864 8 -16937508.38147  21762737.191    21762745.3604
  24070211.275    -7741191.372 7  -6018040.79145  24070211.170    24070220.6044
  23846178.488    -5831880.738 8  -4532000.59446  23846177.735    23846187.3814
 00  2 26  4  3 30.0000000  0  7 21 26 17 23 06 03 22
  23081118.227   -13356905.491 8 -10167717.83946  23081117.864    23081127.0664
  22151781.771   -18836289.837 8 -14219464.48646  22151782.011    22151789.2404
  20731207.247    -6346570.844 9  -4935526.70248  20731206.784    20731214.2684
  20794108.214   -22112830.267 9 -17207073.21748  20794107.829    20794115.3174
  21778873.317   -21670254.954 8 -16871433.67147  21778873.320    21778881.5124
  24051420.617    -7839935.647 7  -6094984.23245  24051420.608    24051430.0104
  23853274.111    -5794592.311 8  -4502944.67846  23853273.502    23853283.0784
 00  2 26  4  4  0.0000000  0  7 21 26 17 23 06 03 22
  23068064.813   -13425501.341 8 -10221169.08846  23068064.462    23068073.7164
  22160841.221   -18788681.957 8 -14182367.41446  22160841.478    22160848.6994
  20730929.786    -6348028.861 9  -4936662.79648  20730929.306    20730936.7764
  20791434.905   -22126878.304 9 -17218019.67748  20791434.529    20791442.0254
  21795081.526   -21585080.325 8 -16805063.85647  21795081.529    21795089.7034
  24032660.803    -7938518.510 8  -6171801.89645  24032660.775    24032670.0884
  23860441.316    -5756928.458 8  -4473596.22446  23860440.760    23860450.3034
 00  2 26  4  4 30.0000000  0  7 21 26 17 23 06 03 22
  23055050.941   -13493888.989 8 -10274458.08946  23055050.611    23055059.9144
  22170003.947   -18740531.820 8 -14144847.80946  22170004.166    22170011.4224
  20730687.158    -6349303.817 9  -4937656.24848  20730686.694    20730694.1644
  20788832.896   -22140551.903 9 -17228674.37348  20788832.541    20788840.0084
  21811362.795   -21499521.953 8 -16738395.02447  21811362.798    21811370.9904
  24013936.297    -8036916.247 7  -6248475.32745  24013936.188    24013945.5154
  23867679.795    -5718890.543 8  -4443956.28746  23867679.130    23867688.6744
 00  2 26  4  5  0.0000000  0  7 21 26 17 23 06 03 22
  23042083.828   -13562031.521 8 -10327556.08046  23042083.458    23042092.7594
  22179271.495   -18691830.089 8 -14106898.39746  22179271.720    22179279.0434
  20730484.646    -6350367.996 9  -4938485.45748  20730484.174    20730491.6304
  20786300.838   -22153857.986 9 -17239042.68748  20786300.464    20786307.9034
  21827713.486   -21413598.810 8 -16671441.94047  21827713.458    21827721.6394
  23995248.465    -8135120.531 8  -6324997.99945  23995248.366    23995257.7934
  23874987.212    -5680489.964 8  -4414033.77246  23874986.560    23874996.1054
